<?xml version="1.0" encoding="UTF-8" standalone="no" ?>
<gpx xmlns="http://www.topografix.com/GPX/1/1" xmlns:xsi="http://www.w3.org/2001/XMLSchema-instance" xsi:schemaLocation="http://www.topografix.com/GPX/1/1 http://www.topografix.com/GPX/1/1/gpx.xsd" version="1.1" creator="VisuGPX - https://www.visugpx.com">
  <metadata>
    <name>14/05/2022</name>
    <desc><![CDATA[boucle au départ de Couraduque jusqu'au Col du Soulor et retour]]></desc>
  </metadata>
  <trk>
    <name><![CDATA[14/05/2022_1]]></name>
    <trkseg>
      <trkpt lat="42.99062" lon="-0.20231">
        <ele>1372.4</ele>
        <time>2022-05-14T06:53:55Z</time>
      </trkpt>
      <trkpt lat="42.99062" lon="-0.20231">
        <ele>1365.2</ele>
        <time>2022-05-14T06:53:56Z</time>
      </trkpt>
      <trkpt lat="42.99062" lon="-0.2023">
        <ele>1366.4</ele>
        <time>2022-05-14T06:53:58Z</time>
      </trkpt>
      <trkpt lat="42.99064" lon="-0.20229">
        <ele>1366.8</ele>
        <time>2022-05-14T06:54:10Z</time>
      </trkpt>
      <trkpt lat="42.99063" lon="-0.20237">
        <ele>1366.6</ele>
        <time>2022-05-14T06:54:13Z</time>
      </trkpt>
      <trkpt lat="42.99071" lon="-0.20253">
        <ele>1366.8</ele>
        <time>2022-05-14T06:54:18Z</time>
      </trkpt>
      <trkpt lat="42.99086" lon="-0.2027">
        <ele>1366.8</ele>
        <time>2022-05-14T06:54:24Z</time>
      </trkpt>
      <trkpt lat="42.99098" lon="-0.20287">
        <ele>1366.8</ele>
        <time>2022-05-14T06:54:29Z</time>
      </trkpt>
      <trkpt lat="42.99101" lon="-0.2029">
        <ele>1366.8</ele>
        <time>2022-05-14T06:54:30Z</time>
      </trkpt>
      <trkpt lat="42.99114" lon="-0.20296">
        <ele>1366.8</ele>
        <time>2022-05-14T06:54:36Z</time>
      </trkpt>
      <trkpt lat="42.99116" lon="-0.20296">
        <ele>1366.6</ele>
        <time>2022-05-14T06:54:38Z</time>
      </trkpt>
      <trkpt lat="42.99118" lon="-0.20299">
        <ele>1366.6</ele>
        <time>2022-05-14T06:54:40Z</time>
      </trkpt>
      <trkpt lat="42.99117" lon="-0.20301">
        <ele>1366.4</ele>
        <time>2022-05-14T06:54:41Z</time>
      </trkpt>
      <trkpt lat="42.99115" lon="-0.20301">
        <ele>1366.4</ele>
        <time>2022-05-14T06:54:43Z</time>
      </trkpt>
      <trkpt lat="42.99113" lon="-0.203">
        <ele>1366.4</ele>
        <time>2022-05-14T06:54:44Z</time>
      </trkpt>
      <trkpt lat="42.99112" lon="-0.20294">
        <ele>1366.4</ele>
        <time>2022-05-14T06:54:47Z</time>
      </trkpt>
      <trkpt lat="42.99113" lon="-0.2029">
        <ele>1366.2</ele>
        <time>2022-05-14T06:54:52Z</time>
      </trkpt>
      <trkpt lat="42.99113" lon="-0.20289">
        <ele>1366.2</ele>
        <time>2022-05-14T06:54:56Z</time>
      </trkpt>
      <trkpt lat="42.99113" lon="-0.20289">
        <ele>1366.2</ele>
        <time>2022-05-14T06:54:59Z</time>
      </trkpt>
      <trkpt lat="42.99114" lon="-0.20287">
        <ele>1366.4</ele>
        <time>2022-05-14T06:55:21Z</time>
      </trkpt>
      <trkpt lat="42.99116" lon="-0.20288">
        <ele>1366.4</ele>
        <time>2022-05-14T06:55:31Z</time>
      </trkpt>
      <trkpt lat="42.99118" lon="-0.20292">
        <ele>1366.4</ele>
        <time>2022-05-14T06:55:33Z</time>
      </trkpt>
      <trkpt lat="42.99126" lon="-0.2031">
        <ele>1366.4</ele>
        <time>2022-05-14T06:55:39Z</time>
      </trkpt>
      <trkpt lat="42.99127" lon="-0.2032">
        <ele>1366.6</ele>
        <time>2022-05-14T06:55:43Z</time>
      </trkpt>
      <trkpt lat="42.99126" lon="-0.20325">
        <ele>1367</ele>
        <time>2022-05-14T06:55:45Z</time>
      </trkpt>
      <trkpt lat="42.99123" lon="-0.20336">
        <ele>1367.4</ele>
        <time>2022-05-14T06:55:50Z</time>
      </trkpt>
      <trkpt lat="42.99124" lon="-0.2034">
        <ele>1367.8</ele>
        <time>2022-05-14T06:55:52Z</time>
      </trkpt>
      <trkpt lat="42.99125" lon="-0.20341">
        <ele>1368</ele>
        <time>2022-05-14T06:55:53Z</time>
      </trkpt>
      <trkpt lat="42.99128" lon="-0.20342">
        <ele>1368.6</ele>
        <time>2022-05-14T06:55:55Z</time>
      </trkpt>
      <trkpt lat="42.99132" lon="-0.20343">
        <ele>1369.2</ele>
        <time>2022-05-14T06:55:57Z</time>
      </trkpt>
      <trkpt lat="42.99138" lon="-0.20344">
        <ele>1369.6</ele>
        <time>2022-05-14T06:56:00Z</time>
      </trkpt>
      <trkpt lat="42.99151" lon="-0.20348">
        <ele>1370.6</ele>
        <time>2022-05-14T06:56:06Z</time>
      </trkpt>
      <trkpt lat="42.99159" lon="-0.2035">
        <ele>1371</ele>
        <time>2022-05-14T06:56:10Z</time>
      </trkpt>
      <trkpt lat="42.99162" lon="-0.20353">
        <ele>1371.2</ele>
        <time>2022-05-14T06:56:12Z</time>
      </trkpt>
      <trkpt lat="42.99168" lon="-0.20361">
        <ele>1371.8</ele>
        <time>2022-05-14T06:56:17Z</time>
      </trkpt>
      <trkpt lat="42.99171" lon="-0.20364">
        <ele>1371.8</ele>
        <time>2022-05-14T06:56:19Z</time>
      </trkpt>
      <trkpt lat="42.99178" lon="-0.20372">
        <ele>1372.8</ele>
        <time>2022-05-14T06:56:25Z</time>
      </trkpt>
      <trkpt lat="42.99181" lon="-0.20377">
        <ele>1373.6</ele>
        <time>2022-05-14T06:56:28Z</time>
      </trkpt>
      <trkpt lat="42.99184" lon="-0.20381">
        <ele>1373.8</ele>
        <time>2022-05-14T06:56:30Z</time>
      </trkpt>
      <trkpt lat="42.99188" lon="-0.20385">
        <ele>1374.6</ele>
        <time>2022-05-14T06:56:33Z</time>
      </trkpt>
      <trkpt lat="42.9919" lon="-0.20387">
        <ele>1374.8</ele>
        <time>2022-05-14T06:56:35Z</time>
      </trkpt>
      <trkpt lat="42.99191" lon="-0.20388">
        <ele>1375</ele>
        <time>2022-05-14T06:56:36Z</time>
      </trkpt>
      <trkpt lat="42.99202" lon="-0.20392">
        <ele>1376</ele>
        <time>2022-05-14T06:56:42Z</time>
      </trkpt>
      <trkpt lat="42.99204" lon="-0.20394">
        <ele>1376.4</ele>
        <time>2022-05-14T06:56:43Z</time>
      </trkpt>
      <trkpt lat="42.99213" lon="-0.20396">
        <ele>1377</ele>
        <time>2022-05-14T06:56:49Z</time>
      </trkpt>
      <trkpt lat="42.99215" lon="-0.20397">
        <ele>1377.2</ele>
        <time>2022-05-14T06:56:50Z</time>
      </trkpt>
      <trkpt lat="42.99218" lon="-0.204">
        <ele>1377.6</ele>
        <time>2022-05-14T06:56:53Z</time>
      </trkpt>
      <trkpt lat="42.99219" lon="-0.20402">
        <ele>1377.8</ele>
        <time>2022-05-14T06:56:54Z</time>
      </trkpt>
      <trkpt lat="42.99224" lon="-0.20404">
        <ele>1378.4</ele>
        <time>2022-05-14T06:56:57Z</time>
      </trkpt>
      <trkpt lat="42.99233" lon="-0.20409">
        <ele>1379.2</ele>
        <time>2022-05-14T06:57:02Z</time>
      </trkpt>
      <trkpt lat="42.99236" lon="-0.20412">
        <ele>1379.4</ele>
        <time>2022-05-14T06:57:04Z</time>
      </trkpt>
      <trkpt lat="42.9924" lon="-0.20419">
        <ele>1380.4</ele>
        <time>2022-05-14T06:57:09Z</time>
      </trkpt>
      <trkpt lat="42.99242" lon="-0.20422">
        <ele>1380.6</ele>
        <time>2022-05-14T06:57:11Z</time>
      </trkpt>
      <trkpt lat="42.99243" lon="-0.20423">
        <ele>1380.8</ele>
        <time>2022-05-14T06:57:12Z</time>
      </trkpt>
      <trkpt lat="42.99246" lon="-0.20428">
        <ele>1381.6</ele>
        <time>2022-05-14T06:57:16Z</time>
      </trkpt>
      <trkpt lat="42.99248" lon="-0.20431">
        <ele>1382</ele>
        <time>2022-05-14T06:57:18Z</time>
      </trkpt>
      <trkpt lat="42.99253" lon="-0.20438">
        <ele>1382.6</ele>
        <time>2022-05-14T06:57:23Z</time>
      </trkpt>
      <trkpt lat="42.99254" lon="-0.2044">
        <ele>1382.6</ele>
        <time>2022-05-14T06:57:24Z</time>
      </trkpt>
      <trkpt lat="42.99255" lon="-0.20442">
        <ele>1382.8</ele>
        <time>2022-05-14T06:57:25Z</time>
      </trkpt>
      <trkpt lat="42.99259" lon="-0.20448">
        <ele>1383.6</ele>
        <time>2022-05-14T06:57:29Z</time>
      </trkpt>
      <trkpt lat="42.9926" lon="-0.2045">
        <ele>1383.6</ele>
        <time>2022-05-14T06:57:30Z</time>
      </trkpt>
      <trkpt lat="42.99261" lon="-0.20452">
        <ele>1383.8</ele>
        <time>2022-05-14T06:57:31Z</time>
      </trkpt>
      <trkpt lat="42.99262" lon="-0.20455">
        <ele>1383.8</ele>
        <time>2022-05-14T06:57:33Z</time>
      </trkpt>
      <trkpt lat="42.99263" lon="-0.20457">
        <ele>1384</ele>
        <time>2022-05-14T06:57:34Z</time>
      </trkpt>
      <trkpt lat="42.9927" lon="-0.20458">
        <ele>1384.4</ele>
        <time>2022-05-14T06:57:38Z</time>
      </trkpt>
      <trkpt lat="42.99282" lon="-0.20463">
        <ele>1384.8</ele>
        <time>2022-05-14T06:57:43Z</time>
      </trkpt>
      <trkpt lat="42.99288" lon="-0.20467">
        <ele>1385.4</ele>
        <time>2022-05-14T06:57:48Z</time>
      </trkpt>
      <trkpt lat="42.99291" lon="-0.20467">
        <ele>1385.6</ele>
        <time>2022-05-14T06:57:50Z</time>
      </trkpt>
      <trkpt lat="42.99298" lon="-0.20469">
        <ele>1386.6</ele>
        <time>2022-05-14T06:57:55Z</time>
      </trkpt>
      <trkpt lat="42.993" lon="-0.20469">
        <ele>1386.6</ele>
        <time>2022-05-14T06:57:56Z</time>
      </trkpt>
      <trkpt lat="42.99301" lon="-0.20469">
        <ele>1386.8</ele>
        <time>2022-05-14T06:57:57Z</time>
      </trkpt>
      <trkpt lat="42.99308" lon="-0.20468">
        <ele>1387.8</ele>
        <time>2022-05-14T06:58:02Z</time>
      </trkpt>
      <trkpt lat="42.99313" lon="-0.20468">
        <ele>1388</ele>
        <time>2022-05-14T06:58:05Z</time>
      </trkpt>
      <trkpt lat="42.99318" lon="-0.20468">
        <ele>1388.6</ele>
        <time>2022-05-14T06:58:08Z</time>
      </trkpt>
      <trkpt lat="42.99326" lon="-0.20467">
        <ele>1389.2</ele>
        <time>2022-05-14T06:58:12Z</time>
      </trkpt>
      <trkpt lat="42.99343" lon="-0.20467">
        <ele>1389.4</ele>
        <time>2022-05-14T06:58:18Z</time>
      </trkpt>
      <trkpt lat="42.99356" lon="-0.20476">
        <ele>1389.4</ele>
        <time>2022-05-14T06:58:22Z</time>
      </trkpt>
      <trkpt lat="42.99375" lon="-0.20504">
        <ele>1388.6</ele>
        <time>2022-05-14T06:58:29Z</time>
      </trkpt>
      <trkpt lat="42.99384" lon="-0.20522">
        <ele>1388.4</ele>
        <time>2022-05-14T06:58:33Z</time>
      </trkpt>
      <trkpt lat="42.99387" lon="-0.2053">
        <ele>1388.4</ele>
        <time>2022-05-14T06:58:35Z</time>
      </trkpt>
      <trkpt lat="42.99393" lon="-0.20547">
        <ele>1388.2</ele>
        <time>2022-05-14T06:58:39Z</time>
      </trkpt>
      <trkpt lat="42.99398" lon="-0.2056">
        <ele>1388.4</ele>
        <time>2022-05-14T06:58:43Z</time>
      </trkpt>
      <trkpt lat="42.99408" lon="-0.20572">
        <ele>1388.4</ele>
        <time>2022-05-14T06:58:48Z</time>
      </trkpt>
      <trkpt lat="42.99429" lon="-0.2059">
        <ele>1388.8</ele>
        <time>2022-05-14T06:58:55Z</time>
      </trkpt>
      <trkpt lat="42.99445" lon="-0.20599">
        <ele>1389.2</ele>
        <time>2022-05-14T06:59:01Z</time>
      </trkpt>
      <trkpt lat="42.99448" lon="-0.206">
        <ele>1389.2</ele>
        <time>2022-05-14T06:59:02Z</time>
      </trkpt>
      <trkpt lat="42.99463" lon="-0.20602">
        <ele>1389.6</ele>
        <time>2022-05-14T06:59:07Z</time>
      </trkpt>
      <trkpt lat="42.99466" lon="-0.20603">
        <ele>1389.8</ele>
        <time>2022-05-14T06:59:08Z</time>
      </trkpt>
      <trkpt lat="42.99482" lon="-0.20602">
        <ele>1390.4</ele>
        <time>2022-05-14T06:59:14Z</time>
      </trkpt>
      <trkpt lat="42.99484" lon="-0.20602">
        <ele>1390.6</ele>
        <time>2022-05-14T06:59:15Z</time>
      </trkpt>
      <trkpt lat="42.99492" lon="-0.206">
        <ele>1391.4</ele>
        <time>2022-05-14T06:59:19Z</time>
      </trkpt>
      <trkpt lat="42.99494" lon="-0.20599">
        <ele>1391.6</ele>
        <time>2022-05-14T06:59:20Z</time>
      </trkpt>
      <trkpt lat="42.99509" lon="-0.20592">
        <ele>1392.8</ele>
        <time>2022-05-14T06:59:27Z</time>
      </trkpt>
      <trkpt lat="42.99515" lon="-0.2059">
        <ele>1393.2</ele>
        <time>2022-05-14T06:59:29Z</time>
      </trkpt>
      <trkpt lat="42.99522" lon="-0.20585">
        <ele>1393.6</ele>
        <time>2022-05-14T06:59:32Z</time>
      </trkpt>
      <trkpt lat="42.99527" lon="-0.2058">
        <ele>1393.8</ele>
        <time>2022-05-14T06:59:34Z</time>
      </trkpt>
      <trkpt lat="42.99534" lon="-0.20572">
        <ele>1394.2</ele>
        <time>2022-05-14T06:59:38Z</time>
      </trkpt>
      <trkpt lat="42.99544" lon="-0.20556">
        <ele>1394.4</ele>
        <time>2022-05-14T06:59:43Z</time>
      </trkpt>
      <trkpt lat="42.99546" lon="-0.20553">
        <ele>1394.6</ele>
        <time>2022-05-14T06:59:44Z</time>
      </trkpt>
      <trkpt lat="42.99554" lon="-0.20536">
        <ele>1395</ele>
        <time>2022-05-14T06:59:48Z</time>
      </trkpt>
      <trkpt lat="42.99566" lon="-0.20513">
        <ele>1395.2</ele>
        <time>2022-05-14T06:59:54Z</time>
      </trkpt>
      <trkpt lat="42.99574" lon="-0.20507">
        <ele>1395.2</ele>
        <time>2022-05-14T06:59:56Z</time>
      </trkpt>
      <trkpt lat="42.99585" lon="-0.20497">
        <ele>1395</ele>
        <time>2022-05-14T06:59:58Z</time>
      </trkpt>
      <trkpt lat="42.99603" lon="-0.20481">
        <ele>1394</ele>
        <time>2022-05-14T07:00:01Z</time>
      </trkpt>
      <trkpt lat="42.99614" lon="-0.20472">
        <ele>1393.4</ele>
        <time>2022-05-14T07:00:03Z</time>
      </trkpt>
      <trkpt lat="42.99631" lon="-0.20455">
        <ele>1393</ele>
        <time>2022-05-14T07:00:06Z</time>
      </trkpt>
      <trkpt lat="42.9964" lon="-0.20441">
        <ele>1392.4</ele>
        <time>2022-05-14T07:00:08Z</time>
      </trkpt>
      <trkpt lat="42.99649" lon="-0.20436">
        <ele>1391.8</ele>
        <time>2022-05-14T07:00:10Z</time>
      </trkpt>
      <trkpt lat="42.99653" lon="-0.20437">
        <ele>1391.6</ele>
        <time>2022-05-14T07:00:11Z</time>
      </trkpt>
      <trkpt lat="42.99659" lon="-0.20439">
        <ele>1391.2</ele>
        <time>2022-05-14T07:00:12Z</time>
      </trkpt>
      <trkpt lat="42.9967" lon="-0.20447">
        <ele>1391</ele>
        <time>2022-05-14T07:00:15Z</time>
      </trkpt>
      <trkpt lat="42.99681" lon="-0.20456">
        <ele>1390.4</ele>
        <time>2022-05-14T07:00:18Z</time>
      </trkpt>
      <trkpt lat="42.99692" lon="-0.2046">
        <ele>1390.2</ele>
        <time>2022-05-14T07:00:20Z</time>
      </trkpt>
      <trkpt lat="42.99711" lon="-0.20468">
        <ele>1390</ele>
        <time>2022-05-14T07:00:23Z</time>
      </trkpt>
      <trkpt lat="42.99718" lon="-0.20473">
        <ele>1389.8</ele>
        <time>2022-05-14T07:00:24Z</time>
      </trkpt>
      <trkpt lat="42.99737" lon="-0.20483">
        <ele>1389</ele>
        <time>2022-05-14T07:00:28Z</time>
      </trkpt>
      <trkpt lat="42.99743" lon="-0.20485">
        <ele>1388.8</ele>
        <time>2022-05-14T07:00:29Z</time>
      </trkpt>
      <trkpt lat="42.99756" lon="-0.20491">
        <ele>1388.6</ele>
        <time>2022-05-14T07:00:32Z</time>
      </trkpt>
      <trkpt lat="42.99765" lon="-0.20492">
        <ele>1388.6</ele>
        <time>2022-05-14T07:00:34Z</time>
      </trkpt>
      <trkpt lat="42.99775" lon="-0.20493">
        <ele>1388.6</ele>
        <time>2022-05-14T07:00:36Z</time>
      </trkpt>
      <trkpt lat="42.99788" lon="-0.20499">
        <ele>1388.6</ele>
        <time>2022-05-14T07:00:39Z</time>
      </trkpt>
      <trkpt lat="42.99808" lon="-0.20507">
        <ele>1389</ele>
        <time>2022-05-14T07:00:44Z</time>
      </trkpt>
      <trkpt lat="42.99817" lon="-0.2051">
        <ele>1389.2</ele>
        <time>2022-05-14T07:00:46Z</time>
      </trkpt>
      <trkpt lat="42.99835" lon="-0.20514">
        <ele>1389.6</ele>
        <time>2022-05-14T07:00:50Z</time>
      </trkpt>
      <trkpt lat="42.99855" lon="-0.20511">
        <ele>1389.8</ele>
        <time>2022-05-14T07:00:55Z</time>
      </trkpt>
      <trkpt lat="42.99863" lon="-0.20508">
        <ele>1390.2</ele>
        <time>2022-05-14T07:00:57Z</time>
      </trkpt>
      <trkpt lat="42.99874" lon="-0.20499">
        <ele>1390.4</ele>
        <time>2022-05-14T07:01:01Z</time>
      </trkpt>
      <trkpt lat="42.99883" lon="-0.20492">
        <ele>1390.8</ele>
        <time>2022-05-14T07:01:04Z</time>
      </trkpt>
      <trkpt lat="42.99887" lon="-0.20493">
        <ele>1390.8</ele>
        <time>2022-05-14T07:01:05Z</time>
      </trkpt>
      <trkpt lat="42.99895" lon="-0.20502">
        <ele>1391</ele>
        <time>2022-05-14T07:01:07Z</time>
      </trkpt>
      <trkpt lat="42.99897" lon="-0.20508">
        <ele>1391.2</ele>
        <time>2022-05-14T07:01:08Z</time>
      </trkpt>
      <trkpt lat="42.99895" lon="-0.20528">
        <ele>1391.4</ele>
        <time>2022-05-14T07:01:12Z</time>
      </trkpt>
      <trkpt lat="42.99891" lon="-0.20544">
        <ele>1392</ele>
        <time>2022-05-14T07:01:16Z</time>
      </trkpt>
      <trkpt lat="42.99889" lon="-0.20553">
        <ele>1392.4</ele>
        <time>2022-05-14T07:01:18Z</time>
      </trkpt>
      <trkpt lat="42.99887" lon="-0.20573">
        <ele>1393</ele>
        <time>2022-05-14T07:01:23Z</time>
      </trkpt>
      <trkpt lat="42.99885" lon="-0.20582">
        <ele>1393.4</ele>
        <time>2022-05-14T07:01:25Z</time>
      </trkpt>
      <trkpt lat="42.9988" lon="-0.20604">
        <ele>1393.6</ele>
        <time>2022-05-14T07:01:29Z</time>
      </trkpt>
      <trkpt lat="42.99874" lon="-0.20637">
        <ele>1393.6</ele>
        <time>2022-05-14T07:01:34Z</time>
      </trkpt>
      <trkpt lat="42.99872" lon="-0.20644">
        <ele>1393.4</ele>
        <time>2022-05-14T07:01:35Z</time>
      </trkpt>
      <trkpt lat="42.99866" lon="-0.20682">
        <ele>1393</ele>
        <time>2022-05-14T07:01:39Z</time>
      </trkpt>
      <trkpt lat="42.99865" lon="-0.20692">
        <ele>1392.6</ele>
        <time>2022-05-14T07:01:40Z</time>
      </trkpt>
      <trkpt lat="42.99865" lon="-0.20703">
        <ele>1392.4</ele>
        <time>2022-05-14T07:01:41Z</time>
      </trkpt>
      <trkpt lat="42.99868" lon="-0.20721">
        <ele>1391.8</ele>
        <time>2022-05-14T07:01:43Z</time>
      </trkpt>
      <trkpt lat="42.99869" lon="-0.20732">
        <ele>1391.4</ele>
        <time>2022-05-14T07:01:44Z</time>
      </trkpt>
      <trkpt lat="42.99868" lon="-0.20754">
        <ele>1390.8</ele>
        <time>2022-05-14T07:01:46Z</time>
      </trkpt>
      <trkpt lat="42.99866" lon="-0.20772">
        <ele>1389.8</ele>
        <time>2022-05-14T07:01:48Z</time>
      </trkpt>
      <trkpt lat="42.99866" lon="-0.20781">
        <ele>1389.4</ele>
        <time>2022-05-14T07:01:49Z</time>
      </trkpt>
      <trkpt lat="42.99867" lon="-0.20803">
        <ele>1389.2</ele>
        <time>2022-05-14T07:01:52Z</time>
      </trkpt>
      <trkpt lat="42.99869" lon="-0.20836">
        <ele>1389</ele>
        <time>2022-05-14T07:01:57Z</time>
      </trkpt>
      <trkpt lat="42.99872" lon="-0.20868">
        <ele>1389.4</ele>
        <time>2022-05-14T07:02:03Z</time>
      </trkpt>
      <trkpt lat="42.99874" lon="-0.20887">
        <ele>1390.4</ele>
        <time>2022-05-14T07:02:08Z</time>
      </trkpt>
      <trkpt lat="42.99876" lon="-0.20895">
        <ele>1391</ele>
        <time>2022-05-14T07:02:11Z</time>
      </trkpt>
      <trkpt lat="42.99877" lon="-0.20899">
        <ele>1391.4</ele>
        <time>2022-05-14T07:02:13Z</time>
      </trkpt>
      <trkpt lat="42.99879" lon="-0.20908">
        <ele>1392</ele>
        <time>2022-05-14T07:02:17Z</time>
      </trkpt>
      <trkpt lat="42.99879" lon="-0.2091">
        <ele>1392.2</ele>
        <time>2022-05-14T07:02:18Z</time>
      </trkpt>
      <trkpt lat="42.9988" lon="-0.20912">
        <ele>1392.6</ele>
        <time>2022-05-14T07:02:19Z</time>
      </trkpt>
      <trkpt lat="42.99883" lon="-0.20919">
        <ele>1393</ele>
        <time>2022-05-14T07:02:23Z</time>
      </trkpt>
      <trkpt lat="42.99883" lon="-0.20921">
        <ele>1393.4</ele>
        <time>2022-05-14T07:02:24Z</time>
      </trkpt>
      <trkpt lat="42.99885" lon="-0.20925">
        <ele>1393.6</ele>
        <time>2022-05-14T07:02:26Z</time>
      </trkpt>
      <trkpt lat="42.99889" lon="-0.20934">
        <ele>1394.6</ele>
        <time>2022-05-14T07:02:31Z</time>
      </trkpt>
      <trkpt lat="42.9989" lon="-0.20935">
        <ele>1394.8</ele>
        <time>2022-05-14T07:02:32Z</time>
      </trkpt>
      <trkpt lat="42.99894" lon="-0.20943">
        <ele>1395.6</ele>
        <time>2022-05-14T07:02:36Z</time>
      </trkpt>
      <trkpt lat="42.99894" lon="-0.20946">
        <ele>1396</ele>
        <time>2022-05-14T07:02:38Z</time>
      </trkpt>
      <trkpt lat="42.99892" lon="-0.2096">
        <ele>1396.8</ele>
        <time>2022-05-14T07:02:44Z</time>
      </trkpt>
      <trkpt lat="42.99891" lon="-0.20963">
        <ele>1397</ele>
        <time>2022-05-14T07:02:45Z</time>
      </trkpt>
      <trkpt lat="42.99884" lon="-0.20975">
        <ele>1398</ele>
        <time>2022-05-14T07:02:51Z</time>
      </trkpt>
      <trkpt lat="42.9988" lon="-0.2098">
        <ele>1398.2</ele>
        <time>2022-05-14T07:02:54Z</time>
      </trkpt>
      <trkpt lat="42.99874" lon="-0.20988">
        <ele>1398.4</ele>
        <time>2022-05-14T07:02:57Z</time>
      </trkpt>
      <trkpt lat="42.99863" lon="-0.21006">
        <ele>1398.8</ele>
        <time>2022-05-14T07:03:03Z</time>
      </trkpt>
      <trkpt lat="42.99847" lon="-0.21022">
        <ele>1398.8</ele>
        <time>2022-05-14T07:03:08Z</time>
      </trkpt>
      <trkpt lat="42.9982" lon="-0.2104">
        <ele>1398.6</ele>
        <time>2022-05-14T07:03:16Z</time>
      </trkpt>
      <trkpt lat="42.99802" lon="-0.21049">
        <ele>1398.4</ele>
        <time>2022-05-14T07:03:21Z</time>
      </trkpt>
      <trkpt lat="42.99793" lon="-0.21052">
        <ele>1398.4</ele>
        <time>2022-05-14T07:03:24Z</time>
      </trkpt>
      <trkpt lat="42.99791" lon="-0.21052">
        <ele>1398.4</ele>
        <time>2022-05-14T07:03:25Z</time>
      </trkpt>
      <trkpt lat="42.99782" lon="-0.21055">
        <ele>1398.6</ele>
        <time>2022-05-14T07:03:29Z</time>
      </trkpt>
      <trkpt lat="42.99779" lon="-0.21055">
        <ele>1399</ele>
        <time>2022-05-14T07:03:31Z</time>
      </trkpt>
      <trkpt lat="42.99769" lon="-0.21059">
        <ele>1399.8</ele>
        <time>2022-05-14T07:03:35Z</time>
      </trkpt>
      <trkpt lat="42.99765" lon="-0.21061">
        <ele>1400.2</ele>
        <time>2022-05-14T07:03:37Z</time>
      </trkpt>
      <trkpt lat="42.99754" lon="-0.21065">
        <ele>1401</ele>
        <time>2022-05-14T07:03:43Z</time>
      </trkpt>
      <trkpt lat="42.9975" lon="-0.21067">
        <ele>1401.4</ele>
        <time>2022-05-14T07:03:45Z</time>
      </trkpt>
      <trkpt lat="42.99741" lon="-0.21072">
        <ele>1402.2</ele>
        <time>2022-05-14T07:03:50Z</time>
      </trkpt>
      <trkpt lat="42.99738" lon="-0.21075">
        <ele>1402.4</ele>
        <time>2022-05-14T07:03:52Z</time>
      </trkpt>
      <trkpt lat="42.99728" lon="-0.21081">
        <ele>1402.8</ele>
        <time>2022-05-14T07:03:57Z</time>
      </trkpt>
      <trkpt lat="42.99727" lon="-0.21084">
        <ele>1403</ele>
        <time>2022-05-14T07:03:58Z</time>
      </trkpt>
      <trkpt lat="42.99722" lon="-0.2109">
        <ele>1403.2</ele>
        <time>2022-05-14T07:04:01Z</time>
      </trkpt>
      <trkpt lat="42.9972" lon="-0.21091">
        <ele>1403.4</ele>
        <time>2022-05-14T07:04:02Z</time>
      </trkpt>
      <trkpt lat="42.99719" lon="-0.21092">
        <ele>1403.6</ele>
        <time>2022-05-14T07:04:03Z</time>
      </trkpt>
      <trkpt lat="42.99715" lon="-0.21096">
        <ele>1404</ele>
        <time>2022-05-14T07:04:05Z</time>
      </trkpt>
      <trkpt lat="42.9971" lon="-0.21101">
        <ele>1404.2</ele>
        <time>2022-05-14T07:04:07Z</time>
      </trkpt>
      <trkpt lat="42.99707" lon="-0.21105">
        <ele>1404.6</ele>
        <time>2022-05-14T07:04:09Z</time>
      </trkpt>
      <trkpt lat="42.99705" lon="-0.21108">
        <ele>1404.6</ele>
        <time>2022-05-14T07:04:10Z</time>
      </trkpt>
      <trkpt lat="42.99693" lon="-0.21122">
        <ele>1405.2</ele>
        <time>2022-05-14T07:04:16Z</time>
      </trkpt>
      <trkpt lat="42.99681" lon="-0.21141">
        <ele>1405.4</ele>
        <time>2022-05-14T07:04:21Z</time>
      </trkpt>
      <trkpt lat="42.99667" lon="-0.21161">
        <ele>1405.2</ele>
        <time>2022-05-14T07:04:26Z</time>
      </trkpt>
      <trkpt lat="42.99652" lon="-0.21173">
        <ele>1405.4</ele>
        <time>2022-05-14T07:04:31Z</time>
      </trkpt>
      <trkpt lat="42.99633" lon="-0.2118">
        <ele>1406.2</ele>
        <time>2022-05-14T07:04:38Z</time>
      </trkpt>
      <trkpt lat="42.99631" lon="-0.21179">
        <ele>1406.4</ele>
        <time>2022-05-14T07:04:39Z</time>
      </trkpt>
      <trkpt lat="42.99618" lon="-0.2118">
        <ele>1407.2</ele>
        <time>2022-05-14T07:04:44Z</time>
      </trkpt>
      <trkpt lat="42.99616" lon="-0.2118">
        <ele>1407.4</ele>
        <time>2022-05-14T07:04:45Z</time>
      </trkpt>
      <trkpt lat="42.99614" lon="-0.2118">
        <ele>1407.4</ele>
        <time>2022-05-14T07:04:46Z</time>
      </trkpt>
      <trkpt lat="42.99603" lon="-0.21179">
        <ele>1408.2</ele>
        <time>2022-05-14T07:04:51Z</time>
      </trkpt>
      <trkpt lat="42.99601" lon="-0.21179">
        <ele>1408.6</ele>
        <time>2022-05-14T07:04:52Z</time>
      </trkpt>
      <trkpt lat="42.99588" lon="-0.21175">
        <ele>1409.8</ele>
        <time>2022-05-14T07:04:58Z</time>
      </trkpt>
      <trkpt lat="42.99576" lon="-0.21172">
        <ele>1410.6</ele>
        <time>2022-05-14T07:05:04Z</time>
      </trkpt>
      <trkpt lat="42.99574" lon="-0.21172">
        <ele>1410.8</ele>
        <time>2022-05-14T07:05:05Z</time>
      </trkpt>
      <trkpt lat="42.99562" lon="-0.21171">
        <ele>1411.6</ele>
        <time>2022-05-14T07:05:10Z</time>
      </trkpt>
      <trkpt lat="42.99558" lon="-0.2117">
        <ele>1411.8</ele>
        <time>2022-05-14T07:05:12Z</time>
      </trkpt>
      <trkpt lat="42.99551" lon="-0.21168">
        <ele>1412</ele>
        <time>2022-05-14T07:05:15Z</time>
      </trkpt>
      <trkpt lat="42.99543" lon="-0.21165">
        <ele>1412.8</ele>
        <time>2022-05-14T07:05:19Z</time>
      </trkpt>
      <trkpt lat="42.99535" lon="-0.21164">
        <ele>1413.2</ele>
        <time>2022-05-14T07:05:23Z</time>
      </trkpt>
      <trkpt lat="42.99531" lon="-0.21162">
        <ele>1413.2</ele>
        <time>2022-05-14T07:05:25Z</time>
      </trkpt>
      <trkpt lat="42.99523" lon="-0.2116">
        <ele>1413.8</ele>
        <time>2022-05-14T07:05:29Z</time>
      </trkpt>
      <trkpt lat="42.99521" lon="-0.21159">
        <ele>1414</ele>
        <time>2022-05-14T07:05:30Z</time>
      </trkpt>
      <trkpt lat="42.9951" lon="-0.21153">
        <ele>1414.8</ele>
        <time>2022-05-14T07:05:36Z</time>
      </trkpt>
      <trkpt lat="42.99508" lon="-0.21153">
        <ele>1414.8</ele>
        <time>2022-05-14T07:05:37Z</time>
      </trkpt>
      <trkpt lat="42.99499" lon="-0.21149">
        <ele>1415.8</ele>
        <time>2022-05-14T07:05:42Z</time>
      </trkpt>
      <trkpt lat="42.99496" lon="-0.21147">
        <ele>1416.2</ele>
        <time>2022-05-14T07:05:44Z</time>
      </trkpt>
      <trkpt lat="42.99489" lon="-0.21144">
        <ele>1417</ele>
        <time>2022-05-14T07:05:49Z</time>
      </trkpt>
      <trkpt lat="42.99486" lon="-0.21141">
        <ele>1417.6</ele>
        <time>2022-05-14T07:05:51Z</time>
      </trkpt>
      <trkpt lat="42.99485" lon="-0.21138">
        <ele>1418</ele>
        <time>2022-05-14T07:05:53Z</time>
      </trkpt>
      <trkpt lat="42.99484" lon="-0.21136">
        <ele>1418.2</ele>
        <time>2022-05-14T07:05:54Z</time>
      </trkpt>
      <trkpt lat="42.99481" lon="-0.21135">
        <ele>1418.8</ele>
        <time>2022-05-14T07:05:56Z</time>
      </trkpt>
      <trkpt lat="42.99477" lon="-0.21133">
        <ele>1419.2</ele>
        <time>2022-05-14T07:05:58Z</time>
      </trkpt>
      <trkpt lat="42.99467" lon="-0.21128">
        <ele>1420</ele>
        <time>2022-05-14T07:06:05Z</time>
      </trkpt>
      <trkpt lat="42.99457" lon="-0.21126">
        <ele>1421</ele>
        <time>2022-05-14T07:06:11Z</time>
      </trkpt>
      <trkpt lat="42.99455" lon="-0.21126">
        <ele>1421.2</ele>
        <time>2022-05-14T07:06:12Z</time>
      </trkpt>
      <trkpt lat="42.99453" lon="-0.21127">
        <ele>1421.4</ele>
        <time>2022-05-14T07:06:13Z</time>
      </trkpt>
      <trkpt lat="42.99438" lon="-0.2113">
        <ele>1421.8</ele>
        <time>2022-05-14T07:06:21Z</time>
      </trkpt>
      <trkpt lat="42.99434" lon="-0.21131">
        <ele>1422.2</ele>
        <time>2022-05-14T07:06:24Z</time>
      </trkpt>
      <trkpt lat="42.99423" lon="-0.21131">
        <ele>1422.4</ele>
        <time>2022-05-14T07:06:29Z</time>
      </trkpt>
      <trkpt lat="42.99409" lon="-0.21133">
        <ele>1422</ele>
        <time>2022-05-14T07:06:33Z</time>
      </trkpt>
      <trkpt lat="42.99402" lon="-0.21133">
        <ele>1422</ele>
        <time>2022-05-14T07:06:34Z</time>
      </trkpt>
      <trkpt lat="42.99371" lon="-0.21132">
        <ele>1421</ele>
        <time>2022-05-14T07:06:39Z</time>
      </trkpt>
      <trkpt lat="42.99325" lon="-0.21128">
        <ele>1419.6</ele>
        <time>2022-05-14T07:06:45Z</time>
      </trkpt>
      <trkpt lat="42.9931" lon="-0.21125">
        <ele>1418.6</ele>
        <time>2022-05-14T07:06:47Z</time>
      </trkpt>
      <trkpt lat="42.99294" lon="-0.21126">
        <ele>1417.4</ele>
        <time>2022-05-14T07:06:49Z</time>
      </trkpt>
      <trkpt lat="42.99284" lon="-0.21126">
        <ele>1416.8</ele>
        <time>2022-05-14T07:06:50Z</time>
      </trkpt>
      <trkpt lat="42.99253" lon="-0.21127">
        <ele>1415.8</ele>
        <time>2022-05-14T07:06:54Z</time>
      </trkpt>
      <trkpt lat="42.99242" lon="-0.21126">
        <ele>1415</ele>
        <time>2022-05-14T07:06:56Z</time>
      </trkpt>
      <trkpt lat="42.99239" lon="-0.21129">
        <ele>1414.8</ele>
        <time>2022-05-14T07:06:57Z</time>
      </trkpt>
      <trkpt lat="42.99235" lon="-0.21132">
        <ele>1414.6</ele>
        <time>2022-05-14T07:06:58Z</time>
      </trkpt>
      <trkpt lat="42.99223" lon="-0.21144">
        <ele>1414.4</ele>
        <time>2022-05-14T07:07:02Z</time>
      </trkpt>
      <trkpt lat="42.9922" lon="-0.21149">
        <ele>1414.4</ele>
        <time>2022-05-14T07:07:04Z</time>
      </trkpt>
      <trkpt lat="42.99217" lon="-0.21158">
        <ele>1414.4</ele>
        <time>2022-05-14T07:07:07Z</time>
      </trkpt>
      <trkpt lat="42.99216" lon="-0.2116">
        <ele>1414.4</ele>
        <time>2022-05-14T07:07:08Z</time>
      </trkpt>
      <trkpt lat="42.99211" lon="-0.21171">
        <ele>1414.8</ele>
        <time>2022-05-14T07:07:12Z</time>
      </trkpt>
      <trkpt lat="42.99209" lon="-0.21181">
        <ele>1414.8</ele>
        <time>2022-05-14T07:07:14Z</time>
      </trkpt>
      <trkpt lat="42.99203" lon="-0.21189">
        <ele>1415.4</ele>
        <time>2022-05-14T07:07:18Z</time>
      </trkpt>
      <trkpt lat="42.99194" lon="-0.21198">
        <ele>1416.4</ele>
        <time>2022-05-14T07:07:25Z</time>
      </trkpt>
      <trkpt lat="42.99193" lon="-0.21199">
        <ele>1416.6</ele>
        <time>2022-05-14T07:07:26Z</time>
      </trkpt>
      <trkpt lat="42.99187" lon="-0.21205">
        <ele>1417</ele>
        <time>2022-05-14T07:07:29Z</time>
      </trkpt>
      <trkpt lat="42.99185" lon="-0.21207">
        <ele>1417.2</ele>
        <time>2022-05-14T07:07:31Z</time>
      </trkpt>
      <trkpt lat="42.99183" lon="-0.21209">
        <ele>1417.2</ele>
        <time>2022-05-14T07:07:32Z</time>
      </trkpt>
      <trkpt lat="42.99178" lon="-0.21216">
        <ele>1417.8</ele>
        <time>2022-05-14T07:07:36Z</time>
      </trkpt>
      <trkpt lat="42.99168" lon="-0.21233">
        <ele>1418.8</ele>
        <time>2022-05-14T07:07:43Z</time>
      </trkpt>
      <trkpt lat="42.99165" lon="-0.21237">
        <ele>1418.8</ele>
        <time>2022-05-14T07:07:45Z</time>
      </trkpt>
      <trkpt lat="42.99159" lon="-0.2125">
        <ele>1419.2</ele>
        <time>2022-05-14T07:07:50Z</time>
      </trkpt>
      <trkpt lat="42.99151" lon="-0.21265">
        <ele>1420</ele>
        <time>2022-05-14T07:07:57Z</time>
      </trkpt>
      <trkpt lat="42.99134" lon="-0.21292">
        <ele>1420.8</ele>
        <time>2022-05-14T07:08:06Z</time>
      </trkpt>
      <trkpt lat="42.99129" lon="-0.21314">
        <ele>1420.8</ele>
        <time>2022-05-14T07:08:11Z</time>
      </trkpt>
      <trkpt lat="42.99124" lon="-0.21339">
        <ele>1420.8</ele>
        <time>2022-05-14T07:08:15Z</time>
      </trkpt>
      <trkpt lat="42.99122" lon="-0.21347">
        <ele>1420.6</ele>
        <time>2022-05-14T07:08:16Z</time>
      </trkpt>
      <trkpt lat="42.99114" lon="-0.21401">
        <ele>1419.6</ele>
        <time>2022-05-14T07:08:22Z</time>
      </trkpt>
      <trkpt lat="42.99105" lon="-0.21433">
        <ele>1418.2</ele>
        <time>2022-05-14T07:08:25Z</time>
      </trkpt>
      <trkpt lat="42.99102" lon="-0.21443">
        <ele>1418</ele>
        <time>2022-05-14T07:08:26Z</time>
      </trkpt>
      <trkpt lat="42.99099" lon="-0.21455">
        <ele>1417.6</ele>
        <time>2022-05-14T07:08:27Z</time>
      </trkpt>
      <trkpt lat="42.99093" lon="-0.21474">
        <ele>1416.8</ele>
        <time>2022-05-14T07:08:29Z</time>
      </trkpt>
      <trkpt lat="42.99089" lon="-0.21495">
        <ele>1415.4</ele>
        <time>2022-05-14T07:08:31Z</time>
      </trkpt>
      <trkpt lat="42.99086" lon="-0.21515">
        <ele>1414.4</ele>
        <time>2022-05-14T07:08:33Z</time>
      </trkpt>
      <trkpt lat="42.99085" lon="-0.21537">
        <ele>1413.2</ele>
        <time>2022-05-14T07:08:35Z</time>
      </trkpt>
      <trkpt lat="42.99084" lon="-0.21549">
        <ele>1412.6</ele>
        <time>2022-05-14T07:08:36Z</time>
      </trkpt>
      <trkpt lat="42.99082" lon="-0.21573">
        <ele>1411.4</ele>
        <time>2022-05-14T07:08:38Z</time>
      </trkpt>
      <trkpt lat="42.99082" lon="-0.21597">
        <ele>1410.2</ele>
        <time>2022-05-14T07:08:40Z</time>
      </trkpt>
      <trkpt lat="42.99082" lon="-0.21622">
        <ele>1409.4</ele>
        <time>2022-05-14T07:08:42Z</time>
      </trkpt>
      <trkpt lat="42.99082" lon="-0.21635">
        <ele>1409</ele>
        <time>2022-05-14T07:08:43Z</time>
      </trkpt>
      <trkpt lat="42.99082" lon="-0.21669">
        <ele>1407.4</ele>
        <time>2022-05-14T07:08:46Z</time>
      </trkpt>
      <trkpt lat="42.99081" lon="-0.21678">
        <ele>1407</ele>
        <time>2022-05-14T07:08:47Z</time>
      </trkpt>
      <trkpt lat="42.99083" lon="-0.21694">
        <ele>1405.6</ele>
        <time>2022-05-14T07:08:50Z</time>
      </trkpt>
      <trkpt lat="42.99085" lon="-0.21694">
        <ele>1403.8</ele>
        <time>2022-05-14T07:08:51Z</time>
      </trkpt>
      <trkpt lat="42.99088" lon="-0.21691">
        <ele>1403.2</ele>
        <time>2022-05-14T07:08:52Z</time>
      </trkpt>
      <trkpt lat="42.9909" lon="-0.21686">
        <ele>1402</ele>
        <time>2022-05-14T07:08:53Z</time>
      </trkpt>
      <trkpt lat="42.99091" lon="-0.2168">
        <ele>1401.6</ele>
        <time>2022-05-14T07:08:54Z</time>
      </trkpt>
      <trkpt lat="42.99092" lon="-0.21673">
        <ele>1400.8</ele>
        <time>2022-05-14T07:08:55Z</time>
      </trkpt>
      <trkpt lat="42.99094" lon="-0.21657">
        <ele>1399.6</ele>
        <time>2022-05-14T07:08:57Z</time>
      </trkpt>
      <trkpt lat="42.99098" lon="-0.21629">
        <ele>1398.6</ele>
        <time>2022-05-14T07:09:00Z</time>
      </trkpt>
      <trkpt lat="42.99099" lon="-0.2162">
        <ele>1398</ele>
        <time>2022-05-14T07:09:01Z</time>
      </trkpt>
      <trkpt lat="42.991" lon="-0.21605">
        <ele>1397.2</ele>
        <time>2022-05-14T07:09:03Z</time>
      </trkpt>
      <trkpt lat="42.99103" lon="-0.21596">
        <ele>1396.2</ele>
        <time>2022-05-14T07:09:05Z</time>
      </trkpt>
      <trkpt lat="42.99105" lon="-0.21595">
        <ele>1396</ele>
        <time>2022-05-14T07:09:06Z</time>
      </trkpt>
      <trkpt lat="42.99108" lon="-0.21597">
        <ele>1394.8</ele>
        <time>2022-05-14T07:09:07Z</time>
      </trkpt>
      <trkpt lat="42.99109" lon="-0.21607">
        <ele>1393.6</ele>
        <time>2022-05-14T07:09:09Z</time>
      </trkpt>
      <trkpt lat="42.99108" lon="-0.21613">
        <ele>1393.2</ele>
        <time>2022-05-14T07:09:10Z</time>
      </trkpt>
      <trkpt lat="42.99108" lon="-0.21637">
        <ele>1392.6</ele>
        <time>2022-05-14T07:09:13Z</time>
      </trkpt>
      <trkpt lat="42.99108" lon="-0.21646">
        <ele>1392</ele>
        <time>2022-05-14T07:09:14Z</time>
      </trkpt>
      <trkpt lat="42.99107" lon="-0.21665">
        <ele>1391.4</ele>
        <time>2022-05-14T07:09:16Z</time>
      </trkpt>
      <trkpt lat="42.99106" lon="-0.21693">
        <ele>1390.4</ele>
        <time>2022-05-14T07:09:19Z</time>
      </trkpt>
      <trkpt lat="42.99104" lon="-0.21716">
        <ele>1389.2</ele>
        <time>2022-05-14T07:09:22Z</time>
      </trkpt>
      <trkpt lat="42.99103" lon="-0.21724">
        <ele>1389</ele>
        <time>2022-05-14T07:09:23Z</time>
      </trkpt>
      <trkpt lat="42.99102" lon="-0.21731">
        <ele>1388.6</ele>
        <time>2022-05-14T07:09:24Z</time>
      </trkpt>
      <trkpt lat="42.991" lon="-0.21737">
        <ele>1388.6</ele>
        <time>2022-05-14T07:09:25Z</time>
      </trkpt>
      <trkpt lat="42.99098" lon="-0.2175">
        <ele>1388.2</ele>
        <time>2022-05-14T07:09:27Z</time>
      </trkpt>
      <trkpt lat="42.99098" lon="-0.21756">
        <ele>1388.2</ele>
        <time>2022-05-14T07:09:28Z</time>
      </trkpt>
      <trkpt lat="42.99101" lon="-0.21761">
        <ele>1387.8</ele>
        <time>2022-05-14T07:09:29Z</time>
      </trkpt>
      <trkpt lat="42.99108" lon="-0.21764">
        <ele>1387.4</ele>
        <time>2022-05-14T07:09:31Z</time>
      </trkpt>
      <trkpt lat="42.99111" lon="-0.21763">
        <ele>1387.4</ele>
        <time>2022-05-14T07:09:32Z</time>
      </trkpt>
      <trkpt lat="42.99116" lon="-0.21758">
        <ele>1387.2</ele>
        <time>2022-05-14T07:09:34Z</time>
      </trkpt>
      <trkpt lat="42.9913" lon="-0.21744">
        <ele>1387.2</ele>
        <time>2022-05-14T07:09:40Z</time>
      </trkpt>
      <trkpt lat="42.99149" lon="-0.21733">
        <ele>1387.6</ele>
        <time>2022-05-14T07:09:48Z</time>
      </trkpt>
      <trkpt lat="42.99163" lon="-0.21728">
        <ele>1388.2</ele>
        <time>2022-05-14T07:09:55Z</time>
      </trkpt>
      <trkpt lat="42.99172" lon="-0.21727">
        <ele>1389</ele>
        <time>2022-05-14T07:10:00Z</time>
      </trkpt>
      <trkpt lat="42.99177" lon="-0.21726">
        <ele>1389.6</ele>
        <time>2022-05-14T07:10:03Z</time>
      </trkpt>
      <trkpt lat="42.99182" lon="-0.21727">
        <ele>1390</ele>
        <time>2022-05-14T07:10:06Z</time>
      </trkpt>
      <trkpt lat="42.99187" lon="-0.21729">
        <ele>1390.6</ele>
        <time>2022-05-14T07:10:09Z</time>
      </trkpt>
      <trkpt lat="42.99192" lon="-0.21731">
        <ele>1391.2</ele>
        <time>2022-05-14T07:10:12Z</time>
      </trkpt>
      <trkpt lat="42.99199" lon="-0.21733">
        <ele>1392</ele>
        <time>2022-05-14T07:10:16Z</time>
      </trkpt>
      <trkpt lat="42.99201" lon="-0.21734">
        <ele>1392.4</ele>
        <time>2022-05-14T07:10:17Z</time>
      </trkpt>
      <trkpt lat="42.99208" lon="-0.21743">
        <ele>1393.4</ele>
        <time>2022-05-14T07:10:23Z</time>
      </trkpt>
      <trkpt lat="42.9921" lon="-0.21746">
        <ele>1393.8</ele>
        <time>2022-05-14T07:10:25Z</time>
      </trkpt>
      <trkpt lat="42.99213" lon="-0.21752">
        <ele>1394.4</ele>
        <time>2022-05-14T07:10:29Z</time>
      </trkpt>
      <trkpt lat="42.99219" lon="-0.21761">
        <ele>1395.4</ele>
        <time>2022-05-14T07:10:33Z</time>
      </trkpt>
      <trkpt lat="42.99224" lon="-0.21763">
        <ele>1395.4</ele>
        <time>2022-05-14T07:10:35Z</time>
      </trkpt>
      <trkpt lat="42.99231" lon="-0.21765">
        <ele>1395.4</ele>
        <time>2022-05-14T07:10:38Z</time>
      </trkpt>
      <trkpt lat="42.99249" lon="-0.21764">
        <ele>1395.6</ele>
        <time>2022-05-14T07:10:46Z</time>
      </trkpt>
      <trkpt lat="42.99259" lon="-0.21764">
        <ele>1395.6</ele>
        <time>2022-05-14T07:10:52Z</time>
      </trkpt>
      <trkpt lat="42.99272" lon="-0.21763">
        <ele>1396.2</ele>
        <time>2022-05-14T07:10:59Z</time>
      </trkpt>
      <trkpt lat="42.99273" lon="-0.21763">
        <ele>1396.6</ele>
        <time>2022-05-14T07:11:00Z</time>
      </trkpt>
      <trkpt lat="42.99284" lon="-0.21765">
        <ele>1397</ele>
        <time>2022-05-14T07:11:07Z</time>
      </trkpt>
      <trkpt lat="42.99287" lon="-0.21766">
        <ele>1397.2</ele>
        <time>2022-05-14T07:11:09Z</time>
      </trkpt>
      <trkpt lat="42.99297" lon="-0.21771">
        <ele>1398.2</ele>
        <time>2022-05-14T07:11:16Z</time>
      </trkpt>
      <trkpt lat="42.99299" lon="-0.21772">
        <ele>1398.4</ele>
        <time>2022-05-14T07:11:17Z</time>
      </trkpt>
      <trkpt lat="42.99309" lon="-0.21781">
        <ele>1399.2</ele>
        <time>2022-05-14T07:11:24Z</time>
      </trkpt>
      <trkpt lat="42.9931" lon="-0.21782">
        <ele>1399.4</ele>
        <time>2022-05-14T07:11:25Z</time>
      </trkpt>
      <trkpt lat="42.99317" lon="-0.21787">
        <ele>1400</ele>
        <time>2022-05-14T07:11:30Z</time>
      </trkpt>
      <trkpt lat="42.99321" lon="-0.2179">
        <ele>1400.6</ele>
        <time>2022-05-14T07:11:33Z</time>
      </trkpt>
      <trkpt lat="42.9933" lon="-0.21797">
        <ele>1401.2</ele>
        <time>2022-05-14T07:11:40Z</time>
      </trkpt>
      <trkpt lat="42.99332" lon="-0.21798">
        <ele>1401.4</ele>
        <time>2022-05-14T07:11:41Z</time>
      </trkpt>
      <trkpt lat="42.99334" lon="-0.21799">
        <ele>1401.6</ele>
        <time>2022-05-14T07:11:42Z</time>
      </trkpt>
      <trkpt lat="42.9934" lon="-0.21801">
        <ele>1402.4</ele>
        <time>2022-05-14T07:11:46Z</time>
      </trkpt>
      <trkpt lat="42.99347" lon="-0.21813">
        <ele>1402.8</ele>
        <time>2022-05-14T07:11:52Z</time>
      </trkpt>
      <trkpt lat="42.99348" lon="-0.21815">
        <ele>1403</ele>
        <time>2022-05-14T07:11:53Z</time>
      </trkpt>
      <trkpt lat="42.99347" lon="-0.21834">
        <ele>1403.8</ele>
        <time>2022-05-14T07:12:00Z</time>
      </trkpt>
      <trkpt lat="42.99346" lon="-0.21839">
        <ele>1404</ele>
        <time>2022-05-14T07:12:02Z</time>
      </trkpt>
      <trkpt lat="42.99344" lon="-0.21853">
        <ele>1404.8</ele>
        <time>2022-05-14T07:12:07Z</time>
      </trkpt>
      <trkpt lat="42.99343" lon="-0.21855">
        <ele>1405.2</ele>
        <time>2022-05-14T07:12:08Z</time>
      </trkpt>
      <trkpt lat="42.99338" lon="-0.21871">
        <ele>1406</ele>
        <time>2022-05-14T07:12:14Z</time>
      </trkpt>
      <trkpt lat="42.99338" lon="-0.21874">
        <ele>1406.2</ele>
        <time>2022-05-14T07:12:15Z</time>
      </trkpt>
      <trkpt lat="42.99335" lon="-0.21888">
        <ele>1407.2</ele>
        <time>2022-05-14T07:12:20Z</time>
      </trkpt>
      <trkpt lat="42.99334" lon="-0.2189">
        <ele>1407.4</ele>
        <time>2022-05-14T07:12:21Z</time>
      </trkpt>
      <trkpt lat="42.99333" lon="-0.2191">
        <ele>1408.4</ele>
        <time>2022-05-14T07:12:27Z</time>
      </trkpt>
      <trkpt lat="42.99325" lon="-0.21926">
        <ele>1409.4</ele>
        <time>2022-05-14T07:12:33Z</time>
      </trkpt>
      <trkpt lat="42.99324" lon="-0.21928">
        <ele>1409.6</ele>
        <time>2022-05-14T07:12:34Z</time>
      </trkpt>
      <trkpt lat="42.99323" lon="-0.21939">
        <ele>1410.8</ele>
        <time>2022-05-14T07:12:38Z</time>
      </trkpt>
      <trkpt lat="42.99321" lon="-0.21948">
        <ele>1411.4</ele>
        <time>2022-05-14T07:12:41Z</time>
      </trkpt>
      <trkpt lat="42.99321" lon="-0.21954">
        <ele>1411.8</ele>
        <time>2022-05-14T07:12:43Z</time>
      </trkpt>
      <trkpt lat="42.99318" lon="-0.21962">
        <ele>1412.2</ele>
        <time>2022-05-14T07:12:46Z</time>
      </trkpt>
      <trkpt lat="42.99317" lon="-0.21965">
        <ele>1412.4</ele>
        <time>2022-05-14T07:12:47Z</time>
      </trkpt>
      <trkpt lat="42.99314" lon="-0.21977">
        <ele>1413</ele>
        <time>2022-05-14T07:12:52Z</time>
      </trkpt>
      <trkpt lat="42.99308" lon="-0.21988">
        <ele>1414.2</ele>
        <time>2022-05-14T07:12:58Z</time>
      </trkpt>
      <trkpt lat="42.99302" lon="-0.21999">
        <ele>1415.2</ele>
        <time>2022-05-14T07:13:03Z</time>
      </trkpt>
      <trkpt lat="42.993" lon="-0.22004">
        <ele>1415.6</ele>
        <time>2022-05-14T07:13:05Z</time>
      </trkpt>
      <trkpt lat="42.99298" lon="-0.22014">
        <ele>1416.4</ele>
        <time>2022-05-14T07:13:09Z</time>
      </trkpt>
      <trkpt lat="42.99297" lon="-0.22018">
        <ele>1416.6</ele>
        <time>2022-05-14T07:13:11Z</time>
      </trkpt>
      <trkpt lat="42.99296" lon="-0.22022">
        <ele>1416.8</ele>
        <time>2022-05-14T07:13:13Z</time>
      </trkpt>
      <trkpt lat="42.99294" lon="-0.22026">
        <ele>1417.2</ele>
        <time>2022-05-14T07:13:15Z</time>
      </trkpt>
      <trkpt lat="42.99293" lon="-0.22027">
        <ele>1417.4</ele>
        <time>2022-05-14T07:13:16Z</time>
      </trkpt>
      <trkpt lat="42.9929" lon="-0.22029">
        <ele>1417.8</ele>
        <time>2022-05-14T07:13:18Z</time>
      </trkpt>
      <trkpt lat="42.99287" lon="-0.22026">
        <ele>1418.2</ele>
        <time>2022-05-14T07:13:20Z</time>
      </trkpt>
      <trkpt lat="42.99287" lon="-0.22021">
        <ele>1418.6</ele>
        <time>2022-05-14T07:13:22Z</time>
      </trkpt>
      <trkpt lat="42.99287" lon="-0.22019">
        <ele>1418.8</ele>
        <time>2022-05-14T07:13:23Z</time>
      </trkpt>
      <trkpt lat="42.99289" lon="-0.22012">
        <ele>1419.4</ele>
        <time>2022-05-14T07:13:26Z</time>
      </trkpt>
      <trkpt lat="42.99288" lon="-0.22005">
        <ele>1419.8</ele>
        <time>2022-05-14T07:13:29Z</time>
      </trkpt>
      <trkpt lat="42.99289" lon="-0.21994">
        <ele>1420.4</ele>
        <time>2022-05-14T07:13:34Z</time>
      </trkpt>
      <trkpt lat="42.99288" lon="-0.21991">
        <ele>1420.8</ele>
        <time>2022-05-14T07:13:35Z</time>
      </trkpt>
      <trkpt lat="42.99287" lon="-0.21987">
        <ele>1420.8</ele>
        <time>2022-05-14T07:13:37Z</time>
      </trkpt>
      <trkpt lat="42.99287" lon="-0.21979">
        <ele>1421</ele>
        <time>2022-05-14T07:13:40Z</time>
      </trkpt>
      <trkpt lat="42.99288" lon="-0.21956">
        <ele>1421.6</ele>
        <time>2022-05-14T07:13:48Z</time>
      </trkpt>
      <trkpt lat="42.99287" lon="-0.21944">
        <ele>1422</ele>
        <time>2022-05-14T07:13:52Z</time>
      </trkpt>
      <trkpt lat="42.99287" lon="-0.2193">
        <ele>1422.4</ele>
        <time>2022-05-14T07:13:58Z</time>
      </trkpt>
      <trkpt lat="42.99286" lon="-0.21919">
        <ele>1423</ele>
        <time>2022-05-14T07:14:03Z</time>
      </trkpt>
      <trkpt lat="42.99286" lon="-0.21913">
        <ele>1423.4</ele>
        <time>2022-05-14T07:14:06Z</time>
      </trkpt>
      <trkpt lat="42.9928" lon="-0.21901">
        <ele>1423.8</ele>
        <time>2022-05-14T07:14:12Z</time>
      </trkpt>
      <trkpt lat="42.99277" lon="-0.21899">
        <ele>1423.8</ele>
        <time>2022-05-14T07:14:14Z</time>
      </trkpt>
      <trkpt lat="42.99276" lon="-0.219">
        <ele>1424</ele>
        <time>2022-05-14T07:14:15Z</time>
      </trkpt>
      <trkpt lat="42.99274" lon="-0.21902">
        <ele>1424.2</ele>
        <time>2022-05-14T07:14:17Z</time>
      </trkpt>
      <trkpt lat="42.99274" lon="-0.21903">
        <ele>1424.4</ele>
        <time>2022-05-14T07:14:18Z</time>
      </trkpt>
      <trkpt lat="42.99273" lon="-0.21912">
        <ele>1424.8</ele>
        <time>2022-05-14T07:14:22Z</time>
      </trkpt>
      <trkpt lat="42.99271" lon="-0.21917">
        <ele>1425.2</ele>
        <time>2022-05-14T07:14:25Z</time>
      </trkpt>
      <trkpt lat="42.99265" lon="-0.2193">
        <ele>1426.2</ele>
        <time>2022-05-14T07:14:33Z</time>
      </trkpt>
      <trkpt lat="42.99263" lon="-0.21936">
        <ele>1426.8</ele>
        <time>2022-05-14T07:14:36Z</time>
      </trkpt>
      <trkpt lat="42.9926" lon="-0.21942">
        <ele>1427.2</ele>
        <time>2022-05-14T07:14:39Z</time>
      </trkpt>
      <trkpt lat="42.9926" lon="-0.21944">
        <ele>1427.2</ele>
        <time>2022-05-14T07:14:40Z</time>
      </trkpt>
      <trkpt lat="42.99258" lon="-0.21947">
        <ele>1427.6</ele>
        <time>2022-05-14T07:14:42Z</time>
      </trkpt>
      <trkpt lat="42.99257" lon="-0.21951">
        <ele>1428</ele>
        <time>2022-05-14T07:14:44Z</time>
      </trkpt>
      <trkpt lat="42.99256" lon="-0.21955">
        <ele>1428.2</ele>
        <time>2022-05-14T07:14:46Z</time>
      </trkpt>
      <trkpt lat="42.99252" lon="-0.21966">
        <ele>1429.2</ele>
        <time>2022-05-14T07:14:51Z</time>
      </trkpt>
      <trkpt lat="42.99251" lon="-0.21968">
        <ele>1429.4</ele>
        <time>2022-05-14T07:14:52Z</time>
      </trkpt>
      <trkpt lat="42.99245" lon="-0.21982">
        <ele>1430.2</ele>
        <time>2022-05-14T07:14:58Z</time>
      </trkpt>
      <trkpt lat="42.99241" lon="-0.21987">
        <ele>1430.6</ele>
        <time>2022-05-14T07:15:00Z</time>
      </trkpt>
      <trkpt lat="42.99239" lon="-0.21993">
        <ele>1431</ele>
        <time>2022-05-14T07:15:03Z</time>
      </trkpt>
      <trkpt lat="42.99234" lon="-0.22002">
        <ele>1431.4</ele>
        <time>2022-05-14T07:15:06Z</time>
      </trkpt>
      <trkpt lat="42.99231" lon="-0.22006">
        <ele>1431.4</ele>
        <time>2022-05-14T07:15:08Z</time>
      </trkpt>
      <trkpt lat="42.99229" lon="-0.22011">
        <ele>1431.6</ele>
        <time>2022-05-14T07:15:10Z</time>
      </trkpt>
      <trkpt lat="42.99226" lon="-0.22015">
        <ele>1432</ele>
        <time>2022-05-14T07:15:12Z</time>
      </trkpt>
      <trkpt lat="42.99223" lon="-0.22019">
        <ele>1432.2</ele>
        <time>2022-05-14T07:15:14Z</time>
      </trkpt>
      <trkpt lat="42.99221" lon="-0.22025">
        <ele>1432.8</ele>
        <time>2022-05-14T07:15:17Z</time>
      </trkpt>
      <trkpt lat="42.99221" lon="-0.22026">
        <ele>1432.8</ele>
        <time>2022-05-14T07:15:18Z</time>
      </trkpt>
      <trkpt lat="42.99213" lon="-0.22045">
        <ele>1433.8</ele>
        <time>2022-05-14T07:15:26Z</time>
      </trkpt>
      <trkpt lat="42.99211" lon="-0.22049">
        <ele>1434.2</ele>
        <time>2022-05-14T07:15:28Z</time>
      </trkpt>
      <trkpt lat="42.99209" lon="-0.22056">
        <ele>1435</ele>
        <time>2022-05-14T07:15:31Z</time>
      </trkpt>
      <trkpt lat="42.99208" lon="-0.22068">
        <ele>1435.8</ele>
        <time>2022-05-14T07:15:36Z</time>
      </trkpt>
      <trkpt lat="42.99208" lon="-0.2207">
        <ele>1436</ele>
        <time>2022-05-14T07:15:37Z</time>
      </trkpt>
      <trkpt lat="42.9921" lon="-0.22077">
        <ele>1436.6</ele>
        <time>2022-05-14T07:15:40Z</time>
      </trkpt>
      <trkpt lat="42.99211" lon="-0.2208">
        <ele>1436.8</ele>
        <time>2022-05-14T07:15:41Z</time>
      </trkpt>
      <trkpt lat="42.99211" lon="-0.22084">
        <ele>1437.4</ele>
        <time>2022-05-14T07:15:43Z</time>
      </trkpt>
      <trkpt lat="42.99213" lon="-0.22094">
        <ele>1438</ele>
        <time>2022-05-14T07:15:47Z</time>
      </trkpt>
      <trkpt lat="42.99214" lon="-0.22103">
        <ele>1438.6</ele>
        <time>2022-05-14T07:15:51Z</time>
      </trkpt>
      <trkpt lat="42.99215" lon="-0.2211">
        <ele>1439</ele>
        <time>2022-05-14T07:15:54Z</time>
      </trkpt>
      <trkpt lat="42.99217" lon="-0.2212">
        <ele>1439.6</ele>
        <time>2022-05-14T07:15:58Z</time>
      </trkpt>
      <trkpt lat="42.99218" lon="-0.22129">
        <ele>1440.2</ele>
        <time>2022-05-14T07:16:02Z</time>
      </trkpt>
      <trkpt lat="42.99219" lon="-0.22139">
        <ele>1440.6</ele>
        <time>2022-05-14T07:16:06Z</time>
      </trkpt>
      <trkpt lat="42.99217" lon="-0.22157">
        <ele>1441.2</ele>
        <time>2022-05-14T07:16:14Z</time>
      </trkpt>
      <trkpt lat="42.99215" lon="-0.22158">
        <ele>1441.2</ele>
        <time>2022-05-14T07:16:15Z</time>
      </trkpt>
      <trkpt lat="42.99212" lon="-0.22157">
        <ele>1441.6</ele>
        <time>2022-05-14T07:16:17Z</time>
      </trkpt>
      <trkpt lat="42.99211" lon="-0.22156">
        <ele>1441.8</ele>
        <time>2022-05-14T07:16:18Z</time>
      </trkpt>
      <trkpt lat="42.9921" lon="-0.22153">
        <ele>1441.8</ele>
        <time>2022-05-14T07:16:19Z</time>
      </trkpt>
      <trkpt lat="42.99209" lon="-0.22141">
        <ele>1442.4</ele>
        <time>2022-05-14T07:16:23Z</time>
      </trkpt>
      <trkpt lat="42.99205" lon="-0.22126">
        <ele>1443.4</ele>
        <time>2022-05-14T07:16:29Z</time>
      </trkpt>
      <trkpt lat="42.99195" lon="-0.22108">
        <ele>1444.2</ele>
        <time>2022-05-14T07:16:37Z</time>
      </trkpt>
      <trkpt lat="42.9919" lon="-0.22099">
        <ele>1444.4</ele>
        <time>2022-05-14T07:16:41Z</time>
      </trkpt>
      <trkpt lat="42.99178" lon="-0.22087">
        <ele>1445</ele>
        <time>2022-05-14T07:16:48Z</time>
      </trkpt>
      <trkpt lat="42.99173" lon="-0.2208">
        <ele>1445.2</ele>
        <time>2022-05-14T07:16:51Z</time>
      </trkpt>
      <trkpt lat="42.99164" lon="-0.22067">
        <ele>1445.4</ele>
        <time>2022-05-14T07:16:56Z</time>
      </trkpt>
      <trkpt lat="42.99151" lon="-0.22052">
        <ele>1445.2</ele>
        <time>2022-05-14T07:17:04Z</time>
      </trkpt>
      <trkpt lat="42.99141" lon="-0.22044">
        <ele>1445.8</ele>
        <time>2022-05-14T07:17:10Z</time>
      </trkpt>
      <trkpt lat="42.99135" lon="-0.2204">
        <ele>1446.4</ele>
        <time>2022-05-14T07:17:14Z</time>
      </trkpt>
      <trkpt lat="42.99128" lon="-0.22036">
        <ele>1447</ele>
        <time>2022-05-14T07:17:18Z</time>
      </trkpt>
      <trkpt lat="42.99116" lon="-0.22031">
        <ele>1447.4</ele>
        <time>2022-05-14T07:17:23Z</time>
      </trkpt>
      <trkpt lat="42.99113" lon="-0.22031">
        <ele>1447.4</ele>
        <time>2022-05-14T07:17:24Z</time>
      </trkpt>
      <trkpt lat="42.99095" lon="-0.22028">
        <ele>1447.2</ele>
        <time>2022-05-14T07:17:30Z</time>
      </trkpt>
      <trkpt lat="42.99087" lon="-0.22032">
        <ele>1447.2</ele>
        <time>2022-05-14T07:17:35Z</time>
      </trkpt>
      <trkpt lat="42.99085" lon="-0.22039">
        <ele>1447.4</ele>
        <time>2022-05-14T07:17:38Z</time>
      </trkpt>
      <trkpt lat="42.99086" lon="-0.22043">
        <ele>1448</ele>
        <time>2022-05-14T07:17:40Z</time>
      </trkpt>
      <trkpt lat="42.99088" lon="-0.22047">
        <ele>1448.6</ele>
        <time>2022-05-14T07:17:42Z</time>
      </trkpt>
      <trkpt lat="42.99092" lon="-0.22053">
        <ele>1450</ele>
        <time>2022-05-14T07:17:46Z</time>
      </trkpt>
      <trkpt lat="42.99096" lon="-0.22064">
        <ele>1451</ele>
        <time>2022-05-14T07:17:51Z</time>
      </trkpt>
      <trkpt lat="42.99097" lon="-0.22066">
        <ele>1451.6</ele>
        <time>2022-05-14T07:17:52Z</time>
      </trkpt>
      <trkpt lat="42.99101" lon="-0.22076">
        <ele>1452.4</ele>
        <time>2022-05-14T07:17:56Z</time>
      </trkpt>
      <trkpt lat="42.99102" lon="-0.2208">
        <ele>1452.8</ele>
        <time>2022-05-14T07:17:58Z</time>
      </trkpt>
      <trkpt lat="42.99103" lon="-0.22087">
        <ele>1453.6</ele>
        <time>2022-05-14T07:18:01Z</time>
      </trkpt>
      <trkpt lat="42.99105" lon="-0.22098">
        <ele>1454.4</ele>
        <time>2022-05-14T07:18:06Z</time>
      </trkpt>
      <trkpt lat="42.99106" lon="-0.22104">
        <ele>1454.6</ele>
        <time>2022-05-14T07:18:09Z</time>
      </trkpt>
      <trkpt lat="42.99106" lon="-0.22116">
        <ele>1455.4</ele>
        <time>2022-05-14T07:18:14Z</time>
      </trkpt>
      <trkpt lat="42.99107" lon="-0.2212">
        <ele>1455.8</ele>
        <time>2022-05-14T07:18:16Z</time>
      </trkpt>
      <trkpt lat="42.9911" lon="-0.22131">
        <ele>1456.8</ele>
        <time>2022-05-14T07:18:21Z</time>
      </trkpt>
      <trkpt lat="42.99111" lon="-0.22132">
        <ele>1456.8</ele>
        <time>2022-05-14T07:18:22Z</time>
      </trkpt>
      <trkpt lat="42.99117" lon="-0.22141">
        <ele>1458</ele>
        <time>2022-05-14T07:18:27Z</time>
      </trkpt>
      <trkpt lat="42.9912" lon="-0.22148">
        <ele>1458.6</ele>
        <time>2022-05-14T07:18:31Z</time>
      </trkpt>
      <trkpt lat="42.99122" lon="-0.2215">
        <ele>1458.8</ele>
        <time>2022-05-14T07:18:32Z</time>
      </trkpt>
      <trkpt lat="42.99126" lon="-0.22158">
        <ele>1459.8</ele>
        <time>2022-05-14T07:18:37Z</time>
      </trkpt>
      <trkpt lat="42.99128" lon="-0.22162">
        <ele>1460.4</ele>
        <time>2022-05-14T07:18:39Z</time>
      </trkpt>
      <trkpt lat="42.9913" lon="-0.22168">
        <ele>1461</ele>
        <time>2022-05-14T07:18:42Z</time>
      </trkpt>
      <trkpt lat="42.99133" lon="-0.22174">
        <ele>1462</ele>
        <time>2022-05-14T07:18:46Z</time>
      </trkpt>
      <trkpt lat="42.99135" lon="-0.2218">
        <ele>1462.6</ele>
        <time>2022-05-14T07:18:49Z</time>
      </trkpt>
      <trkpt lat="42.99136" lon="-0.22182">
        <ele>1463.2</ele>
        <time>2022-05-14T07:18:50Z</time>
      </trkpt>
      <trkpt lat="42.99139" lon="-0.22192">
        <ele>1464.2</ele>
        <time>2022-05-14T07:18:55Z</time>
      </trkpt>
      <trkpt lat="42.9914" lon="-0.22201">
        <ele>1465</ele>
        <time>2022-05-14T07:18:59Z</time>
      </trkpt>
      <trkpt lat="42.9914" lon="-0.22205">
        <ele>1465.6</ele>
        <time>2022-05-14T07:19:01Z</time>
      </trkpt>
      <trkpt lat="42.99141" lon="-0.22211">
        <ele>1466.2</ele>
        <time>2022-05-14T07:19:04Z</time>
      </trkpt>
      <trkpt lat="42.99142" lon="-0.22215">
        <ele>1466.6</ele>
        <time>2022-05-14T07:19:06Z</time>
      </trkpt>
      <trkpt lat="42.99142" lon="-0.22218">
        <ele>1466.8</ele>
        <time>2022-05-14T07:19:07Z</time>
      </trkpt>
      <trkpt lat="42.9914" lon="-0.22228">
        <ele>1468</ele>
        <time>2022-05-14T07:19:12Z</time>
      </trkpt>
      <trkpt lat="42.99135" lon="-0.22231">
        <ele>1468.6</ele>
        <time>2022-05-14T07:19:15Z</time>
      </trkpt>
      <trkpt lat="42.99132" lon="-0.2223">
        <ele>1468.8</ele>
        <time>2022-05-14T07:19:17Z</time>
      </trkpt>
      <trkpt lat="42.99131" lon="-0.22229">
        <ele>1469</ele>
        <time>2022-05-14T07:19:18Z</time>
      </trkpt>
      <trkpt lat="42.99123" lon="-0.22223">
        <ele>1470.2</ele>
        <time>2022-05-14T07:19:23Z</time>
      </trkpt>
      <trkpt lat="42.99121" lon="-0.22221">
        <ele>1470.6</ele>
        <time>2022-05-14T07:19:24Z</time>
      </trkpt>
      <trkpt lat="42.99119" lon="-0.2222">
        <ele>1470.8</ele>
        <time>2022-05-14T07:19:25Z</time>
      </trkpt>
      <trkpt lat="42.99113" lon="-0.22217">
        <ele>1471.2</ele>
        <time>2022-05-14T07:19:28Z</time>
      </trkpt>
      <trkpt lat="42.99107" lon="-0.22212">
        <ele>1471.6</ele>
        <time>2022-05-14T07:19:32Z</time>
      </trkpt>
      <trkpt lat="42.99098" lon="-0.22202">
        <ele>1472.4</ele>
        <time>2022-05-14T07:19:39Z</time>
      </trkpt>
      <trkpt lat="42.99093" lon="-0.22199">
        <ele>1473.2</ele>
        <time>2022-05-14T07:19:43Z</time>
      </trkpt>
      <trkpt lat="42.9909" lon="-0.22202">
        <ele>1473.4</ele>
        <time>2022-05-14T07:19:45Z</time>
      </trkpt>
      <trkpt lat="42.9909" lon="-0.22207">
        <ele>1473.8</ele>
        <time>2022-05-14T07:19:47Z</time>
      </trkpt>
      <trkpt lat="42.99093" lon="-0.22213">
        <ele>1474</ele>
        <time>2022-05-14T07:19:50Z</time>
      </trkpt>
      <trkpt lat="42.99095" lon="-0.22216">
        <ele>1474.6</ele>
        <time>2022-05-14T07:19:52Z</time>
      </trkpt>
      <trkpt lat="42.991" lon="-0.22228">
        <ele>1475.6</ele>
        <time>2022-05-14T07:19:58Z</time>
      </trkpt>
      <trkpt lat="42.99101" lon="-0.2223">
        <ele>1476</ele>
        <time>2022-05-14T07:19:59Z</time>
      </trkpt>
      <trkpt lat="42.99102" lon="-0.22236">
        <ele>1476.8</ele>
        <time>2022-05-14T07:20:02Z</time>
      </trkpt>
      <trkpt lat="42.99104" lon="-0.22242">
        <ele>1477.2</ele>
        <time>2022-05-14T07:20:05Z</time>
      </trkpt>
      <trkpt lat="42.99105" lon="-0.22246">
        <ele>1477.8</ele>
        <time>2022-05-14T07:20:07Z</time>
      </trkpt>
      <trkpt lat="42.99105" lon="-0.22256">
        <ele>1478.8</ele>
        <time>2022-05-14T07:20:12Z</time>
      </trkpt>
      <trkpt lat="42.99106" lon="-0.22258">
        <ele>1479</ele>
        <time>2022-05-14T07:20:13Z</time>
      </trkpt>
      <trkpt lat="42.99108" lon="-0.22269">
        <ele>1479.6</ele>
        <time>2022-05-14T07:20:18Z</time>
      </trkpt>
      <trkpt lat="42.99109" lon="-0.22271">
        <ele>1480</ele>
        <time>2022-05-14T07:20:19Z</time>
      </trkpt>
      <trkpt lat="42.99114" lon="-0.22282">
        <ele>1481</ele>
        <time>2022-05-14T07:20:25Z</time>
      </trkpt>
      <trkpt lat="42.99115" lon="-0.22284">
        <ele>1481.4</ele>
        <time>2022-05-14T07:20:26Z</time>
      </trkpt>
      <trkpt lat="42.99118" lon="-0.22291">
        <ele>1482.2</ele>
        <time>2022-05-14T07:20:30Z</time>
      </trkpt>
      <trkpt lat="42.9912" lon="-0.22298">
        <ele>1483.2</ele>
        <time>2022-05-14T07:20:34Z</time>
      </trkpt>
      <trkpt lat="42.9912" lon="-0.223">
        <ele>1483.4</ele>
        <time>2022-05-14T07:20:35Z</time>
      </trkpt>
      <trkpt lat="42.99121" lon="-0.22308">
        <ele>1484.4</ele>
        <time>2022-05-14T07:20:39Z</time>
      </trkpt>
      <trkpt lat="42.99121" lon="-0.22312">
        <ele>1485</ele>
        <time>2022-05-14T07:20:41Z</time>
      </trkpt>
      <trkpt lat="42.99121" lon="-0.22314">
        <ele>1485</ele>
        <time>2022-05-14T07:20:42Z</time>
      </trkpt>
      <trkpt lat="42.99121" lon="-0.2232">
        <ele>1485.4</ele>
        <time>2022-05-14T07:20:45Z</time>
      </trkpt>
      <trkpt lat="42.99123" lon="-0.22326">
        <ele>1486</ele>
        <time>2022-05-14T07:20:48Z</time>
      </trkpt>
      <trkpt lat="42.99124" lon="-0.22332">
        <ele>1486.8</ele>
        <time>2022-05-14T07:20:51Z</time>
      </trkpt>
      <trkpt lat="42.99124" lon="-0.22334">
        <ele>1487</ele>
        <time>2022-05-14T07:20:52Z</time>
      </trkpt>
      <trkpt lat="42.99124" lon="-0.22338">
        <ele>1487.2</ele>
        <time>2022-05-14T07:20:54Z</time>
      </trkpt>
      <trkpt lat="42.99125" lon="-0.22342">
        <ele>1488</ele>
        <time>2022-05-14T07:20:56Z</time>
      </trkpt>
      <trkpt lat="42.99126" lon="-0.22351">
        <ele>1488.6</ele>
        <time>2022-05-14T07:21:00Z</time>
      </trkpt>
      <trkpt lat="42.99125" lon="-0.22355">
        <ele>1489.2</ele>
        <time>2022-05-14T07:21:02Z</time>
      </trkpt>
      <trkpt lat="42.99126" lon="-0.22365">
        <ele>1490</ele>
        <time>2022-05-14T07:21:06Z</time>
      </trkpt>
      <trkpt lat="42.99126" lon="-0.22367">
        <ele>1490.2</ele>
        <time>2022-05-14T07:21:07Z</time>
      </trkpt>
      <trkpt lat="42.99128" lon="-0.2238">
        <ele>1491.4</ele>
        <time>2022-05-14T07:21:13Z</time>
      </trkpt>
      <trkpt lat="42.99129" lon="-0.22392">
        <ele>1492.6</ele>
        <time>2022-05-14T07:21:19Z</time>
      </trkpt>
      <trkpt lat="42.99129" lon="-0.22394">
        <ele>1493</ele>
        <time>2022-05-14T07:21:20Z</time>
      </trkpt>
      <trkpt lat="42.9913" lon="-0.22401">
        <ele>1493.8</ele>
        <time>2022-05-14T07:21:23Z</time>
      </trkpt>
      <trkpt lat="42.9913" lon="-0.22409">
        <ele>1494.8</ele>
        <time>2022-05-14T07:21:27Z</time>
      </trkpt>
      <trkpt lat="42.9913" lon="-0.2242">
        <ele>1496</ele>
        <time>2022-05-14T07:21:32Z</time>
      </trkpt>
      <trkpt lat="42.99131" lon="-0.22432">
        <ele>1497.2</ele>
        <time>2022-05-14T07:21:38Z</time>
      </trkpt>
      <trkpt lat="42.99131" lon="-0.22438">
        <ele>1498</ele>
        <time>2022-05-14T07:21:41Z</time>
      </trkpt>
      <trkpt lat="42.99131" lon="-0.22439">
        <ele>1498.2</ele>
        <time>2022-05-14T07:21:42Z</time>
      </trkpt>
      <trkpt lat="42.99131" lon="-0.22447">
        <ele>1499</ele>
        <time>2022-05-14T07:21:45Z</time>
      </trkpt>
      <trkpt lat="42.99133" lon="-0.22451">
        <ele>1499.4</ele>
        <time>2022-05-14T07:21:47Z</time>
      </trkpt>
      <trkpt lat="42.99136" lon="-0.22463">
        <ele>1500.6</ele>
        <time>2022-05-14T07:21:53Z</time>
      </trkpt>
      <trkpt lat="42.99137" lon="-0.22469">
        <ele>1500.8</ele>
        <time>2022-05-14T07:21:56Z</time>
      </trkpt>
      <trkpt lat="42.99137" lon="-0.22475">
        <ele>1501.4</ele>
        <time>2022-05-14T07:21:59Z</time>
      </trkpt>
      <trkpt lat="42.99138" lon="-0.22483">
        <ele>1502.8</ele>
        <time>2022-05-14T07:22:03Z</time>
      </trkpt>
      <trkpt lat="42.99138" lon="-0.22487">
        <ele>1503.2</ele>
        <time>2022-05-14T07:22:05Z</time>
      </trkpt>
      <trkpt lat="42.99139" lon="-0.22493">
        <ele>1503.6</ele>
        <time>2022-05-14T07:22:08Z</time>
      </trkpt>
      <trkpt lat="42.99141" lon="-0.225">
        <ele>1504.2</ele>
        <time>2022-05-14T07:22:11Z</time>
      </trkpt>
      <trkpt lat="42.99144" lon="-0.2251">
        <ele>1504.8</ele>
        <time>2022-05-14T07:22:16Z</time>
      </trkpt>
      <trkpt lat="42.99145" lon="-0.22518">
        <ele>1505.6</ele>
        <time>2022-05-14T07:22:20Z</time>
      </trkpt>
      <trkpt lat="42.99145" lon="-0.2252">
        <ele>1505.8</ele>
        <time>2022-05-14T07:22:21Z</time>
      </trkpt>
      <trkpt lat="42.99147" lon="-0.2253">
        <ele>1506.8</ele>
        <time>2022-05-14T07:22:26Z</time>
      </trkpt>
      <trkpt lat="42.99148" lon="-0.22531">
        <ele>1507</ele>
        <time>2022-05-14T07:22:27Z</time>
      </trkpt>
      <trkpt lat="42.99149" lon="-0.22533">
        <ele>1507.2</ele>
        <time>2022-05-14T07:22:28Z</time>
      </trkpt>
      <trkpt lat="42.9915" lon="-0.22539">
        <ele>1508</ele>
        <time>2022-05-14T07:22:31Z</time>
      </trkpt>
      <trkpt lat="42.99153" lon="-0.22549">
        <ele>1509.2</ele>
        <time>2022-05-14T07:22:36Z</time>
      </trkpt>
      <trkpt lat="42.99153" lon="-0.22551">
        <ele>1509.6</ele>
        <time>2022-05-14T07:22:37Z</time>
      </trkpt>
      <trkpt lat="42.99158" lon="-0.22556">
        <ele>1510.4</ele>
        <time>2022-05-14T07:22:40Z</time>
      </trkpt>
      <trkpt lat="42.99161" lon="-0.22562">
        <ele>1510.8</ele>
        <time>2022-05-14T07:22:43Z</time>
      </trkpt>
      <trkpt lat="42.99165" lon="-0.22571">
        <ele>1511.6</ele>
        <time>2022-05-14T07:22:48Z</time>
      </trkpt>
      <trkpt lat="42.99166" lon="-0.22574">
        <ele>1512.4</ele>
        <time>2022-05-14T07:22:50Z</time>
      </trkpt>
      <trkpt lat="42.99167" lon="-0.22576">
        <ele>1512.6</ele>
        <time>2022-05-14T07:22:51Z</time>
      </trkpt>
      <trkpt lat="42.99169" lon="-0.22584">
        <ele>1513.8</ele>
        <time>2022-05-14T07:22:55Z</time>
      </trkpt>
      <trkpt lat="42.99168" lon="-0.22591">
        <ele>1514.6</ele>
        <time>2022-05-14T07:22:58Z</time>
      </trkpt>
      <trkpt lat="42.99168" lon="-0.22594">
        <ele>1515.2</ele>
        <time>2022-05-14T07:22:59Z</time>
      </trkpt>
      <trkpt lat="42.99163" lon="-0.22607">
        <ele>1516.4</ele>
        <time>2022-05-14T07:23:05Z</time>
      </trkpt>
      <trkpt lat="42.99162" lon="-0.22609">
        <ele>1516.6</ele>
        <time>2022-05-14T07:23:06Z</time>
      </trkpt>
      <trkpt lat="42.99156" lon="-0.22621">
        <ele>1517.4</ele>
        <time>2022-05-14T07:23:12Z</time>
      </trkpt>
      <trkpt lat="42.99155" lon="-0.22623">
        <ele>1517.4</ele>
        <time>2022-05-14T07:23:13Z</time>
      </trkpt>
      <trkpt lat="42.99145" lon="-0.22635">
        <ele>1518.8</ele>
        <time>2022-05-14T07:23:23Z</time>
      </trkpt>
      <trkpt lat="42.99144" lon="-0.22638">
        <ele>1519</ele>
        <time>2022-05-14T07:23:29Z</time>
      </trkpt>
      <trkpt lat="42.99144" lon="-0.22638">
        <ele>1523.8</ele>
        <time>2022-05-14T07:24:01Z</time>
      </trkpt>
      <trkpt lat="42.99144" lon="-0.22639">
        <ele>1519</ele>
        <time>2022-05-14T07:25:41Z</time>
      </trkpt>
      <trkpt lat="42.99138" lon="-0.22644">
        <ele>1518.8</ele>
        <time>2022-05-14T07:25:44Z</time>
      </trkpt>
      <trkpt lat="42.99123" lon="-0.2266">
        <ele>1518.4</ele>
        <time>2022-05-14T07:25:49Z</time>
      </trkpt>
      <trkpt lat="42.99107" lon="-0.22676">
        <ele>1517.8</ele>
        <time>2022-05-14T07:25:54Z</time>
      </trkpt>
      <trkpt lat="42.99104" lon="-0.22679">
        <ele>1517.6</ele>
        <time>2022-05-14T07:25:55Z</time>
      </trkpt>
      <trkpt lat="42.99078" lon="-0.227">
        <ele>1517.2</ele>
        <time>2022-05-14T07:26:04Z</time>
      </trkpt>
      <trkpt lat="42.99054" lon="-0.22714">
        <ele>1517.4</ele>
        <time>2022-05-14T07:26:12Z</time>
      </trkpt>
      <trkpt lat="42.99031" lon="-0.22713">
        <ele>1517.8</ele>
        <time>2022-05-14T07:26:19Z</time>
      </trkpt>
      <trkpt lat="42.99014" lon="-0.22705">
        <ele>1518.2</ele>
        <time>2022-05-14T07:26:25Z</time>
      </trkpt>
      <trkpt lat="42.99002" lon="-0.22697">
        <ele>1518.8</ele>
        <time>2022-05-14T07:26:30Z</time>
      </trkpt>
      <trkpt lat="42.98996" lon="-0.22693">
        <ele>1519</ele>
        <time>2022-05-14T07:26:32Z</time>
      </trkpt>
      <trkpt lat="42.98982" lon="-0.22683">
        <ele>1519.8</ele>
        <time>2022-05-14T07:26:38Z</time>
      </trkpt>
      <trkpt lat="42.98974" lon="-0.22679">
        <ele>1520.4</ele>
        <time>2022-05-14T07:26:41Z</time>
      </trkpt>
      <trkpt lat="42.98962" lon="-0.22674">
        <ele>1521</ele>
        <time>2022-05-14T07:26:45Z</time>
      </trkpt>
      <trkpt lat="42.98948" lon="-0.22671">
        <ele>1522</ele>
        <time>2022-05-14T07:26:50Z</time>
      </trkpt>
      <trkpt lat="42.98945" lon="-0.2267">
        <ele>1522.2</ele>
        <time>2022-05-14T07:26:51Z</time>
      </trkpt>
      <trkpt lat="42.98925" lon="-0.22674">
        <ele>1523</ele>
        <time>2022-05-14T07:26:57Z</time>
      </trkpt>
      <trkpt lat="42.98918" lon="-0.22678">
        <ele>1523.2</ele>
        <time>2022-05-14T07:26:59Z</time>
      </trkpt>
      <trkpt lat="42.989" lon="-0.22687">
        <ele>1523.4</ele>
        <time>2022-05-14T07:27:04Z</time>
      </trkpt>
      <trkpt lat="42.98879" lon="-0.22693">
        <ele>1524</ele>
        <time>2022-05-14T07:27:11Z</time>
      </trkpt>
      <trkpt lat="42.98871" lon="-0.22696">
        <ele>1524.2</ele>
        <time>2022-05-14T07:27:14Z</time>
      </trkpt>
      <trkpt lat="42.98859" lon="-0.227">
        <ele>1524.6</ele>
        <time>2022-05-14T07:27:18Z</time>
      </trkpt>
      <trkpt lat="42.9884" lon="-0.22707">
        <ele>1525.2</ele>
        <time>2022-05-14T07:27:24Z</time>
      </trkpt>
      <trkpt lat="42.9883" lon="-0.22713">
        <ele>1525.4</ele>
        <time>2022-05-14T07:27:27Z</time>
      </trkpt>
      <trkpt lat="42.98802" lon="-0.22727">
        <ele>1525.8</ele>
        <time>2022-05-14T07:27:35Z</time>
      </trkpt>
      <trkpt lat="42.9877" lon="-0.22745">
        <ele>1526.2</ele>
        <time>2022-05-14T07:27:45Z</time>
      </trkpt>
      <trkpt lat="42.98767" lon="-0.22746">
        <ele>1526.2</ele>
        <time>2022-05-14T07:27:46Z</time>
      </trkpt>
      <trkpt lat="42.98733" lon="-0.22756">
        <ele>1526.6</ele>
        <time>2022-05-14T07:27:55Z</time>
      </trkpt>
      <trkpt lat="42.98713" lon="-0.22772">
        <ele>1526.8</ele>
        <time>2022-05-14T07:28:01Z</time>
      </trkpt>
      <trkpt lat="42.98702" lon="-0.22794">
        <ele>1527</ele>
        <time>2022-05-14T07:28:06Z</time>
      </trkpt>
      <trkpt lat="42.98689" lon="-0.22816">
        <ele>1527</ele>
        <time>2022-05-14T07:28:11Z</time>
      </trkpt>
      <trkpt lat="42.98681" lon="-0.22822">
        <ele>1527.2</ele>
        <time>2022-05-14T07:28:13Z</time>
      </trkpt>
      <trkpt lat="42.98669" lon="-0.22825">
        <ele>1527.2</ele>
        <time>2022-05-14T07:28:16Z</time>
      </trkpt>
      <trkpt lat="42.98652" lon="-0.22824">
        <ele>1527.2</ele>
        <time>2022-05-14T07:28:20Z</time>
      </trkpt>
      <trkpt lat="42.98638" lon="-0.22824">
        <ele>1527.2</ele>
        <time>2022-05-14T07:28:23Z</time>
      </trkpt>
      <trkpt lat="42.98621" lon="-0.22825">
        <ele>1527</ele>
        <time>2022-05-14T07:28:26Z</time>
      </trkpt>
      <trkpt lat="42.98605" lon="-0.2283">
        <ele>1526.8</ele>
        <time>2022-05-14T07:28:29Z</time>
      </trkpt>
      <trkpt lat="42.98592" lon="-0.22834">
        <ele>1526.6</ele>
        <time>2022-05-14T07:28:31Z</time>
      </trkpt>
      <trkpt lat="42.98575" lon="-0.22842">
        <ele>1526.2</ele>
        <time>2022-05-14T07:28:34Z</time>
      </trkpt>
      <trkpt lat="42.98568" lon="-0.22846">
        <ele>1525.8</ele>
        <time>2022-05-14T07:28:35Z</time>
      </trkpt>
      <trkpt lat="42.98563" lon="-0.2285">
        <ele>1525.4</ele>
        <time>2022-05-14T07:28:36Z</time>
      </trkpt>
      <trkpt lat="42.98542" lon="-0.22867">
        <ele>1524.8</ele>
        <time>2022-05-14T07:28:40Z</time>
      </trkpt>
      <trkpt lat="42.98533" lon="-0.22877">
        <ele>1524.6</ele>
        <time>2022-05-14T07:28:42Z</time>
      </trkpt>
      <trkpt lat="42.98527" lon="-0.22888">
        <ele>1524.4</ele>
        <time>2022-05-14T07:28:44Z</time>
      </trkpt>
      <trkpt lat="42.98522" lon="-0.22905">
        <ele>1524</ele>
        <time>2022-05-14T07:28:46Z</time>
      </trkpt>
      <trkpt lat="42.98521" lon="-0.22913">
        <ele>1523.8</ele>
        <time>2022-05-14T07:28:47Z</time>
      </trkpt>
      <trkpt lat="42.98519" lon="-0.2292">
        <ele>1523.6</ele>
        <time>2022-05-14T07:28:48Z</time>
      </trkpt>
      <trkpt lat="42.98518" lon="-0.22928">
        <ele>1523.4</ele>
        <time>2022-05-14T07:28:49Z</time>
      </trkpt>
      <trkpt lat="42.98519" lon="-0.22945">
        <ele>1523.4</ele>
        <time>2022-05-14T07:28:51Z</time>
      </trkpt>
      <trkpt lat="42.98526" lon="-0.22978">
        <ele>1522.2</ele>
        <time>2022-05-14T07:28:55Z</time>
      </trkpt>
      <trkpt lat="42.98527" lon="-0.22985">
        <ele>1521.8</ele>
        <time>2022-05-14T07:28:56Z</time>
      </trkpt>
      <trkpt lat="42.9853" lon="-0.22992">
        <ele>1521.4</ele>
        <time>2022-05-14T07:28:57Z</time>
      </trkpt>
      <trkpt lat="42.98535" lon="-0.22999">
        <ele>1521.2</ele>
        <time>2022-05-14T07:28:58Z</time>
      </trkpt>
      <trkpt lat="42.98549" lon="-0.23018">
        <ele>1519.6</ele>
        <time>2022-05-14T07:29:01Z</time>
      </trkpt>
      <trkpt lat="42.98554" lon="-0.23026">
        <ele>1518.6</ele>
        <time>2022-05-14T07:29:02Z</time>
      </trkpt>
      <trkpt lat="42.98564" lon="-0.2305">
        <ele>1517.2</ele>
        <time>2022-05-14T07:29:05Z</time>
      </trkpt>
      <trkpt lat="42.98566" lon="-0.23059">
        <ele>1516.4</ele>
        <time>2022-05-14T07:29:06Z</time>
      </trkpt>
      <trkpt lat="42.9857" lon="-0.2307">
        <ele>1515.8</ele>
        <time>2022-05-14T07:29:07Z</time>
      </trkpt>
      <trkpt lat="42.98572" lon="-0.2308">
        <ele>1515.2</ele>
        <time>2022-05-14T07:29:08Z</time>
      </trkpt>
      <trkpt lat="42.98575" lon="-0.23101">
        <ele>1514.2</ele>
        <time>2022-05-14T07:29:10Z</time>
      </trkpt>
      <trkpt lat="42.98578" lon="-0.23121">
        <ele>1513</ele>
        <time>2022-05-14T07:29:12Z</time>
      </trkpt>
      <trkpt lat="42.98581" lon="-0.23153">
        <ele>1511.6</ele>
        <time>2022-05-14T07:29:15Z</time>
      </trkpt>
      <trkpt lat="42.9858" lon="-0.23187">
        <ele>1510.2</ele>
        <time>2022-05-14T07:29:18Z</time>
      </trkpt>
      <trkpt lat="42.98578" lon="-0.23211">
        <ele>1509.2</ele>
        <time>2022-05-14T07:29:20Z</time>
      </trkpt>
      <trkpt lat="42.98577" lon="-0.23222">
        <ele>1508</ele>
        <time>2022-05-14T07:29:21Z</time>
      </trkpt>
      <trkpt lat="42.98574" lon="-0.23241">
        <ele>1506.2</ele>
        <time>2022-05-14T07:29:23Z</time>
      </trkpt>
      <trkpt lat="42.98571" lon="-0.23262">
        <ele>1505.8</ele>
        <time>2022-05-14T07:29:25Z</time>
      </trkpt>
      <trkpt lat="42.98569" lon="-0.2327">
        <ele>1505.8</ele>
        <time>2022-05-14T07:29:26Z</time>
      </trkpt>
      <trkpt lat="42.98567" lon="-0.23284">
        <ele>1505.2</ele>
        <time>2022-05-14T07:29:28Z</time>
      </trkpt>
      <trkpt lat="42.98567" lon="-0.2329">
        <ele>1504.8</ele>
        <time>2022-05-14T07:29:29Z</time>
      </trkpt>
      <trkpt lat="42.98568" lon="-0.23309">
        <ele>1504.6</ele>
        <time>2022-05-14T07:29:32Z</time>
      </trkpt>
      <trkpt lat="42.98572" lon="-0.2332">
        <ele>1504.6</ele>
        <time>2022-05-14T07:29:34Z</time>
      </trkpt>
      <trkpt lat="42.98581" lon="-0.23338">
        <ele>1504.6</ele>
        <time>2022-05-14T07:29:37Z</time>
      </trkpt>
      <trkpt lat="42.98586" lon="-0.23351">
        <ele>1504.8</ele>
        <time>2022-05-14T07:29:39Z</time>
      </trkpt>
      <trkpt lat="42.98587" lon="-0.2338">
        <ele>1504.2</ele>
        <time>2022-05-14T07:29:43Z</time>
      </trkpt>
      <trkpt lat="42.98586" lon="-0.23386">
        <ele>1503.8</ele>
        <time>2022-05-14T07:29:44Z</time>
      </trkpt>
      <trkpt lat="42.98585" lon="-0.23417">
        <ele>1502.8</ele>
        <time>2022-05-14T07:29:48Z</time>
      </trkpt>
      <trkpt lat="42.98584" lon="-0.23427">
        <ele>1502</ele>
        <time>2022-05-14T07:29:49Z</time>
      </trkpt>
      <trkpt lat="42.98583" lon="-0.23436">
        <ele>1501.8</ele>
        <time>2022-05-14T07:29:50Z</time>
      </trkpt>
      <trkpt lat="42.98575" lon="-0.23467">
        <ele>1500.4</ele>
        <time>2022-05-14T07:29:53Z</time>
      </trkpt>
      <trkpt lat="42.98565" lon="-0.23498">
        <ele>1499.6</ele>
        <time>2022-05-14T07:29:56Z</time>
      </trkpt>
      <trkpt lat="42.9856" lon="-0.23507">
        <ele>1499</ele>
        <time>2022-05-14T07:29:57Z</time>
      </trkpt>
      <trkpt lat="42.98552" lon="-0.23525">
        <ele>1498</ele>
        <time>2022-05-14T07:29:59Z</time>
      </trkpt>
      <trkpt lat="42.9855" lon="-0.23535">
        <ele>1497.6</ele>
        <time>2022-05-14T07:30:00Z</time>
      </trkpt>
      <trkpt lat="42.9855" lon="-0.23544">
        <ele>1497.2</ele>
        <time>2022-05-14T07:30:01Z</time>
      </trkpt>
      <trkpt lat="42.98551" lon="-0.23554">
        <ele>1496.4</ele>
        <time>2022-05-14T07:30:02Z</time>
      </trkpt>
      <trkpt lat="42.98551" lon="-0.23564">
        <ele>1496</ele>
        <time>2022-05-14T07:30:03Z</time>
      </trkpt>
      <trkpt lat="42.98551" lon="-0.23574">
        <ele>1495.4</ele>
        <time>2022-05-14T07:30:04Z</time>
      </trkpt>
      <trkpt lat="42.9855" lon="-0.23605">
        <ele>1494.4</ele>
        <time>2022-05-14T07:30:07Z</time>
      </trkpt>
      <trkpt lat="42.98551" lon="-0.23616">
        <ele>1493.8</ele>
        <time>2022-05-14T07:30:08Z</time>
      </trkpt>
      <trkpt lat="42.98553" lon="-0.23626">
        <ele>1493.4</ele>
        <time>2022-05-14T07:30:09Z</time>
      </trkpt>
      <trkpt lat="42.98555" lon="-0.23634">
        <ele>1492.8</ele>
        <time>2022-05-14T07:30:10Z</time>
      </trkpt>
      <trkpt lat="42.98557" lon="-0.23643">
        <ele>1492.4</ele>
        <time>2022-05-14T07:30:11Z</time>
      </trkpt>
      <trkpt lat="42.98558" lon="-0.23653">
        <ele>1491.6</ele>
        <time>2022-05-14T07:30:12Z</time>
      </trkpt>
      <trkpt lat="42.98558" lon="-0.23665">
        <ele>1490.6</ele>
        <time>2022-05-14T07:30:13Z</time>
      </trkpt>
      <trkpt lat="42.98557" lon="-0.23676">
        <ele>1489</ele>
        <time>2022-05-14T07:30:14Z</time>
      </trkpt>
      <trkpt lat="42.98558" lon="-0.23697">
        <ele>1487.8</ele>
        <time>2022-05-14T07:30:16Z</time>
      </trkpt>
      <trkpt lat="42.9856" lon="-0.2371">
        <ele>1487.2</ele>
        <time>2022-05-14T07:30:17Z</time>
      </trkpt>
      <trkpt lat="42.98565" lon="-0.23739">
        <ele>1486.2</ele>
        <time>2022-05-14T07:30:19Z</time>
      </trkpt>
      <trkpt lat="42.98572" lon="-0.23763">
        <ele>1485.4</ele>
        <time>2022-05-14T07:30:21Z</time>
      </trkpt>
      <trkpt lat="42.98575" lon="-0.23775">
        <ele>1484.8</ele>
        <time>2022-05-14T07:30:22Z</time>
      </trkpt>
      <trkpt lat="42.9858" lon="-0.23799">
        <ele>1483.4</ele>
        <time>2022-05-14T07:30:24Z</time>
      </trkpt>
      <trkpt lat="42.98583" lon="-0.23811">
        <ele>1482.2</ele>
        <time>2022-05-14T07:30:25Z</time>
      </trkpt>
      <trkpt lat="42.98588" lon="-0.23822">
        <ele>1481.8</ele>
        <time>2022-05-14T07:30:26Z</time>
      </trkpt>
      <trkpt lat="42.98592" lon="-0.23832">
        <ele>1480.8</ele>
        <time>2022-05-14T07:30:27Z</time>
      </trkpt>
      <trkpt lat="42.98601" lon="-0.23848">
        <ele>1480</ele>
        <time>2022-05-14T07:30:29Z</time>
      </trkpt>
      <trkpt lat="42.98605" lon="-0.23854">
        <ele>1479.6</ele>
        <time>2022-05-14T07:30:30Z</time>
      </trkpt>
      <trkpt lat="42.98622" lon="-0.23868">
        <ele>1477.4</ele>
        <time>2022-05-14T07:30:33Z</time>
      </trkpt>
      <trkpt lat="42.98634" lon="-0.23878">
        <ele>1476.4</ele>
        <time>2022-05-14T07:30:35Z</time>
      </trkpt>
      <trkpt lat="42.98646" lon="-0.23889">
        <ele>1475.6</ele>
        <time>2022-05-14T07:30:37Z</time>
      </trkpt>
      <trkpt lat="42.98655" lon="-0.23905">
        <ele>1475.2</ele>
        <time>2022-05-14T07:30:39Z</time>
      </trkpt>
      <trkpt lat="42.98659" lon="-0.23914">
        <ele>1474.8</ele>
        <time>2022-05-14T07:30:40Z</time>
      </trkpt>
      <trkpt lat="42.98661" lon="-0.23922">
        <ele>1474.6</ele>
        <time>2022-05-14T07:30:41Z</time>
      </trkpt>
      <trkpt lat="42.98664" lon="-0.23939">
        <ele>1474.2</ele>
        <time>2022-05-14T07:30:43Z</time>
      </trkpt>
      <trkpt lat="42.98665" lon="-0.23948">
        <ele>1473.4</ele>
        <time>2022-05-14T07:30:44Z</time>
      </trkpt>
      <trkpt lat="42.98664" lon="-0.23965">
        <ele>1472.6</ele>
        <time>2022-05-14T07:30:46Z</time>
      </trkpt>
      <trkpt lat="42.98663" lon="-0.23979">
        <ele>1472.2</ele>
        <time>2022-05-14T07:30:48Z</time>
      </trkpt>
      <trkpt lat="42.98659" lon="-0.24014">
        <ele>1471.4</ele>
        <time>2022-05-14T07:30:52Z</time>
      </trkpt>
      <trkpt lat="42.98657" lon="-0.24025">
        <ele>1471</ele>
        <time>2022-05-14T07:30:53Z</time>
      </trkpt>
      <trkpt lat="42.98654" lon="-0.24041">
        <ele>1470.8</ele>
        <time>2022-05-14T07:30:55Z</time>
      </trkpt>
      <trkpt lat="42.98647" lon="-0.24071">
        <ele>1469.8</ele>
        <time>2022-05-14T07:30:58Z</time>
      </trkpt>
      <trkpt lat="42.98642" lon="-0.2409">
        <ele>1469</ele>
        <time>2022-05-14T07:31:00Z</time>
      </trkpt>
      <trkpt lat="42.9864" lon="-0.24099">
        <ele>1468.4</ele>
        <time>2022-05-14T07:31:01Z</time>
      </trkpt>
      <trkpt lat="42.98639" lon="-0.24109">
        <ele>1468.2</ele>
        <time>2022-05-14T07:31:02Z</time>
      </trkpt>
      <trkpt lat="42.98638" lon="-0.2413">
        <ele>1467.4</ele>
        <time>2022-05-14T07:31:04Z</time>
      </trkpt>
      <trkpt lat="42.98637" lon="-0.24143">
        <ele>1466.8</ele>
        <time>2022-05-14T07:31:05Z</time>
      </trkpt>
      <trkpt lat="42.98636" lon="-0.24153">
        <ele>1466.2</ele>
        <time>2022-05-14T07:31:06Z</time>
      </trkpt>
      <trkpt lat="42.98633" lon="-0.24173">
        <ele>1465</ele>
        <time>2022-05-14T07:31:08Z</time>
      </trkpt>
      <trkpt lat="42.98631" lon="-0.24187">
        <ele>1464.2</ele>
        <time>2022-05-14T07:31:09Z</time>
      </trkpt>
      <trkpt lat="42.98629" lon="-0.24198">
        <ele>1463.2</ele>
        <time>2022-05-14T07:31:10Z</time>
      </trkpt>
      <trkpt lat="42.98628" lon="-0.24208">
        <ele>1462.6</ele>
        <time>2022-05-14T07:31:11Z</time>
      </trkpt>
      <trkpt lat="42.98628" lon="-0.24216">
        <ele>1461.8</ele>
        <time>2022-05-14T07:31:12Z</time>
      </trkpt>
      <trkpt lat="42.98627" lon="-0.24225">
        <ele>1461</ele>
        <time>2022-05-14T07:31:13Z</time>
      </trkpt>
      <trkpt lat="42.98627" lon="-0.24235">
        <ele>1460.2</ele>
        <time>2022-05-14T07:31:14Z</time>
      </trkpt>
      <trkpt lat="42.98628" lon="-0.24257">
        <ele>1459</ele>
        <time>2022-05-14T07:31:16Z</time>
      </trkpt>
      <trkpt lat="42.98627" lon="-0.24268">
        <ele>1458.8</ele>
        <time>2022-05-14T07:31:17Z</time>
      </trkpt>
      <trkpt lat="42.98624" lon="-0.24302">
        <ele>1457.8</ele>
        <time>2022-05-14T07:31:20Z</time>
      </trkpt>
      <trkpt lat="42.98623" lon="-0.24323">
        <ele>1456.4</ele>
        <time>2022-05-14T07:31:22Z</time>
      </trkpt>
      <trkpt lat="42.98622" lon="-0.24335">
        <ele>1454.6</ele>
        <time>2022-05-14T07:31:23Z</time>
      </trkpt>
      <trkpt lat="42.98621" lon="-0.24362">
        <ele>1453</ele>
        <time>2022-05-14T07:31:25Z</time>
      </trkpt>
      <trkpt lat="42.9862" lon="-0.24385">
        <ele>1451.8</ele>
        <time>2022-05-14T07:31:27Z</time>
      </trkpt>
      <trkpt lat="42.9862" lon="-0.24393">
        <ele>1451.4</ele>
        <time>2022-05-14T07:31:28Z</time>
      </trkpt>
      <trkpt lat="42.9862" lon="-0.24414">
        <ele>1450.4</ele>
        <time>2022-05-14T07:31:30Z</time>
      </trkpt>
      <trkpt lat="42.98621" lon="-0.24426">
        <ele>1450</ele>
        <time>2022-05-14T07:31:31Z</time>
      </trkpt>
      <trkpt lat="42.98621" lon="-0.24435">
        <ele>1450</ele>
        <time>2022-05-14T07:31:32Z</time>
      </trkpt>
      <trkpt lat="42.98622" lon="-0.24442">
        <ele>1449.4</ele>
        <time>2022-05-14T07:31:33Z</time>
      </trkpt>
      <trkpt lat="42.98623" lon="-0.24457">
        <ele>1448.8</ele>
        <time>2022-05-14T07:31:35Z</time>
      </trkpt>
      <trkpt lat="42.98624" lon="-0.24465">
        <ele>1448.8</ele>
        <time>2022-05-14T07:31:36Z</time>
      </trkpt>
      <trkpt lat="42.98625" lon="-0.24471">
        <ele>1448.6</ele>
        <time>2022-05-14T07:31:37Z</time>
      </trkpt>
      <trkpt lat="42.98625" lon="-0.24478">
        <ele>1448.4</ele>
        <time>2022-05-14T07:31:38Z</time>
      </trkpt>
      <trkpt lat="42.98626" lon="-0.2449">
        <ele>1448.2</ele>
        <time>2022-05-14T07:31:40Z</time>
      </trkpt>
      <trkpt lat="42.98631" lon="-0.24524">
        <ele>1448.6</ele>
        <time>2022-05-14T07:31:47Z</time>
      </trkpt>
      <trkpt lat="42.98632" lon="-0.24537">
        <ele>1449.4</ele>
        <time>2022-05-14T07:31:50Z</time>
      </trkpt>
      <trkpt lat="42.98632" lon="-0.24548">
        <ele>1449.8</ele>
        <time>2022-05-14T07:31:53Z</time>
      </trkpt>
      <trkpt lat="42.98632" lon="-0.24563">
        <ele>1450</ele>
        <time>2022-05-14T07:31:58Z</time>
      </trkpt>
      <trkpt lat="42.98631" lon="-0.24571">
        <ele>1450.4</ele>
        <time>2022-05-14T07:32:01Z</time>
      </trkpt>
      <trkpt lat="42.98626" lon="-0.24582">
        <ele>1451</ele>
        <time>2022-05-14T07:32:05Z</time>
      </trkpt>
      <trkpt lat="42.98616" lon="-0.24593">
        <ele>1451.4</ele>
        <time>2022-05-14T07:32:11Z</time>
      </trkpt>
      <trkpt lat="42.98614" lon="-0.24593">
        <ele>1451.6</ele>
        <time>2022-05-14T07:32:12Z</time>
      </trkpt>
      <trkpt lat="42.98596" lon="-0.246">
        <ele>1452.8</ele>
        <time>2022-05-14T07:32:20Z</time>
      </trkpt>
      <trkpt lat="42.98594" lon="-0.246">
        <ele>1453</ele>
        <time>2022-05-14T07:32:21Z</time>
      </trkpt>
      <trkpt lat="42.9858" lon="-0.24602">
        <ele>1453.8</ele>
        <time>2022-05-14T07:32:27Z</time>
      </trkpt>
      <trkpt lat="42.98575" lon="-0.24603">
        <ele>1454</ele>
        <time>2022-05-14T07:32:29Z</time>
      </trkpt>
      <trkpt lat="42.98561" lon="-0.24604">
        <ele>1454.8</ele>
        <time>2022-05-14T07:32:35Z</time>
      </trkpt>
      <trkpt lat="42.98549" lon="-0.24603">
        <ele>1455.4</ele>
        <time>2022-05-14T07:32:40Z</time>
      </trkpt>
      <trkpt lat="42.98545" lon="-0.24602">
        <ele>1455.8</ele>
        <time>2022-05-14T07:32:42Z</time>
      </trkpt>
      <trkpt lat="42.98534" lon="-0.24596">
        <ele>1456.4</ele>
        <time>2022-05-14T07:32:48Z</time>
      </trkpt>
      <trkpt lat="42.98527" lon="-0.2459">
        <ele>1457</ele>
        <time>2022-05-14T07:32:52Z</time>
      </trkpt>
      <trkpt lat="42.98523" lon="-0.24585">
        <ele>1457.4</ele>
        <time>2022-05-14T07:32:55Z</time>
      </trkpt>
      <trkpt lat="42.98521" lon="-0.24582">
        <ele>1458.2</ele>
        <time>2022-05-14T07:32:57Z</time>
      </trkpt>
      <trkpt lat="42.98517" lon="-0.24573">
        <ele>1459</ele>
        <time>2022-05-14T07:33:01Z</time>
      </trkpt>
      <trkpt lat="42.98515" lon="-0.24572">
        <ele>1459</ele>
        <time>2022-05-14T07:33:02Z</time>
      </trkpt>
      <trkpt lat="42.98514" lon="-0.2457">
        <ele>1459.4</ele>
        <time>2022-05-14T07:33:03Z</time>
      </trkpt>
      <trkpt lat="42.98505" lon="-0.24557">
        <ele>1460.4</ele>
        <time>2022-05-14T07:33:11Z</time>
      </trkpt>
      <trkpt lat="42.985" lon="-0.24548">
        <ele>1461.6</ele>
        <time>2022-05-14T07:33:17Z</time>
      </trkpt>
      <trkpt lat="42.98495" lon="-0.24541">
        <ele>1462.4</ele>
        <time>2022-05-14T07:33:22Z</time>
      </trkpt>
      <trkpt lat="42.98493" lon="-0.24538">
        <ele>1462.6</ele>
        <time>2022-05-14T07:33:24Z</time>
      </trkpt>
      <trkpt lat="42.98484" lon="-0.24529">
        <ele>1463.8</ele>
        <time>2022-05-14T07:33:31Z</time>
      </trkpt>
      <trkpt lat="42.98479" lon="-0.24523">
        <ele>1464.4</ele>
        <time>2022-05-14T07:33:35Z</time>
      </trkpt>
      <trkpt lat="42.98474" lon="-0.24517">
        <ele>1464.8</ele>
        <time>2022-05-14T07:33:39Z</time>
      </trkpt>
      <trkpt lat="42.98461" lon="-0.24504">
        <ele>1465.8</ele>
        <time>2022-05-14T07:33:47Z</time>
      </trkpt>
      <trkpt lat="42.98457" lon="-0.245">
        <ele>1466.2</ele>
        <time>2022-05-14T07:33:50Z</time>
      </trkpt>
      <trkpt lat="42.98443" lon="-0.24487">
        <ele>1466.6</ele>
        <time>2022-05-14T07:33:59Z</time>
      </trkpt>
      <trkpt lat="42.98437" lon="-0.24482">
        <ele>1466.8</ele>
        <time>2022-05-14T07:34:02Z</time>
      </trkpt>
      <trkpt lat="42.98426" lon="-0.24472">
        <ele>1467.2</ele>
        <time>2022-05-14T07:34:08Z</time>
      </trkpt>
      <trkpt lat="42.98413" lon="-0.24467">
        <ele>1467.8</ele>
        <time>2022-05-14T07:34:15Z</time>
      </trkpt>
      <trkpt lat="42.98404" lon="-0.24461">
        <ele>1468</ele>
        <time>2022-05-14T07:34:20Z</time>
      </trkpt>
      <trkpt lat="42.98394" lon="-0.24456">
        <ele>1468.8</ele>
        <time>2022-05-14T07:34:25Z</time>
      </trkpt>
      <trkpt lat="42.98387" lon="-0.24454">
        <ele>1469</ele>
        <time>2022-05-14T07:34:28Z</time>
      </trkpt>
      <trkpt lat="42.98372" lon="-0.2445">
        <ele>1469.6</ele>
        <time>2022-05-14T07:34:35Z</time>
      </trkpt>
      <trkpt lat="42.98359" lon="-0.24445">
        <ele>1470</ele>
        <time>2022-05-14T07:34:41Z</time>
      </trkpt>
      <trkpt lat="42.98355" lon="-0.24444">
        <ele>1470</ele>
        <time>2022-05-14T07:34:43Z</time>
      </trkpt>
      <trkpt lat="42.98335" lon="-0.24448">
        <ele>1470.6</ele>
        <time>2022-05-14T07:34:52Z</time>
      </trkpt>
      <trkpt lat="42.98324" lon="-0.24446">
        <ele>1471</ele>
        <time>2022-05-14T07:34:58Z</time>
      </trkpt>
      <trkpt lat="42.9832" lon="-0.24444">
        <ele>1471.2</ele>
        <time>2022-05-14T07:35:00Z</time>
      </trkpt>
      <trkpt lat="42.98306" lon="-0.24431">
        <ele>1471.4</ele>
        <time>2022-05-14T07:35:06Z</time>
      </trkpt>
      <trkpt lat="42.98293" lon="-0.24419">
        <ele>1471.4</ele>
        <time>2022-05-14T07:35:10Z</time>
      </trkpt>
      <trkpt lat="42.98283" lon="-0.2442">
        <ele>1471.8</ele>
        <time>2022-05-14T07:35:14Z</time>
      </trkpt>
      <trkpt lat="42.98275" lon="-0.24432">
        <ele>1472</ele>
        <time>2022-05-14T07:35:20Z</time>
      </trkpt>
      <trkpt lat="42.98266" lon="-0.24448">
        <ele>1473</ele>
        <time>2022-05-14T07:35:27Z</time>
      </trkpt>
      <trkpt lat="42.98265" lon="-0.24451">
        <ele>1473.2</ele>
        <time>2022-05-14T07:35:28Z</time>
      </trkpt>
      <trkpt lat="42.98253" lon="-0.24464">
        <ele>1473.8</ele>
        <time>2022-05-14T07:35:34Z</time>
      </trkpt>
      <trkpt lat="42.98248" lon="-0.2447">
        <ele>1474</ele>
        <time>2022-05-14T07:35:37Z</time>
      </trkpt>
      <trkpt lat="42.9824" lon="-0.24474">
        <ele>1474.2</ele>
        <time>2022-05-14T07:35:42Z</time>
      </trkpt>
      <trkpt lat="42.98229" lon="-0.24473">
        <ele>1475.2</ele>
        <time>2022-05-14T07:35:47Z</time>
      </trkpt>
      <trkpt lat="42.9822" lon="-0.24472">
        <ele>1475.4</ele>
        <time>2022-05-14T07:35:51Z</time>
      </trkpt>
      <trkpt lat="42.98208" lon="-0.24476">
        <ele>1476</ele>
        <time>2022-05-14T07:35:58Z</time>
      </trkpt>
      <trkpt lat="42.98196" lon="-0.24482">
        <ele>1477</ele>
        <time>2022-05-14T07:36:04Z</time>
      </trkpt>
      <trkpt lat="42.9819" lon="-0.24483">
        <ele>1477.4</ele>
        <time>2022-05-14T07:36:07Z</time>
      </trkpt>
      <trkpt lat="42.98182" lon="-0.24488">
        <ele>1478.2</ele>
        <time>2022-05-14T07:36:11Z</time>
      </trkpt>
      <trkpt lat="42.98173" lon="-0.24494">
        <ele>1478.4</ele>
        <time>2022-05-14T07:36:16Z</time>
      </trkpt>
      <trkpt lat="42.98156" lon="-0.24502">
        <ele>1479.2</ele>
        <time>2022-05-14T07:36:25Z</time>
      </trkpt>
      <trkpt lat="42.98141" lon="-0.24512">
        <ele>1480.2</ele>
        <time>2022-05-14T07:36:33Z</time>
      </trkpt>
      <trkpt lat="42.9814" lon="-0.24513">
        <ele>1480.4</ele>
        <time>2022-05-14T07:36:34Z</time>
      </trkpt>
      <trkpt lat="42.98129" lon="-0.24525">
        <ele>1481.2</ele>
        <time>2022-05-14T07:36:41Z</time>
      </trkpt>
      <trkpt lat="42.98128" lon="-0.24527">
        <ele>1481.4</ele>
        <time>2022-05-14T07:36:42Z</time>
      </trkpt>
      <trkpt lat="42.98126" lon="-0.24531">
        <ele>1481.8</ele>
        <time>2022-05-14T07:36:44Z</time>
      </trkpt>
      <trkpt lat="42.98119" lon="-0.2454">
        <ele>1482.2</ele>
        <time>2022-05-14T07:36:49Z</time>
      </trkpt>
      <trkpt lat="42.98116" lon="-0.24544">
        <ele>1482.4</ele>
        <time>2022-05-14T07:36:51Z</time>
      </trkpt>
      <trkpt lat="42.98113" lon="-0.2455">
        <ele>1483.2</ele>
        <time>2022-05-14T07:36:54Z</time>
      </trkpt>
      <trkpt lat="42.9811" lon="-0.24556">
        <ele>1483.8</ele>
        <time>2022-05-14T07:36:57Z</time>
      </trkpt>
      <trkpt lat="42.98107" lon="-0.24562">
        <ele>1484.6</ele>
        <time>2022-05-14T07:37:00Z</time>
      </trkpt>
      <trkpt lat="42.98103" lon="-0.24569">
        <ele>1484.8</ele>
        <time>2022-05-14T07:37:04Z</time>
      </trkpt>
      <trkpt lat="42.98094" lon="-0.24582">
        <ele>1485.6</ele>
        <time>2022-05-14T07:37:11Z</time>
      </trkpt>
      <trkpt lat="42.98091" lon="-0.24585">
        <ele>1485.8</ele>
        <time>2022-05-14T07:37:13Z</time>
      </trkpt>
      <trkpt lat="42.98084" lon="-0.24594">
        <ele>1486.6</ele>
        <time>2022-05-14T07:37:18Z</time>
      </trkpt>
      <trkpt lat="42.9808" lon="-0.246">
        <ele>1486.8</ele>
        <time>2022-05-14T07:37:21Z</time>
      </trkpt>
      <trkpt lat="42.98074" lon="-0.24615">
        <ele>1487.4</ele>
        <time>2022-05-14T07:37:29Z</time>
      </trkpt>
      <trkpt lat="42.98073" lon="-0.24617">
        <ele>1487.6</ele>
        <time>2022-05-14T07:37:30Z</time>
      </trkpt>
      <trkpt lat="42.98069" lon="-0.2463">
        <ele>1488.2</ele>
        <time>2022-05-14T07:37:36Z</time>
      </trkpt>
      <trkpt lat="42.98069" lon="-0.24637">
        <ele>1488.6</ele>
        <time>2022-05-14T07:37:39Z</time>
      </trkpt>
      <trkpt lat="42.98067" lon="-0.24652">
        <ele>1489.4</ele>
        <time>2022-05-14T07:37:45Z</time>
      </trkpt>
      <trkpt lat="42.98067" lon="-0.24656">
        <ele>1489.8</ele>
        <time>2022-05-14T07:37:47Z</time>
      </trkpt>
      <trkpt lat="42.98065" lon="-0.2467">
        <ele>1491</ele>
        <time>2022-05-14T07:37:54Z</time>
      </trkpt>
      <trkpt lat="42.98065" lon="-0.24687">
        <ele>1492.2</ele>
        <time>2022-05-14T07:38:02Z</time>
      </trkpt>
      <trkpt lat="42.98065" lon="-0.24689">
        <ele>1492.4</ele>
        <time>2022-05-14T07:38:03Z</time>
      </trkpt>
      <trkpt lat="42.98066" lon="-0.24694">
        <ele>1493.2</ele>
        <time>2022-05-14T07:38:06Z</time>
      </trkpt>
      <trkpt lat="42.98064" lon="-0.24703">
        <ele>1494</ele>
        <time>2022-05-14T07:38:11Z</time>
      </trkpt>
      <trkpt lat="42.98061" lon="-0.24704">
        <ele>1494.4</ele>
        <time>2022-05-14T07:38:13Z</time>
      </trkpt>
      <trkpt lat="42.98058" lon="-0.24704">
        <ele>1494.6</ele>
        <time>2022-05-14T07:38:15Z</time>
      </trkpt>
      <trkpt lat="42.98057" lon="-0.24703">
        <ele>1494.6</ele>
        <time>2022-05-14T07:38:16Z</time>
      </trkpt>
      <trkpt lat="42.98055" lon="-0.24693">
        <ele>1495.4</ele>
        <time>2022-05-14T07:38:21Z</time>
      </trkpt>
      <trkpt lat="42.98056" lon="-0.24691">
        <ele>1495.6</ele>
        <time>2022-05-14T07:38:22Z</time>
      </trkpt>
      <trkpt lat="42.98054" lon="-0.24676">
        <ele>1496.4</ele>
        <time>2022-05-14T07:38:30Z</time>
      </trkpt>
      <trkpt lat="42.98053" lon="-0.24672">
        <ele>1496.6</ele>
        <time>2022-05-14T07:38:32Z</time>
      </trkpt>
      <trkpt lat="42.9805" lon="-0.24658">
        <ele>1497.6</ele>
        <time>2022-05-14T07:38:40Z</time>
      </trkpt>
      <trkpt lat="42.9805" lon="-0.24656">
        <ele>1497.8</ele>
        <time>2022-05-14T07:38:41Z</time>
      </trkpt>
      <trkpt lat="42.98048" lon="-0.24644">
        <ele>1498.6</ele>
        <time>2022-05-14T07:38:47Z</time>
      </trkpt>
      <trkpt lat="42.98047" lon="-0.24638">
        <ele>1498.8</ele>
        <time>2022-05-14T07:38:50Z</time>
      </trkpt>
      <trkpt lat="42.98046" lon="-0.24625">
        <ele>1500</ele>
        <time>2022-05-14T07:38:56Z</time>
      </trkpt>
      <trkpt lat="42.98046" lon="-0.24606">
        <ele>1501</ele>
        <time>2022-05-14T07:39:04Z</time>
      </trkpt>
      <trkpt lat="42.98049" lon="-0.24586">
        <ele>1502</ele>
        <time>2022-05-14T07:39:12Z</time>
      </trkpt>
      <trkpt lat="42.9805" lon="-0.24583">
        <ele>1502.2</ele>
        <time>2022-05-14T07:39:13Z</time>
      </trkpt>
      <trkpt lat="42.98059" lon="-0.24558">
        <ele>1502.8</ele>
        <time>2022-05-14T07:39:24Z</time>
      </trkpt>
      <trkpt lat="42.98064" lon="-0.24552">
        <ele>1503.2</ele>
        <time>2022-05-14T07:39:28Z</time>
      </trkpt>
      <trkpt lat="42.98066" lon="-0.24546">
        <ele>1503.6</ele>
        <time>2022-05-14T07:39:31Z</time>
      </trkpt>
      <trkpt lat="42.98068" lon="-0.24534">
        <ele>1504.2</ele>
        <time>2022-05-14T07:39:37Z</time>
      </trkpt>
      <trkpt lat="42.98068" lon="-0.24525">
        <ele>1504.4</ele>
        <time>2022-05-14T07:39:41Z</time>
      </trkpt>
      <trkpt lat="42.98063" lon="-0.24513">
        <ele>1505.2</ele>
        <time>2022-05-14T07:39:47Z</time>
      </trkpt>
      <trkpt lat="42.98058" lon="-0.24501">
        <ele>1506.2</ele>
        <time>2022-05-14T07:39:53Z</time>
      </trkpt>
      <trkpt lat="42.98057" lon="-0.24495">
        <ele>1506.6</ele>
        <time>2022-05-14T07:39:56Z</time>
      </trkpt>
      <trkpt lat="42.98058" lon="-0.24481">
        <ele>1507.4</ele>
        <time>2022-05-14T07:40:02Z</time>
      </trkpt>
      <trkpt lat="42.98058" lon="-0.24479">
        <ele>1507.4</ele>
        <time>2022-05-14T07:40:03Z</time>
      </trkpt>
      <trkpt lat="42.98067" lon="-0.24467">
        <ele>1507.8</ele>
        <time>2022-05-14T07:40:10Z</time>
      </trkpt>
      <trkpt lat="42.98073" lon="-0.24462">
        <ele>1508.4</ele>
        <time>2022-05-14T07:40:15Z</time>
      </trkpt>
      <trkpt lat="42.98079" lon="-0.24459">
        <ele>1508.8</ele>
        <time>2022-05-14T07:40:19Z</time>
      </trkpt>
      <trkpt lat="42.98086" lon="-0.24453">
        <ele>1509.6</ele>
        <time>2022-05-14T07:40:24Z</time>
      </trkpt>
      <trkpt lat="42.98092" lon="-0.2445">
        <ele>1510</ele>
        <time>2022-05-14T07:40:28Z</time>
      </trkpt>
      <trkpt lat="42.98103" lon="-0.24443">
        <ele>1510.6</ele>
        <time>2022-05-14T07:40:36Z</time>
      </trkpt>
      <trkpt lat="42.98114" lon="-0.24438">
        <ele>1511.6</ele>
        <time>2022-05-14T07:40:43Z</time>
      </trkpt>
      <trkpt lat="42.98117" lon="-0.24437">
        <ele>1512</ele>
        <time>2022-05-14T07:40:45Z</time>
      </trkpt>
      <trkpt lat="42.98124" lon="-0.24434">
        <ele>1512.6</ele>
        <time>2022-05-14T07:40:50Z</time>
      </trkpt>
      <trkpt lat="42.9813" lon="-0.2443">
        <ele>1513.4</ele>
        <time>2022-05-14T07:40:54Z</time>
      </trkpt>
      <trkpt lat="42.98132" lon="-0.24429">
        <ele>1513.6</ele>
        <time>2022-05-14T07:40:55Z</time>
      </trkpt>
      <trkpt lat="42.9814" lon="-0.24419">
        <ele>1514.8</ele>
        <time>2022-05-14T07:41:02Z</time>
      </trkpt>
      <trkpt lat="42.98141" lon="-0.24417">
        <ele>1514.8</ele>
        <time>2022-05-14T07:41:03Z</time>
      </trkpt>
      <trkpt lat="42.98143" lon="-0.24397">
        <ele>1515.6</ele>
        <time>2022-05-14T07:41:11Z</time>
      </trkpt>
      <trkpt lat="42.98142" lon="-0.24391">
        <ele>1515.8</ele>
        <time>2022-05-14T07:41:13Z</time>
      </trkpt>
      <trkpt lat="42.98143" lon="-0.24378">
        <ele>1516.2</ele>
        <time>2022-05-14T07:41:18Z</time>
      </trkpt>
      <trkpt lat="42.98145" lon="-0.24374">
        <ele>1516.2</ele>
        <time>2022-05-14T07:41:20Z</time>
      </trkpt>
      <trkpt lat="42.9815" lon="-0.24363">
        <ele>1517</ele>
        <time>2022-05-14T07:41:26Z</time>
      </trkpt>
      <trkpt lat="42.98154" lon="-0.24358">
        <ele>1517.2</ele>
        <time>2022-05-14T07:41:29Z</time>
      </trkpt>
      <trkpt lat="42.98162" lon="-0.24348">
        <ele>1518</ele>
        <time>2022-05-14T07:41:36Z</time>
      </trkpt>
      <trkpt lat="42.98165" lon="-0.24343">
        <ele>1518.4</ele>
        <time>2022-05-14T07:41:39Z</time>
      </trkpt>
      <trkpt lat="42.98172" lon="-0.24334">
        <ele>1518.8</ele>
        <time>2022-05-14T07:41:46Z</time>
      </trkpt>
      <trkpt lat="42.98175" lon="-0.24332">
        <ele>1519.2</ele>
        <time>2022-05-14T07:41:48Z</time>
      </trkpt>
      <trkpt lat="42.98181" lon="-0.24327">
        <ele>1520</ele>
        <time>2022-05-14T07:41:53Z</time>
      </trkpt>
      <trkpt lat="42.9819" lon="-0.24321">
        <ele>1521</ele>
        <time>2022-05-14T07:42:00Z</time>
      </trkpt>
      <trkpt lat="42.98191" lon="-0.2432">
        <ele>1521</ele>
        <time>2022-05-14T07:42:01Z</time>
      </trkpt>
      <trkpt lat="42.98202" lon="-0.24309">
        <ele>1521.8</ele>
        <time>2022-05-14T07:42:09Z</time>
      </trkpt>
      <trkpt lat="42.98204" lon="-0.24308">
        <ele>1522</ele>
        <time>2022-05-14T07:42:10Z</time>
      </trkpt>
      <trkpt lat="42.98216" lon="-0.24293">
        <ele>1522.8</ele>
        <time>2022-05-14T07:42:18Z</time>
      </trkpt>
      <trkpt lat="42.98221" lon="-0.24285">
        <ele>1523</ele>
        <time>2022-05-14T07:42:22Z</time>
      </trkpt>
      <trkpt lat="42.98227" lon="-0.24271">
        <ele>1523.6</ele>
        <time>2022-05-14T07:42:28Z</time>
      </trkpt>
      <trkpt lat="42.9823" lon="-0.24261">
        <ele>1524.2</ele>
        <time>2022-05-14T07:42:32Z</time>
      </trkpt>
      <trkpt lat="42.98232" lon="-0.24249">
        <ele>1524.4</ele>
        <time>2022-05-14T07:42:37Z</time>
      </trkpt>
      <trkpt lat="42.98234" lon="-0.24239">
        <ele>1525.2</ele>
        <time>2022-05-14T07:42:42Z</time>
      </trkpt>
      <trkpt lat="42.98236" lon="-0.24227">
        <ele>1525.6</ele>
        <time>2022-05-14T07:42:47Z</time>
      </trkpt>
      <trkpt lat="42.98238" lon="-0.24216">
        <ele>1526.2</ele>
        <time>2022-05-14T07:42:52Z</time>
      </trkpt>
      <trkpt lat="42.98241" lon="-0.24207">
        <ele>1526.8</ele>
        <time>2022-05-14T07:42:56Z</time>
      </trkpt>
      <trkpt lat="42.98247" lon="-0.24195">
        <ele>1527.4</ele>
        <time>2022-05-14T07:43:02Z</time>
      </trkpt>
      <trkpt lat="42.9825" lon="-0.24189">
        <ele>1527.8</ele>
        <time>2022-05-14T07:43:05Z</time>
      </trkpt>
      <trkpt lat="42.98253" lon="-0.24181">
        <ele>1528.4</ele>
        <time>2022-05-14T07:43:09Z</time>
      </trkpt>
      <trkpt lat="42.98255" lon="-0.24176">
        <ele>1529</ele>
        <time>2022-05-14T07:43:12Z</time>
      </trkpt>
      <trkpt lat="42.98256" lon="-0.24173">
        <ele>1529.4</ele>
        <time>2022-05-14T07:43:14Z</time>
      </trkpt>
      <trkpt lat="42.9826" lon="-0.24166">
        <ele>1530</ele>
        <time>2022-05-14T07:43:19Z</time>
      </trkpt>
      <trkpt lat="42.98263" lon="-0.24158">
        <ele>1530.4</ele>
        <time>2022-05-14T07:43:24Z</time>
      </trkpt>
      <trkpt lat="42.98265" lon="-0.24153">
        <ele>1531</ele>
        <time>2022-05-14T07:43:27Z</time>
      </trkpt>
      <trkpt lat="42.98266" lon="-0.24147">
        <ele>1531.6</ele>
        <time>2022-05-14T07:43:30Z</time>
      </trkpt>
      <trkpt lat="42.9827" lon="-0.2414">
        <ele>1531.8</ele>
        <time>2022-05-14T07:43:34Z</time>
      </trkpt>
      <trkpt lat="42.98274" lon="-0.24134">
        <ele>1532.8</ele>
        <time>2022-05-14T07:43:38Z</time>
      </trkpt>
      <trkpt lat="42.98276" lon="-0.24128">
        <ele>1533.2</ele>
        <time>2022-05-14T07:43:42Z</time>
      </trkpt>
      <trkpt lat="42.98278" lon="-0.24118">
        <ele>1533.8</ele>
        <time>2022-05-14T07:43:48Z</time>
      </trkpt>
      <trkpt lat="42.98277" lon="-0.24116">
        <ele>1534</ele>
        <time>2022-05-14T07:43:49Z</time>
      </trkpt>
      <trkpt lat="42.98277" lon="-0.24116">
        <ele>1534</ele>
        <time>2022-05-14T07:43:50Z</time>
      </trkpt>
      <trkpt lat="42.98273" lon="-0.24115">
        <ele>1534.4</ele>
        <time>2022-05-14T07:43:53Z</time>
      </trkpt>
      <trkpt lat="42.9827" lon="-0.24119">
        <ele>1534.6</ele>
        <time>2022-05-14T07:43:55Z</time>
      </trkpt>
      <trkpt lat="42.9826" lon="-0.24138">
        <ele>1534.8</ele>
        <time>2022-05-14T07:44:02Z</time>
      </trkpt>
      <trkpt lat="42.9825" lon="-0.2416">
        <ele>1534.4</ele>
        <time>2022-05-14T07:44:10Z</time>
      </trkpt>
      <trkpt lat="42.98243" lon="-0.24175">
        <ele>1534.4</ele>
        <time>2022-05-14T07:44:16Z</time>
      </trkpt>
      <trkpt lat="42.98236" lon="-0.24189">
        <ele>1534.6</ele>
        <time>2022-05-14T07:44:23Z</time>
      </trkpt>
      <trkpt lat="42.98227" lon="-0.24212">
        <ele>1534.2</ele>
        <time>2022-05-14T07:44:29Z</time>
      </trkpt>
      <trkpt lat="42.98219" lon="-0.24247">
        <ele>1533.8</ele>
        <time>2022-05-14T07:44:35Z</time>
      </trkpt>
      <trkpt lat="42.98216" lon="-0.24254">
        <ele>1533.6</ele>
        <time>2022-05-14T07:44:36Z</time>
      </trkpt>
      <trkpt lat="42.98206" lon="-0.24275">
        <ele>1533.2</ele>
        <time>2022-05-14T07:44:39Z</time>
      </trkpt>
      <trkpt lat="42.98201" lon="-0.24282">
        <ele>1533</ele>
        <time>2022-05-14T07:44:40Z</time>
      </trkpt>
      <trkpt lat="42.98191" lon="-0.24293">
        <ele>1532.2</ele>
        <time>2022-05-14T07:44:42Z</time>
      </trkpt>
      <trkpt lat="42.98181" lon="-0.24304">
        <ele>1531.8</ele>
        <time>2022-05-14T07:44:44Z</time>
      </trkpt>
      <trkpt lat="42.98166" lon="-0.24318">
        <ele>1531.2</ele>
        <time>2022-05-14T07:44:47Z</time>
      </trkpt>
      <trkpt lat="42.98151" lon="-0.24333">
        <ele>1531</ele>
        <time>2022-05-14T07:44:50Z</time>
      </trkpt>
      <trkpt lat="42.98118" lon="-0.24371">
        <ele>1530</ele>
        <time>2022-05-14T07:44:57Z</time>
      </trkpt>
      <trkpt lat="42.98109" lon="-0.24383">
        <ele>1529.6</ele>
        <time>2022-05-14T07:44:59Z</time>
      </trkpt>
      <trkpt lat="42.98093" lon="-0.24397">
        <ele>1529</ele>
        <time>2022-05-14T07:45:02Z</time>
      </trkpt>
      <trkpt lat="42.98088" lon="-0.24401">
        <ele>1528.8</ele>
        <time>2022-05-14T07:45:03Z</time>
      </trkpt>
      <trkpt lat="42.98063" lon="-0.24417">
        <ele>1528</ele>
        <time>2022-05-14T07:45:07Z</time>
      </trkpt>
      <trkpt lat="42.98051" lon="-0.24427">
        <ele>1527.4</ele>
        <time>2022-05-14T07:45:09Z</time>
      </trkpt>
      <trkpt lat="42.98046" lon="-0.24433">
        <ele>1526.8</ele>
        <time>2022-05-14T07:45:10Z</time>
      </trkpt>
      <trkpt lat="42.98026" lon="-0.24466">
        <ele>1526</ele>
        <time>2022-05-14T07:45:15Z</time>
      </trkpt>
      <trkpt lat="42.98023" lon="-0.24475">
        <ele>1525.6</ele>
        <time>2022-05-14T07:45:16Z</time>
      </trkpt>
      <trkpt lat="42.98022" lon="-0.24483">
        <ele>1525.4</ele>
        <time>2022-05-14T07:45:17Z</time>
      </trkpt>
      <trkpt lat="42.98021" lon="-0.24492">
        <ele>1525.2</ele>
        <time>2022-05-14T07:45:18Z</time>
      </trkpt>
      <trkpt lat="42.98021" lon="-0.24511">
        <ele>1524.8</ele>
        <time>2022-05-14T07:45:20Z</time>
      </trkpt>
      <trkpt lat="42.98022" lon="-0.24521">
        <ele>1524.2</ele>
        <time>2022-05-14T07:45:21Z</time>
      </trkpt>
      <trkpt lat="42.98024" lon="-0.2454">
        <ele>1523.8</ele>
        <time>2022-05-14T07:45:23Z</time>
      </trkpt>
      <trkpt lat="42.98021" lon="-0.24575">
        <ele>1523.2</ele>
        <time>2022-05-14T07:45:27Z</time>
      </trkpt>
      <trkpt lat="42.9802" lon="-0.24591">
        <ele>1523</ele>
        <time>2022-05-14T07:45:29Z</time>
      </trkpt>
      <trkpt lat="42.98016" lon="-0.24622">
        <ele>1522.4</ele>
        <time>2022-05-14T07:45:33Z</time>
      </trkpt>
      <trkpt lat="42.98012" lon="-0.24638">
        <ele>1522.2</ele>
        <time>2022-05-14T07:45:35Z</time>
      </trkpt>
      <trkpt lat="42.98011" lon="-0.24646">
        <ele>1522.2</ele>
        <time>2022-05-14T07:45:36Z</time>
      </trkpt>
      <trkpt lat="42.98009" lon="-0.24653">
        <ele>1522.2</ele>
        <time>2022-05-14T07:45:37Z</time>
      </trkpt>
      <trkpt lat="42.98002" lon="-0.24665">
        <ele>1522</ele>
        <time>2022-05-14T07:45:39Z</time>
      </trkpt>
      <trkpt lat="42.97986" lon="-0.24677">
        <ele>1521.6</ele>
        <time>2022-05-14T07:45:43Z</time>
      </trkpt>
      <trkpt lat="42.97975" lon="-0.24687">
        <ele>1521</ele>
        <time>2022-05-14T07:45:46Z</time>
      </trkpt>
      <trkpt lat="42.97961" lon="-0.24695">
        <ele>1520.8</ele>
        <time>2022-05-14T07:45:49Z</time>
      </trkpt>
      <trkpt lat="42.97945" lon="-0.24701">
        <ele>1520.6</ele>
        <time>2022-05-14T07:45:52Z</time>
      </trkpt>
      <trkpt lat="42.97933" lon="-0.24703">
        <ele>1520.4</ele>
        <time>2022-05-14T07:45:54Z</time>
      </trkpt>
      <trkpt lat="42.97919" lon="-0.24708">
        <ele>1519.8</ele>
        <time>2022-05-14T07:45:57Z</time>
      </trkpt>
      <trkpt lat="42.97907" lon="-0.24712">
        <ele>1519.2</ele>
        <time>2022-05-14T07:45:59Z</time>
      </trkpt>
      <trkpt lat="42.97903" lon="-0.24714">
        <ele>1519.2</ele>
        <time>2022-05-14T07:46:00Z</time>
      </trkpt>
      <trkpt lat="42.97897" lon="-0.24718">
        <ele>1519</ele>
        <time>2022-05-14T07:46:01Z</time>
      </trkpt>
      <trkpt lat="42.97885" lon="-0.24731">
        <ele>1519</ele>
        <time>2022-05-14T07:46:04Z</time>
      </trkpt>
      <trkpt lat="42.97866" lon="-0.24747">
        <ele>1518.8</ele>
        <time>2022-05-14T07:46:08Z</time>
      </trkpt>
      <trkpt lat="42.97852" lon="-0.2476">
        <ele>1518.4</ele>
        <time>2022-05-14T07:46:11Z</time>
      </trkpt>
      <trkpt lat="42.97847" lon="-0.24763">
        <ele>1518.2</ele>
        <time>2022-05-14T07:46:12Z</time>
      </trkpt>
      <trkpt lat="42.97833" lon="-0.24772">
        <ele>1518</ele>
        <time>2022-05-14T07:46:15Z</time>
      </trkpt>
      <trkpt lat="42.97828" lon="-0.24774">
        <ele>1518</ele>
        <time>2022-05-14T07:46:16Z</time>
      </trkpt>
      <trkpt lat="42.97823" lon="-0.24775">
        <ele>1518</ele>
        <time>2022-05-14T07:46:17Z</time>
      </trkpt>
      <trkpt lat="42.97807" lon="-0.24774">
        <ele>1517.8</ele>
        <time>2022-05-14T07:46:20Z</time>
      </trkpt>
      <trkpt lat="42.97801" lon="-0.24773">
        <ele>1517.6</ele>
        <time>2022-05-14T07:46:21Z</time>
      </trkpt>
      <trkpt lat="42.97772" lon="-0.24759">
        <ele>1516.6</ele>
        <time>2022-05-14T07:46:26Z</time>
      </trkpt>
      <trkpt lat="42.97767" lon="-0.24757">
        <ele>1516.2</ele>
        <time>2022-05-14T07:46:27Z</time>
      </trkpt>
      <trkpt lat="42.97762" lon="-0.24754">
        <ele>1516</ele>
        <time>2022-05-14T07:46:28Z</time>
      </trkpt>
      <trkpt lat="42.97753" lon="-0.24742">
        <ele>1515.6</ele>
        <time>2022-05-14T07:46:30Z</time>
      </trkpt>
      <trkpt lat="42.9775" lon="-0.24735">
        <ele>1515.2</ele>
        <time>2022-05-14T07:46:31Z</time>
      </trkpt>
      <trkpt lat="42.97745" lon="-0.24721">
        <ele>1514.8</ele>
        <time>2022-05-14T07:46:33Z</time>
      </trkpt>
      <trkpt lat="42.9774" lon="-0.24714">
        <ele>1514.6</ele>
        <time>2022-05-14T07:46:34Z</time>
      </trkpt>
      <trkpt lat="42.97736" lon="-0.24709">
        <ele>1514.4</ele>
        <time>2022-05-14T07:46:35Z</time>
      </trkpt>
      <trkpt lat="42.97726" lon="-0.24701">
        <ele>1514.2</ele>
        <time>2022-05-14T07:46:37Z</time>
      </trkpt>
      <trkpt lat="42.9772" lon="-0.24699">
        <ele>1513.8</ele>
        <time>2022-05-14T07:46:38Z</time>
      </trkpt>
      <trkpt lat="42.97698" lon="-0.24694">
        <ele>1513</ele>
        <time>2022-05-14T07:46:42Z</time>
      </trkpt>
      <trkpt lat="42.97675" lon="-0.24689">
        <ele>1512.2</ele>
        <time>2022-05-14T07:46:46Z</time>
      </trkpt>
      <trkpt lat="42.97652" lon="-0.24689">
        <ele>1511.8</ele>
        <time>2022-05-14T07:46:50Z</time>
      </trkpt>
      <trkpt lat="42.97641" lon="-0.24691">
        <ele>1511.4</ele>
        <time>2022-05-14T07:46:52Z</time>
      </trkpt>
      <trkpt lat="42.97636" lon="-0.24694">
        <ele>1511.2</ele>
        <time>2022-05-14T07:46:53Z</time>
      </trkpt>
      <trkpt lat="42.9763" lon="-0.24698">
        <ele>1510.8</ele>
        <time>2022-05-14T07:46:54Z</time>
      </trkpt>
      <trkpt lat="42.97625" lon="-0.24703">
        <ele>1510.4</ele>
        <time>2022-05-14T07:46:55Z</time>
      </trkpt>
      <trkpt lat="42.97615" lon="-0.24714">
        <ele>1510.2</ele>
        <time>2022-05-14T07:46:57Z</time>
      </trkpt>
      <trkpt lat="42.97607" lon="-0.24723">
        <ele>1510</ele>
        <time>2022-05-14T07:46:59Z</time>
      </trkpt>
      <trkpt lat="42.97595" lon="-0.24732">
        <ele>1509.8</ele>
        <time>2022-05-14T07:47:02Z</time>
      </trkpt>
      <trkpt lat="42.97577" lon="-0.24743">
        <ele>1510</ele>
        <time>2022-05-14T07:47:08Z</time>
      </trkpt>
      <trkpt lat="42.97555" lon="-0.24755">
        <ele>1510.8</ele>
        <time>2022-05-14T07:47:15Z</time>
      </trkpt>
      <trkpt lat="42.97534" lon="-0.24758">
        <ele>1510.4</ele>
        <time>2022-05-14T07:47:20Z</time>
      </trkpt>
      <trkpt lat="42.97524" lon="-0.24744">
        <ele>1510.4</ele>
        <time>2022-05-14T07:47:24Z</time>
      </trkpt>
      <trkpt lat="42.97511" lon="-0.24728">
        <ele>1510.4</ele>
        <time>2022-05-14T07:47:30Z</time>
      </trkpt>
      <trkpt lat="42.97499" lon="-0.24727">
        <ele>1510.4</ele>
        <time>2022-05-14T07:47:35Z</time>
      </trkpt>
      <trkpt lat="42.97477" lon="-0.24732">
        <ele>1510.8</ele>
        <time>2022-05-14T07:47:44Z</time>
      </trkpt>
      <trkpt lat="42.97467" lon="-0.24732">
        <ele>1511.2</ele>
        <time>2022-05-14T07:47:50Z</time>
      </trkpt>
      <trkpt lat="42.97453" lon="-0.24733">
        <ele>1511.8</ele>
        <time>2022-05-14T07:47:57Z</time>
      </trkpt>
      <trkpt lat="42.9745" lon="-0.24733">
        <ele>1511.8</ele>
        <time>2022-05-14T07:47:58Z</time>
      </trkpt>
      <trkpt lat="42.97438" lon="-0.24737">
        <ele>1512.8</ele>
        <time>2022-05-14T07:48:04Z</time>
      </trkpt>
      <trkpt lat="42.97432" lon="-0.24739">
        <ele>1513.4</ele>
        <time>2022-05-14T07:48:08Z</time>
      </trkpt>
      <trkpt lat="42.97428" lon="-0.24741">
        <ele>1513.8</ele>
        <time>2022-05-14T07:48:11Z</time>
      </trkpt>
      <trkpt lat="42.97421" lon="-0.24746">
        <ele>1515</ele>
        <time>2022-05-14T07:48:16Z</time>
      </trkpt>
      <trkpt lat="42.97415" lon="-0.24751">
        <ele>1516</ele>
        <time>2022-05-14T07:48:21Z</time>
      </trkpt>
      <trkpt lat="42.97412" lon="-0.24752">
        <ele>1516.2</ele>
        <time>2022-05-14T07:48:23Z</time>
      </trkpt>
      <trkpt lat="42.97403" lon="-0.24758">
        <ele>1517</ele>
        <time>2022-05-14T07:48:30Z</time>
      </trkpt>
      <trkpt lat="42.97402" lon="-0.24758">
        <ele>1517.2</ele>
        <time>2022-05-14T07:48:31Z</time>
      </trkpt>
      <trkpt lat="42.97396" lon="-0.24759">
        <ele>1518</ele>
        <time>2022-05-14T07:48:36Z</time>
      </trkpt>
      <trkpt lat="42.97391" lon="-0.24759">
        <ele>1518.6</ele>
        <time>2022-05-14T07:48:39Z</time>
      </trkpt>
      <trkpt lat="42.97382" lon="-0.24759">
        <ele>1519.2</ele>
        <time>2022-05-14T07:48:45Z</time>
      </trkpt>
      <trkpt lat="42.97377" lon="-0.24759">
        <ele>1519.6</ele>
        <time>2022-05-14T07:48:48Z</time>
      </trkpt>
      <trkpt lat="42.97369" lon="-0.24757">
        <ele>1520.2</ele>
        <time>2022-05-14T07:48:54Z</time>
      </trkpt>
      <trkpt lat="42.97364" lon="-0.24756">
        <ele>1520.8</ele>
        <time>2022-05-14T07:48:58Z</time>
      </trkpt>
      <trkpt lat="42.9736" lon="-0.24756">
        <ele>1521.2</ele>
        <time>2022-05-14T07:49:01Z</time>
      </trkpt>
      <trkpt lat="42.97351" lon="-0.24756">
        <ele>1522.2</ele>
        <time>2022-05-14T07:49:08Z</time>
      </trkpt>
      <trkpt lat="42.9735" lon="-0.24756">
        <ele>1522.4</ele>
        <time>2022-05-14T07:49:09Z</time>
      </trkpt>
      <trkpt lat="42.97348" lon="-0.24757">
        <ele>1522.8</ele>
        <time>2022-05-14T07:49:11Z</time>
      </trkpt>
      <trkpt lat="42.97344" lon="-0.2476">
        <ele>1523.4</ele>
        <time>2022-05-14T07:49:15Z</time>
      </trkpt>
      <trkpt lat="42.97338" lon="-0.2476">
        <ele>1524</ele>
        <time>2022-05-14T07:49:19Z</time>
      </trkpt>
      <trkpt lat="42.97334" lon="-0.24761">
        <ele>1524.6</ele>
        <time>2022-05-14T07:49:22Z</time>
      </trkpt>
      <trkpt lat="42.97324" lon="-0.24764">
        <ele>1525.2</ele>
        <time>2022-05-14T07:49:29Z</time>
      </trkpt>
      <trkpt lat="42.97321" lon="-0.24765">
        <ele>1525.6</ele>
        <time>2022-05-14T07:49:31Z</time>
      </trkpt>
      <trkpt lat="42.97313" lon="-0.24769">
        <ele>1526.2</ele>
        <time>2022-05-14T07:49:36Z</time>
      </trkpt>
      <trkpt lat="42.97304" lon="-0.24772">
        <ele>1526.6</ele>
        <time>2022-05-14T07:49:41Z</time>
      </trkpt>
      <trkpt lat="42.97301" lon="-0.24774">
        <ele>1526.8</ele>
        <time>2022-05-14T07:49:43Z</time>
      </trkpt>
      <trkpt lat="42.97292" lon="-0.24783">
        <ele>1527.4</ele>
        <time>2022-05-14T07:49:50Z</time>
      </trkpt>
      <trkpt lat="42.97289" lon="-0.24786">
        <ele>1527.6</ele>
        <time>2022-05-14T07:49:52Z</time>
      </trkpt>
      <trkpt lat="42.97282" lon="-0.24796">
        <ele>1528.4</ele>
        <time>2022-05-14T07:49:58Z</time>
      </trkpt>
      <trkpt lat="42.9728" lon="-0.248">
        <ele>1528.8</ele>
        <time>2022-05-14T07:50:00Z</time>
      </trkpt>
      <trkpt lat="42.97272" lon="-0.24816">
        <ele>1529.6</ele>
        <time>2022-05-14T07:50:08Z</time>
      </trkpt>
      <trkpt lat="42.97271" lon="-0.24818">
        <ele>1529.8</ele>
        <time>2022-05-14T07:50:09Z</time>
      </trkpt>
      <trkpt lat="42.97262" lon="-0.24838">
        <ele>1530.4</ele>
        <time>2022-05-14T07:50:18Z</time>
      </trkpt>
      <trkpt lat="42.97254" lon="-0.24852">
        <ele>1530.8</ele>
        <time>2022-05-14T07:50:24Z</time>
      </trkpt>
      <trkpt lat="42.97252" lon="-0.24857">
        <ele>1531</ele>
        <time>2022-05-14T07:50:26Z</time>
      </trkpt>
      <trkpt lat="42.97245" lon="-0.24868">
        <ele>1531.4</ele>
        <time>2022-05-14T07:50:33Z</time>
      </trkpt>
      <trkpt lat="42.97244" lon="-0.2487">
        <ele>1531.4</ele>
        <time>2022-05-14T07:50:34Z</time>
      </trkpt>
      <trkpt lat="42.9724" lon="-0.24875">
        <ele>1531.8</ele>
        <time>2022-05-14T07:50:37Z</time>
      </trkpt>
      <trkpt lat="42.97233" lon="-0.24884">
        <ele>1532.2</ele>
        <time>2022-05-14T07:50:42Z</time>
      </trkpt>
      <trkpt lat="42.9722" lon="-0.24899">
        <ele>1532.6</ele>
        <time>2022-05-14T07:50:47Z</time>
      </trkpt>
      <trkpt lat="42.97217" lon="-0.24902">
        <ele>1532.8</ele>
        <time>2022-05-14T07:50:48Z</time>
      </trkpt>
      <trkpt lat="42.97209" lon="-0.24911">
        <ele>1532.8</ele>
        <time>2022-05-14T07:50:50Z</time>
      </trkpt>
      <trkpt lat="42.97205" lon="-0.24918">
        <ele>1532.8</ele>
        <time>2022-05-14T07:50:51Z</time>
      </trkpt>
      <trkpt lat="42.97203" lon="-0.24925">
        <ele>1532.8</ele>
        <time>2022-05-14T07:50:52Z</time>
      </trkpt>
      <trkpt lat="42.97199" lon="-0.24943">
        <ele>1532.2</ele>
        <time>2022-05-14T07:50:55Z</time>
      </trkpt>
      <trkpt lat="42.97194" lon="-0.24966">
        <ele>1532</ele>
        <time>2022-05-14T07:51:00Z</time>
      </trkpt>
      <trkpt lat="42.97187" lon="-0.25003">
        <ele>1532.4</ele>
        <time>2022-05-14T07:51:09Z</time>
      </trkpt>
      <trkpt lat="42.97183" lon="-0.25036">
        <ele>1532.8</ele>
        <time>2022-05-14T07:51:15Z</time>
      </trkpt>
      <trkpt lat="42.97178" lon="-0.25082">
        <ele>1532.8</ele>
        <time>2022-05-14T07:51:24Z</time>
      </trkpt>
      <trkpt lat="42.97173" lon="-0.25115">
        <ele>1533.4</ele>
        <time>2022-05-14T07:51:32Z</time>
      </trkpt>
      <trkpt lat="42.97173" lon="-0.25147">
        <ele>1533.6</ele>
        <time>2022-05-14T07:51:39Z</time>
      </trkpt>
      <trkpt lat="42.97181" lon="-0.25173">
        <ele>1533.8</ele>
        <time>2022-05-14T07:51:44Z</time>
      </trkpt>
      <trkpt lat="42.9719" lon="-0.25215">
        <ele>1533.6</ele>
        <time>2022-05-14T07:51:50Z</time>
      </trkpt>
      <trkpt lat="42.97199" lon="-0.25245">
        <ele>1532.6</ele>
        <time>2022-05-14T07:51:54Z</time>
      </trkpt>
      <trkpt lat="42.97202" lon="-0.2526">
        <ele>1531.8</ele>
        <time>2022-05-14T07:51:56Z</time>
      </trkpt>
      <trkpt lat="42.97207" lon="-0.25289">
        <ele>1530.8</ele>
        <time>2022-05-14T07:51:59Z</time>
      </trkpt>
      <trkpt lat="42.97207" lon="-0.25298">
        <ele>1530.4</ele>
        <time>2022-05-14T07:52:00Z</time>
      </trkpt>
      <trkpt lat="42.97207" lon="-0.25307">
        <ele>1530</ele>
        <time>2022-05-14T07:52:01Z</time>
      </trkpt>
      <trkpt lat="42.97205" lon="-0.25341">
        <ele>1529.2</ele>
        <time>2022-05-14T07:52:05Z</time>
      </trkpt>
      <trkpt lat="42.972" lon="-0.25386">
        <ele>1528.8</ele>
        <time>2022-05-14T07:52:10Z</time>
      </trkpt>
      <trkpt lat="42.97196" lon="-0.25408">
        <ele>1528.6</ele>
        <time>2022-05-14T07:52:12Z</time>
      </trkpt>
      <trkpt lat="42.97192" lon="-0.25419">
        <ele>1528.2</ele>
        <time>2022-05-14T07:52:13Z</time>
      </trkpt>
      <trkpt lat="42.97188" lon="-0.2543">
        <ele>1528</ele>
        <time>2022-05-14T07:52:14Z</time>
      </trkpt>
      <trkpt lat="42.97172" lon="-0.25472">
        <ele>1527</ele>
        <time>2022-05-14T07:52:18Z</time>
      </trkpt>
      <trkpt lat="42.97168" lon="-0.25483">
        <ele>1526.2</ele>
        <time>2022-05-14T07:52:19Z</time>
      </trkpt>
      <trkpt lat="42.97164" lon="-0.25495">
        <ele>1525.6</ele>
        <time>2022-05-14T07:52:20Z</time>
      </trkpt>
      <trkpt lat="42.97152" lon="-0.2553">
        <ele>1524.4</ele>
        <time>2022-05-14T07:52:23Z</time>
      </trkpt>
      <trkpt lat="42.97148" lon="-0.25541">
        <ele>1524.2</ele>
        <time>2022-05-14T07:52:24Z</time>
      </trkpt>
      <trkpt lat="42.97141" lon="-0.2556">
        <ele>1523.4</ele>
        <time>2022-05-14T07:52:26Z</time>
      </trkpt>
      <trkpt lat="42.97137" lon="-0.25568">
        <ele>1523.2</ele>
        <time>2022-05-14T07:52:27Z</time>
      </trkpt>
      <trkpt lat="42.97133" lon="-0.25574">
        <ele>1522.6</ele>
        <time>2022-05-14T07:52:28Z</time>
      </trkpt>
      <trkpt lat="42.97128" lon="-0.25578">
        <ele>1522.4</ele>
        <time>2022-05-14T07:52:29Z</time>
      </trkpt>
      <trkpt lat="42.97123" lon="-0.25581">
        <ele>1522.2</ele>
        <time>2022-05-14T07:52:30Z</time>
      </trkpt>
      <trkpt lat="42.97118" lon="-0.25585">
        <ele>1522</ele>
        <time>2022-05-14T07:52:31Z</time>
      </trkpt>
      <trkpt lat="42.97116" lon="-0.25595">
        <ele>1521.4</ele>
        <time>2022-05-14T07:52:33Z</time>
      </trkpt>
      <trkpt lat="42.97119" lon="-0.25601">
        <ele>1520.8</ele>
        <time>2022-05-14T07:52:34Z</time>
      </trkpt>
      <trkpt lat="42.97125" lon="-0.25609">
        <ele>1520.2</ele>
        <time>2022-05-14T07:52:36Z</time>
      </trkpt>
      <trkpt lat="42.9713" lon="-0.25619">
        <ele>1519.6</ele>
        <time>2022-05-14T07:52:38Z</time>
      </trkpt>
      <trkpt lat="42.97132" lon="-0.25629">
        <ele>1519.4</ele>
        <time>2022-05-14T07:52:40Z</time>
      </trkpt>
      <trkpt lat="42.97136" lon="-0.25665">
        <ele>1519.6</ele>
        <time>2022-05-14T07:52:47Z</time>
      </trkpt>
      <trkpt lat="42.97135" lon="-0.25688">
        <ele>1520</ele>
        <time>2022-05-14T07:52:53Z</time>
      </trkpt>
      <trkpt lat="42.97131" lon="-0.25702">
        <ele>1520.8</ele>
        <time>2022-05-14T07:52:58Z</time>
      </trkpt>
      <trkpt lat="42.9713" lon="-0.25707">
        <ele>1521</ele>
        <time>2022-05-14T07:53:00Z</time>
      </trkpt>
      <trkpt lat="42.97128" lon="-0.25716">
        <ele>1521.8</ele>
        <time>2022-05-14T07:53:04Z</time>
      </trkpt>
      <trkpt lat="42.97126" lon="-0.25721">
        <ele>1522.4</ele>
        <time>2022-05-14T07:53:06Z</time>
      </trkpt>
      <trkpt lat="42.97124" lon="-0.25726">
        <ele>1522.8</ele>
        <time>2022-05-14T07:53:08Z</time>
      </trkpt>
      <trkpt lat="42.97124" lon="-0.25728">
        <ele>1523</ele>
        <time>2022-05-14T07:53:09Z</time>
      </trkpt>
      <trkpt lat="42.97119" lon="-0.25741">
        <ele>1524.4</ele>
        <time>2022-05-14T07:53:14Z</time>
      </trkpt>
      <trkpt lat="42.97118" lon="-0.25746">
        <ele>1524.6</ele>
        <time>2022-05-14T07:53:16Z</time>
      </trkpt>
      <trkpt lat="42.97113" lon="-0.2576">
        <ele>1525.4</ele>
        <time>2022-05-14T07:53:21Z</time>
      </trkpt>
      <trkpt lat="42.9711" lon="-0.25776">
        <ele>1526</ele>
        <time>2022-05-14T07:53:26Z</time>
      </trkpt>
      <trkpt lat="42.97109" lon="-0.2579">
        <ele>1526.6</ele>
        <time>2022-05-14T07:53:30Z</time>
      </trkpt>
      <trkpt lat="42.97107" lon="-0.25813">
        <ele>1526.8</ele>
        <time>2022-05-14T07:53:35Z</time>
      </trkpt>
      <trkpt lat="42.97112" lon="-0.25831">
        <ele>1526.8</ele>
        <time>2022-05-14T07:53:39Z</time>
      </trkpt>
      <trkpt lat="42.97118" lon="-0.25838">
        <ele>1526.8</ele>
        <time>2022-05-14T07:53:43Z</time>
      </trkpt>
      <trkpt lat="42.97127" lon="-0.25847">
        <ele>1527.6</ele>
        <time>2022-05-14T07:53:49Z</time>
      </trkpt>
      <trkpt lat="42.97128" lon="-0.25849">
        <ele>1527.6</ele>
        <time>2022-05-14T07:53:50Z</time>
      </trkpt>
      <trkpt lat="42.97135" lon="-0.25868">
        <ele>1528.4</ele>
        <time>2022-05-14T07:53:57Z</time>
      </trkpt>
      <trkpt lat="42.97136" lon="-0.25876">
        <ele>1528.6</ele>
        <time>2022-05-14T07:54:00Z</time>
      </trkpt>
      <trkpt lat="42.97142" lon="-0.25893">
        <ele>1529.2</ele>
        <time>2022-05-14T07:54:07Z</time>
      </trkpt>
      <trkpt lat="42.97147" lon="-0.25904">
        <ele>1529.6</ele>
        <time>2022-05-14T07:54:12Z</time>
      </trkpt>
      <trkpt lat="42.97152" lon="-0.25912">
        <ele>1530</ele>
        <time>2022-05-14T07:54:16Z</time>
      </trkpt>
      <trkpt lat="42.97156" lon="-0.25919">
        <ele>1530.2</ele>
        <time>2022-05-14T07:54:19Z</time>
      </trkpt>
      <trkpt lat="42.9716" lon="-0.25929">
        <ele>1530.6</ele>
        <time>2022-05-14T07:54:23Z</time>
      </trkpt>
      <trkpt lat="42.97162" lon="-0.25935">
        <ele>1530.8</ele>
        <time>2022-05-14T07:54:25Z</time>
      </trkpt>
      <trkpt lat="42.97168" lon="-0.25963">
        <ele>1531.4</ele>
        <time>2022-05-14T07:54:34Z</time>
      </trkpt>
      <trkpt lat="42.97175" lon="-0.2598">
        <ele>1531.4</ele>
        <time>2022-05-14T07:54:40Z</time>
      </trkpt>
      <trkpt lat="42.97182" lon="-0.26003">
        <ele>1531</ele>
        <time>2022-05-14T07:54:46Z</time>
      </trkpt>
      <trkpt lat="42.9719" lon="-0.26034">
        <ele>1530.2</ele>
        <time>2022-05-14T07:54:51Z</time>
      </trkpt>
      <trkpt lat="42.97196" lon="-0.26058">
        <ele>1529.4</ele>
        <time>2022-05-14T07:54:54Z</time>
      </trkpt>
      <trkpt lat="42.97199" lon="-0.26075">
        <ele>1528.8</ele>
        <time>2022-05-14T07:54:56Z</time>
      </trkpt>
      <trkpt lat="42.972" lon="-0.26083">
        <ele>1528.2</ele>
        <time>2022-05-14T07:54:57Z</time>
      </trkpt>
      <trkpt lat="42.97202" lon="-0.26108">
        <ele>1527</ele>
        <time>2022-05-14T07:55:00Z</time>
      </trkpt>
      <trkpt lat="42.97203" lon="-0.26122">
        <ele>1526.2</ele>
        <time>2022-05-14T07:55:02Z</time>
      </trkpt>
      <trkpt lat="42.97204" lon="-0.26128">
        <ele>1525.6</ele>
        <time>2022-05-14T07:55:03Z</time>
      </trkpt>
      <trkpt lat="42.97205" lon="-0.26144">
        <ele>1524.2</ele>
        <time>2022-05-14T07:55:06Z</time>
      </trkpt>
      <trkpt lat="42.97204" lon="-0.26149">
        <ele>1523.6</ele>
        <time>2022-05-14T07:55:07Z</time>
      </trkpt>
      <trkpt lat="42.97204" lon="-0.26154">
        <ele>1522.8</ele>
        <time>2022-05-14T07:55:08Z</time>
      </trkpt>
      <trkpt lat="42.97204" lon="-0.26168">
        <ele>1521.8</ele>
        <time>2022-05-14T07:55:10Z</time>
      </trkpt>
      <trkpt lat="42.97204" lon="-0.26183">
        <ele>1521.2</ele>
        <time>2022-05-14T07:55:12Z</time>
      </trkpt>
      <trkpt lat="42.97204" lon="-0.262">
        <ele>1520.4</ele>
        <time>2022-05-14T07:55:14Z</time>
      </trkpt>
      <trkpt lat="42.97201" lon="-0.26229">
        <ele>1519.4</ele>
        <time>2022-05-14T07:55:17Z</time>
      </trkpt>
      <trkpt lat="42.972" lon="-0.2624">
        <ele>1518.8</ele>
        <time>2022-05-14T07:55:18Z</time>
      </trkpt>
      <trkpt lat="42.97197" lon="-0.26276">
        <ele>1517.6</ele>
        <time>2022-05-14T07:55:21Z</time>
      </trkpt>
      <trkpt lat="42.97197" lon="-0.26286">
        <ele>1517</ele>
        <time>2022-05-14T07:55:22Z</time>
      </trkpt>
      <trkpt lat="42.97197" lon="-0.26295">
        <ele>1516.2</ele>
        <time>2022-05-14T07:55:23Z</time>
      </trkpt>
      <trkpt lat="42.97198" lon="-0.26312">
        <ele>1514.8</ele>
        <time>2022-05-14T07:55:25Z</time>
      </trkpt>
      <trkpt lat="42.97198" lon="-0.26322">
        <ele>1514.2</ele>
        <time>2022-05-14T07:55:26Z</time>
      </trkpt>
      <trkpt lat="42.97198" lon="-0.26332">
        <ele>1512.8</ele>
        <time>2022-05-14T07:55:27Z</time>
      </trkpt>
      <trkpt lat="42.97198" lon="-0.26352">
        <ele>1511.2</ele>
        <time>2022-05-14T07:55:29Z</time>
      </trkpt>
      <trkpt lat="42.97198" lon="-0.26362">
        <ele>1510.8</ele>
        <time>2022-05-14T07:55:30Z</time>
      </trkpt>
      <trkpt lat="42.97197" lon="-0.2637">
        <ele>1509.6</ele>
        <time>2022-05-14T07:55:31Z</time>
      </trkpt>
      <trkpt lat="42.97197" lon="-0.26387">
        <ele>1508.6</ele>
        <time>2022-05-14T07:55:33Z</time>
      </trkpt>
      <trkpt lat="42.97201" lon="-0.26415">
        <ele>1507.4</ele>
        <time>2022-05-14T07:55:36Z</time>
      </trkpt>
      <trkpt lat="42.97207" lon="-0.2643">
        <ele>1505.8</ele>
        <time>2022-05-14T07:55:38Z</time>
      </trkpt>
      <trkpt lat="42.97216" lon="-0.26445">
        <ele>1505.2</ele>
        <time>2022-05-14T07:55:40Z</time>
      </trkpt>
      <trkpt lat="42.9722" lon="-0.26453">
        <ele>1505.2</ele>
        <time>2022-05-14T07:55:41Z</time>
      </trkpt>
      <trkpt lat="42.97224" lon="-0.26461">
        <ele>1504.8</ele>
        <time>2022-05-14T07:55:42Z</time>
      </trkpt>
      <trkpt lat="42.97228" lon="-0.26472">
        <ele>1504.8</ele>
        <time>2022-05-14T07:55:43Z</time>
      </trkpt>
      <trkpt lat="42.9723" lon="-0.26481">
        <ele>1504.4</ele>
        <time>2022-05-14T07:55:44Z</time>
      </trkpt>
      <trkpt lat="42.97232" lon="-0.26491">
        <ele>1504.2</ele>
        <time>2022-05-14T07:55:45Z</time>
      </trkpt>
      <trkpt lat="42.97234" lon="-0.26511">
        <ele>1503.6</ele>
        <time>2022-05-14T07:55:47Z</time>
      </trkpt>
      <trkpt lat="42.97234" lon="-0.26519">
        <ele>1503.2</ele>
        <time>2022-05-14T07:55:48Z</time>
      </trkpt>
      <trkpt lat="42.97234" lon="-0.26534">
        <ele>1502.2</ele>
        <time>2022-05-14T07:55:50Z</time>
      </trkpt>
      <trkpt lat="42.97231" lon="-0.26546">
        <ele>1501.2</ele>
        <time>2022-05-14T07:55:52Z</time>
      </trkpt>
      <trkpt lat="42.9723" lon="-0.26551">
        <ele>1500.6</ele>
        <time>2022-05-14T07:55:53Z</time>
      </trkpt>
      <trkpt lat="42.97229" lon="-0.26564">
        <ele>1499.6</ele>
        <time>2022-05-14T07:55:56Z</time>
      </trkpt>
      <trkpt lat="42.97231" lon="-0.26567">
        <ele>1499</ele>
        <time>2022-05-14T07:55:57Z</time>
      </trkpt>
      <trkpt lat="42.97236" lon="-0.2657">
        <ele>1498.4</ele>
        <time>2022-05-14T07:55:59Z</time>
      </trkpt>
      <trkpt lat="42.97242" lon="-0.26572">
        <ele>1498</ele>
        <time>2022-05-14T07:56:01Z</time>
      </trkpt>
      <trkpt lat="42.97251" lon="-0.2657">
        <ele>1497.4</ele>
        <time>2022-05-14T07:56:04Z</time>
      </trkpt>
      <trkpt lat="42.97261" lon="-0.26563">
        <ele>1497.2</ele>
        <time>2022-05-14T07:56:07Z</time>
      </trkpt>
      <trkpt lat="42.97269" lon="-0.26555">
        <ele>1497.2</ele>
        <time>2022-05-14T07:56:09Z</time>
      </trkpt>
      <trkpt lat="42.97275" lon="-0.26543">
        <ele>1497</ele>
        <time>2022-05-14T07:56:11Z</time>
      </trkpt>
      <trkpt lat="42.97276" lon="-0.26537">
        <ele>1496.8</ele>
        <time>2022-05-14T07:56:12Z</time>
      </trkpt>
      <trkpt lat="42.97281" lon="-0.26516">
        <ele>1495.8</ele>
        <time>2022-05-14T07:56:16Z</time>
      </trkpt>
      <trkpt lat="42.97287" lon="-0.2651">
        <ele>1495.2</ele>
        <time>2022-05-14T07:56:18Z</time>
      </trkpt>
      <trkpt lat="42.97292" lon="-0.26509">
        <ele>1495</ele>
        <time>2022-05-14T07:56:19Z</time>
      </trkpt>
      <trkpt lat="42.97298" lon="-0.2651">
        <ele>1494.4</ele>
        <time>2022-05-14T07:56:20Z</time>
      </trkpt>
      <trkpt lat="42.9731" lon="-0.26514">
        <ele>1493.2</ele>
        <time>2022-05-14T07:56:22Z</time>
      </trkpt>
      <trkpt lat="42.97325" lon="-0.26516">
        <ele>1491.8</ele>
        <time>2022-05-14T07:56:24Z</time>
      </trkpt>
      <trkpt lat="42.97329" lon="-0.26517">
        <ele>1490.8</ele>
        <time>2022-05-14T07:56:25Z</time>
      </trkpt>
      <trkpt lat="42.97335" lon="-0.26521">
        <ele>1490.2</ele>
        <time>2022-05-14T07:56:26Z</time>
      </trkpt>
      <trkpt lat="42.97338" lon="-0.26526">
        <ele>1489</ele>
        <time>2022-05-14T07:56:27Z</time>
      </trkpt>
      <trkpt lat="42.97341" lon="-0.26539">
        <ele>1488.2</ele>
        <time>2022-05-14T07:56:29Z</time>
      </trkpt>
      <trkpt lat="42.97342" lon="-0.26549">
        <ele>1487.8</ele>
        <time>2022-05-14T07:56:30Z</time>
      </trkpt>
      <trkpt lat="42.97341" lon="-0.26559">
        <ele>1486.6</ele>
        <time>2022-05-14T07:56:31Z</time>
      </trkpt>
      <trkpt lat="42.97338" lon="-0.26577">
        <ele>1485.2</ele>
        <time>2022-05-14T07:56:33Z</time>
      </trkpt>
      <trkpt lat="42.97333" lon="-0.26597">
        <ele>1483.4</ele>
        <time>2022-05-14T07:56:35Z</time>
      </trkpt>
      <trkpt lat="42.97325" lon="-0.26617">
        <ele>1482.6</ele>
        <time>2022-05-14T07:56:37Z</time>
      </trkpt>
      <trkpt lat="42.97321" lon="-0.26626">
        <ele>1482.4</ele>
        <time>2022-05-14T07:56:38Z</time>
      </trkpt>
      <trkpt lat="42.97311" lon="-0.26643">
        <ele>1480.8</ele>
        <time>2022-05-14T07:56:40Z</time>
      </trkpt>
      <trkpt lat="42.97303" lon="-0.26656">
        <ele>1479.4</ele>
        <time>2022-05-14T07:56:42Z</time>
      </trkpt>
      <trkpt lat="42.97299" lon="-0.26662">
        <ele>1478.8</ele>
        <time>2022-05-14T07:56:43Z</time>
      </trkpt>
      <trkpt lat="42.97295" lon="-0.26666">
        <ele>1478</ele>
        <time>2022-05-14T07:56:44Z</time>
      </trkpt>
      <trkpt lat="42.9728" lon="-0.2668">
        <ele>1476.6</ele>
        <time>2022-05-14T07:56:47Z</time>
      </trkpt>
      <trkpt lat="42.97274" lon="-0.26684">
        <ele>1476</ele>
        <time>2022-05-14T07:56:48Z</time>
      </trkpt>
      <trkpt lat="42.97261" lon="-0.26692">
        <ele>1474.6</ele>
        <time>2022-05-14T07:56:50Z</time>
      </trkpt>
      <trkpt lat="42.97247" lon="-0.267">
        <ele>1473.6</ele>
        <time>2022-05-14T07:56:52Z</time>
      </trkpt>
      <trkpt lat="42.9724" lon="-0.26703">
        <ele>1473.4</ele>
        <time>2022-05-14T07:56:53Z</time>
      </trkpt>
      <trkpt lat="42.97218" lon="-0.26713">
        <ele>1472.8</ele>
        <time>2022-05-14T07:56:56Z</time>
      </trkpt>
      <trkpt lat="42.97196" lon="-0.26719">
        <ele>1471.6</ele>
        <time>2022-05-14T07:56:59Z</time>
      </trkpt>
      <trkpt lat="42.9717" lon="-0.26722">
        <ele>1470.8</ele>
        <time>2022-05-14T07:57:02Z</time>
      </trkpt>
      <trkpt lat="42.97162" lon="-0.26721">
        <ele>1469.8</ele>
        <time>2022-05-14T07:57:03Z</time>
      </trkpt>
      <trkpt lat="42.97153" lon="-0.26721">
        <ele>1469.2</ele>
        <time>2022-05-14T07:57:04Z</time>
      </trkpt>
      <trkpt lat="42.97147" lon="-0.26721">
        <ele>1468.6</ele>
        <time>2022-05-14T07:57:05Z</time>
      </trkpt>
      <trkpt lat="42.97133" lon="-0.26722">
        <ele>1467.4</ele>
        <time>2022-05-14T07:57:07Z</time>
      </trkpt>
      <trkpt lat="42.97126" lon="-0.26722">
        <ele>1467</ele>
        <time>2022-05-14T07:57:08Z</time>
      </trkpt>
      <trkpt lat="42.97119" lon="-0.26721">
        <ele>1466.2</ele>
        <time>2022-05-14T07:57:09Z</time>
      </trkpt>
      <trkpt lat="42.97115" lon="-0.26719">
        <ele>1465.8</ele>
        <time>2022-05-14T07:57:10Z</time>
      </trkpt>
      <trkpt lat="42.97109" lon="-0.26714">
        <ele>1465.6</ele>
        <time>2022-05-14T07:57:11Z</time>
      </trkpt>
      <trkpt lat="42.97104" lon="-0.26709">
        <ele>1464.8</ele>
        <time>2022-05-14T07:57:12Z</time>
      </trkpt>
      <trkpt lat="42.97097" lon="-0.26695">
        <ele>1463.4</ele>
        <time>2022-05-14T07:57:14Z</time>
      </trkpt>
      <trkpt lat="42.97095" lon="-0.26687">
        <ele>1463.2</ele>
        <time>2022-05-14T07:57:15Z</time>
      </trkpt>
      <trkpt lat="42.97093" lon="-0.26679">
        <ele>1462.2</ele>
        <time>2022-05-14T07:57:16Z</time>
      </trkpt>
      <trkpt lat="42.9709" lon="-0.26656">
        <ele>1461.6</ele>
        <time>2022-05-14T07:57:19Z</time>
      </trkpt>
      <trkpt lat="42.97088" lon="-0.2665">
        <ele>1461.2</ele>
        <time>2022-05-14T07:57:20Z</time>
      </trkpt>
      <trkpt lat="42.97084" lon="-0.26638">
        <ele>1460.8</ele>
        <time>2022-05-14T07:57:22Z</time>
      </trkpt>
      <trkpt lat="42.97078" lon="-0.26628">
        <ele>1460.8</ele>
        <time>2022-05-14T07:57:24Z</time>
      </trkpt>
      <trkpt lat="42.97059" lon="-0.26597">
        <ele>1460.2</ele>
        <time>2022-05-14T07:57:30Z</time>
      </trkpt>
      <trkpt lat="42.97056" lon="-0.26591">
        <ele>1460.2</ele>
        <time>2022-05-14T07:57:31Z</time>
      </trkpt>
      <trkpt lat="42.97047" lon="-0.26563">
        <ele>1459.4</ele>
        <time>2022-05-14T07:57:36Z</time>
      </trkpt>
      <trkpt lat="42.97046" lon="-0.26557">
        <ele>1459.4</ele>
        <time>2022-05-14T07:57:37Z</time>
      </trkpt>
      <trkpt lat="42.97041" lon="-0.26537">
        <ele>1459.6</ele>
        <time>2022-05-14T07:57:40Z</time>
      </trkpt>
      <trkpt lat="42.97041" lon="-0.26532">
        <ele>1459.4</ele>
        <time>2022-05-14T07:57:41Z</time>
      </trkpt>
      <trkpt lat="42.9704" lon="-0.26515">
        <ele>1459.4</ele>
        <time>2022-05-14T07:57:43Z</time>
      </trkpt>
      <trkpt lat="42.97037" lon="-0.26501">
        <ele>1459.6</ele>
        <time>2022-05-14T07:57:45Z</time>
      </trkpt>
      <trkpt lat="42.97027" lon="-0.2648">
        <ele>1459.4</ele>
        <time>2022-05-14T07:57:48Z</time>
      </trkpt>
      <trkpt lat="42.97019" lon="-0.26466">
        <ele>1459</ele>
        <time>2022-05-14T07:57:50Z</time>
      </trkpt>
      <trkpt lat="42.9701" lon="-0.26459">
        <ele>1458.6</ele>
        <time>2022-05-14T07:57:52Z</time>
      </trkpt>
      <trkpt lat="42.97004" lon="-0.26455">
        <ele>1458.4</ele>
        <time>2022-05-14T07:57:53Z</time>
      </trkpt>
      <trkpt lat="42.97" lon="-0.26454">
        <ele>1458.2</ele>
        <time>2022-05-14T07:57:54Z</time>
      </trkpt>
      <trkpt lat="42.96987" lon="-0.26444">
        <ele>1458</ele>
        <time>2022-05-14T07:57:58Z</time>
      </trkpt>
      <trkpt lat="42.96972" lon="-0.26436">
        <ele>1458.8</ele>
        <time>2022-05-14T07:58:03Z</time>
      </trkpt>
      <trkpt lat="42.96969" lon="-0.26437">
        <ele>1458.8</ele>
        <time>2022-05-14T07:58:04Z</time>
      </trkpt>
      <trkpt lat="42.96964" lon="-0.2644">
        <ele>1459</ele>
        <time>2022-05-14T07:58:06Z</time>
      </trkpt>
      <trkpt lat="42.96961" lon="-0.26442">
        <ele>1459.6</ele>
        <time>2022-05-14T07:58:08Z</time>
      </trkpt>
      <trkpt lat="42.96951" lon="-0.26448">
        <ele>1460.4</ele>
        <time>2022-05-14T07:58:13Z</time>
      </trkpt>
      <trkpt lat="42.96949" lon="-0.26447">
        <ele>1461</ele>
        <time>2022-05-14T07:58:14Z</time>
      </trkpt>
      <trkpt lat="42.9694" lon="-0.2644">
        <ele>1461.8</ele>
        <time>2022-05-14T07:58:19Z</time>
      </trkpt>
      <trkpt lat="42.96937" lon="-0.26435">
        <ele>1462.2</ele>
        <time>2022-05-14T07:58:21Z</time>
      </trkpt>
      <trkpt lat="42.96927" lon="-0.26428">
        <ele>1463.4</ele>
        <time>2022-05-14T07:58:26Z</time>
      </trkpt>
      <trkpt lat="42.96915" lon="-0.26422">
        <ele>1464.6</ele>
        <time>2022-05-14T07:58:33Z</time>
      </trkpt>
      <trkpt lat="42.96912" lon="-0.26422">
        <ele>1464.6</ele>
        <time>2022-05-14T07:58:34Z</time>
      </trkpt>
      <trkpt lat="42.96898" lon="-0.26424">
        <ele>1465.2</ele>
        <time>2022-05-14T07:58:39Z</time>
      </trkpt>
      <trkpt lat="42.96879" lon="-0.26423">
        <ele>1465.6</ele>
        <time>2022-05-14T07:58:46Z</time>
      </trkpt>
      <trkpt lat="42.96875" lon="-0.26422">
        <ele>1465.6</ele>
        <time>2022-05-14T07:58:47Z</time>
      </trkpt>
      <trkpt lat="42.96867" lon="-0.26423">
        <ele>1465.4</ele>
        <time>2022-05-14T07:58:49Z</time>
      </trkpt>
      <trkpt lat="42.96857" lon="-0.26429">
        <ele>1465.4</ele>
        <time>2022-05-14T07:58:51Z</time>
      </trkpt>
      <trkpt lat="42.96831" lon="-0.26454">
        <ele>1464.8</ele>
        <time>2022-05-14T07:58:57Z</time>
      </trkpt>
      <trkpt lat="42.96827" lon="-0.2646">
        <ele>1464.2</ele>
        <time>2022-05-14T07:58:58Z</time>
      </trkpt>
      <trkpt lat="42.96819" lon="-0.26473">
        <ele>1462.8</ele>
        <time>2022-05-14T07:59:00Z</time>
      </trkpt>
      <trkpt lat="42.96815" lon="-0.26478">
        <ele>1462</ele>
        <time>2022-05-14T07:59:01Z</time>
      </trkpt>
      <trkpt lat="42.9681" lon="-0.26482">
        <ele>1461.8</ele>
        <time>2022-05-14T07:59:02Z</time>
      </trkpt>
      <trkpt lat="42.9679" lon="-0.26488">
        <ele>1460.6</ele>
        <time>2022-05-14T07:59:05Z</time>
      </trkpt>
      <trkpt lat="42.9677" lon="-0.26495">
        <ele>1459.4</ele>
        <time>2022-05-14T07:59:08Z</time>
      </trkpt>
      <trkpt lat="42.96755" lon="-0.26499">
        <ele>1458.6</ele>
        <time>2022-05-14T07:59:10Z</time>
      </trkpt>
      <trkpt lat="42.96745" lon="-0.26502">
        <ele>1457.8</ele>
        <time>2022-05-14T07:59:11Z</time>
      </trkpt>
      <trkpt lat="42.96723" lon="-0.26511">
        <ele>1456.8</ele>
        <time>2022-05-14T07:59:14Z</time>
      </trkpt>
      <trkpt lat="42.96716" lon="-0.26515">
        <ele>1456.2</ele>
        <time>2022-05-14T07:59:15Z</time>
      </trkpt>
      <trkpt lat="42.96707" lon="-0.26518">
        <ele>1455.6</ele>
        <time>2022-05-14T07:59:16Z</time>
      </trkpt>
      <trkpt lat="42.967" lon="-0.26521">
        <ele>1455.2</ele>
        <time>2022-05-14T07:59:17Z</time>
      </trkpt>
      <trkpt lat="42.96686" lon="-0.26522">
        <ele>1454.6</ele>
        <time>2022-05-14T07:59:19Z</time>
      </trkpt>
      <trkpt lat="42.96661" lon="-0.26518">
        <ele>1454.2</ele>
        <time>2022-05-14T07:59:23Z</time>
      </trkpt>
      <trkpt lat="42.96656" lon="-0.26515">
        <ele>1454</ele>
        <time>2022-05-14T07:59:24Z</time>
      </trkpt>
      <trkpt lat="42.96651" lon="-0.26512">
        <ele>1454</ele>
        <time>2022-05-14T07:59:25Z</time>
      </trkpt>
      <trkpt lat="42.96635" lon="-0.26505">
        <ele>1453.8</ele>
        <time>2022-05-14T07:59:28Z</time>
      </trkpt>
      <trkpt lat="42.96624" lon="-0.265">
        <ele>1453.6</ele>
        <time>2022-05-14T07:59:30Z</time>
      </trkpt>
      <trkpt lat="42.96595" lon="-0.26487">
        <ele>1453.2</ele>
        <time>2022-05-14T07:59:35Z</time>
      </trkpt>
      <trkpt lat="42.96578" lon="-0.26484">
        <ele>1453</ele>
        <time>2022-05-14T07:59:38Z</time>
      </trkpt>
      <trkpt lat="42.96569" lon="-0.26481">
        <ele>1452.6</ele>
        <time>2022-05-14T07:59:40Z</time>
      </trkpt>
      <trkpt lat="42.96565" lon="-0.2648">
        <ele>1452.4</ele>
        <time>2022-05-14T07:59:41Z</time>
      </trkpt>
      <trkpt lat="42.96546" lon="-0.26468">
        <ele>1451.8</ele>
        <time>2022-05-14T07:59:45Z</time>
      </trkpt>
      <trkpt lat="42.96542" lon="-0.26465">
        <ele>1451.2</ele>
        <time>2022-05-14T07:59:46Z</time>
      </trkpt>
      <trkpt lat="42.96533" lon="-0.2646">
        <ele>1451</ele>
        <time>2022-05-14T07:59:48Z</time>
      </trkpt>
      <trkpt lat="42.96524" lon="-0.26455">
        <ele>1450.8</ele>
        <time>2022-05-14T07:59:50Z</time>
      </trkpt>
      <trkpt lat="42.96507" lon="-0.26437">
        <ele>1450.8</ele>
        <time>2022-05-14T07:59:55Z</time>
      </trkpt>
      <trkpt lat="42.96491" lon="-0.26413">
        <ele>1451.2</ele>
        <time>2022-05-14T08:00:01Z</time>
      </trkpt>
      <trkpt lat="42.96479" lon="-0.26392">
        <ele>1451.6</ele>
        <time>2022-05-14T08:00:06Z</time>
      </trkpt>
      <trkpt lat="42.96476" lon="-0.26388">
        <ele>1451.6</ele>
        <time>2022-05-14T08:00:07Z</time>
      </trkpt>
      <trkpt lat="42.96457" lon="-0.2636">
        <ele>1451.4</ele>
        <time>2022-05-14T08:00:12Z</time>
      </trkpt>
      <trkpt lat="42.96429" lon="-0.26317">
        <ele>1450</ele>
        <time>2022-05-14T08:00:19Z</time>
      </trkpt>
      <trkpt lat="42.96426" lon="-0.2631">
        <ele>1449.8</ele>
        <time>2022-05-14T08:00:20Z</time>
      </trkpt>
      <trkpt lat="42.96407" lon="-0.26279">
        <ele>1449</ele>
        <time>2022-05-14T08:00:25Z</time>
      </trkpt>
      <trkpt lat="42.96399" lon="-0.2627">
        <ele>1448.8</ele>
        <time>2022-05-14T08:00:27Z</time>
      </trkpt>
      <trkpt lat="42.96382" lon="-0.26264">
        <ele>1448.2</ele>
        <time>2022-05-14T08:00:31Z</time>
      </trkpt>
      <trkpt lat="42.96361" lon="-0.26255">
        <ele>1448.4</ele>
        <time>2022-05-14T08:00:37Z</time>
      </trkpt>
      <trkpt lat="42.96347" lon="-0.26248">
        <ele>1449</ele>
        <time>2022-05-14T08:00:42Z</time>
      </trkpt>
      <trkpt lat="42.96336" lon="-0.26244">
        <ele>1450</ele>
        <time>2022-05-14T08:00:47Z</time>
      </trkpt>
      <trkpt lat="42.96334" lon="-0.26244">
        <ele>1450.2</ele>
        <time>2022-05-14T08:00:48Z</time>
      </trkpt>
      <trkpt lat="42.96326" lon="-0.26241">
        <ele>1451.2</ele>
        <time>2022-05-14T08:00:52Z</time>
      </trkpt>
      <trkpt lat="42.96319" lon="-0.26239">
        <ele>1452</ele>
        <time>2022-05-14T08:00:56Z</time>
      </trkpt>
      <trkpt lat="42.96317" lon="-0.26239">
        <ele>1452.2</ele>
        <time>2022-05-14T08:00:57Z</time>
      </trkpt>
      <trkpt lat="42.96307" lon="-0.2624">
        <ele>1453.2</ele>
        <time>2022-05-14T08:01:03Z</time>
      </trkpt>
      <trkpt lat="42.96305" lon="-0.26241">
        <ele>1453.4</ele>
        <time>2022-05-14T08:01:04Z</time>
      </trkpt>
      <trkpt lat="42.96304" lon="-0.26242">
        <ele>1453.8</ele>
        <time>2022-05-14T08:01:05Z</time>
      </trkpt>
      <trkpt lat="42.963" lon="-0.26244">
        <ele>1454.2</ele>
        <time>2022-05-14T08:01:08Z</time>
      </trkpt>
      <trkpt lat="42.96299" lon="-0.26245">
        <ele>1454.4</ele>
        <time>2022-05-14T08:01:09Z</time>
      </trkpt>
      <trkpt lat="42.96293" lon="-0.26249">
        <ele>1455.4</ele>
        <time>2022-05-14T08:01:14Z</time>
      </trkpt>
      <trkpt lat="42.96288" lon="-0.26254">
        <ele>1456.4</ele>
        <time>2022-05-14T08:01:19Z</time>
      </trkpt>
      <trkpt lat="42.96287" lon="-0.26255">
        <ele>1456.4</ele>
        <time>2022-05-14T08:01:20Z</time>
      </trkpt>
      <trkpt lat="42.96278" lon="-0.26261">
        <ele>1457.4</ele>
        <time>2022-05-14T08:01:27Z</time>
      </trkpt>
      <trkpt lat="42.96274" lon="-0.26263">
        <ele>1457.8</ele>
        <time>2022-05-14T08:01:30Z</time>
      </trkpt>
      <trkpt lat="42.96269" lon="-0.26266">
        <ele>1458.4</ele>
        <time>2022-05-14T08:01:34Z</time>
      </trkpt>
      <trkpt lat="42.96268" lon="-0.26266">
        <ele>1458.6</ele>
        <time>2022-05-14T08:01:35Z</time>
      </trkpt>
      <trkpt lat="42.96265" lon="-0.26267">
        <ele>1459</ele>
        <time>2022-05-14T08:01:37Z</time>
      </trkpt>
      <trkpt lat="42.9626" lon="-0.26268">
        <ele>1459.4</ele>
        <time>2022-05-14T08:01:41Z</time>
      </trkpt>
      <trkpt lat="42.96252" lon="-0.26271">
        <ele>1460</ele>
        <time>2022-05-14T08:01:47Z</time>
      </trkpt>
      <trkpt lat="42.96247" lon="-0.26272">
        <ele>1460.6</ele>
        <time>2022-05-14T08:01:51Z</time>
      </trkpt>
      <trkpt lat="42.96241" lon="-0.2627">
        <ele>1461.6</ele>
        <time>2022-05-14T08:01:56Z</time>
      </trkpt>
      <trkpt lat="42.9624" lon="-0.26269">
        <ele>1461.6</ele>
        <time>2022-05-14T08:01:57Z</time>
      </trkpt>
      <trkpt lat="42.96238" lon="-0.26268">
        <ele>1461.8</ele>
        <time>2022-05-14T08:01:58Z</time>
      </trkpt>
      <trkpt lat="42.96234" lon="-0.26259">
        <ele>1462.4</ele>
        <time>2022-05-14T08:02:03Z</time>
      </trkpt>
      <trkpt lat="42.96232" lon="-0.26252">
        <ele>1462.6</ele>
        <time>2022-05-14T08:02:06Z</time>
      </trkpt>
      <trkpt lat="42.96231" lon="-0.26242">
        <ele>1463</ele>
        <time>2022-05-14T08:02:10Z</time>
      </trkpt>
      <trkpt lat="42.9623" lon="-0.26228">
        <ele>1463</ele>
        <time>2022-05-14T08:02:14Z</time>
      </trkpt>
      <trkpt lat="42.96227" lon="-0.26215">
        <ele>1463</ele>
        <time>2022-05-14T08:02:16Z</time>
      </trkpt>
      <trkpt lat="42.96217" lon="-0.26195">
        <ele>1462.8</ele>
        <time>2022-05-14T08:02:19Z</time>
      </trkpt>
      <trkpt lat="42.96213" lon="-0.2619">
        <ele>1462.6</ele>
        <time>2022-05-14T08:02:20Z</time>
      </trkpt>
      <trkpt lat="42.96208" lon="-0.26188">
        <ele>1462.2</ele>
        <time>2022-05-14T08:02:21Z</time>
      </trkpt>
      <trkpt lat="42.96198" lon="-0.26183">
        <ele>1461.2</ele>
        <time>2022-05-14T08:02:23Z</time>
      </trkpt>
      <trkpt lat="42.96193" lon="-0.26178">
        <ele>1460.6</ele>
        <time>2022-05-14T08:02:24Z</time>
      </trkpt>
      <trkpt lat="42.96184" lon="-0.26169">
        <ele>1459.4</ele>
        <time>2022-05-14T08:02:26Z</time>
      </trkpt>
      <trkpt lat="42.96173" lon="-0.26162">
        <ele>1458.8</ele>
        <time>2022-05-14T08:02:29Z</time>
      </trkpt>
      <trkpt lat="42.96155" lon="-0.2616">
        <ele>1458.8</ele>
        <time>2022-05-14T08:02:34Z</time>
      </trkpt>
      <trkpt lat="42.96142" lon="-0.26162">
        <ele>1459</ele>
        <time>2022-05-14T08:02:39Z</time>
      </trkpt>
      <trkpt lat="42.96127" lon="-0.2617">
        <ele>1459.8</ele>
        <time>2022-05-14T08:02:45Z</time>
      </trkpt>
      <trkpt lat="42.96112" lon="-0.26176">
        <ele>1461</ele>
        <time>2022-05-14T08:02:51Z</time>
      </trkpt>
      <trkpt lat="42.9611" lon="-0.26177">
        <ele>1461</ele>
        <time>2022-05-14T08:02:52Z</time>
      </trkpt>
      <trkpt lat="42.961" lon="-0.26181">
        <ele>1462</ele>
        <time>2022-05-14T08:02:56Z</time>
      </trkpt>
      <trkpt lat="42.96088" lon="-0.26186">
        <ele>1463</ele>
        <time>2022-05-14T08:03:01Z</time>
      </trkpt>
      <trkpt lat="42.96075" lon="-0.26186">
        <ele>1464</ele>
        <time>2022-05-14T08:03:07Z</time>
      </trkpt>
      <trkpt lat="42.96073" lon="-0.26184">
        <ele>1464.2</ele>
        <time>2022-05-14T08:03:08Z</time>
      </trkpt>
      <trkpt lat="42.96069" lon="-0.26172">
        <ele>1465.2</ele>
        <time>2022-05-14T08:03:12Z</time>
      </trkpt>
      <trkpt lat="42.96069" lon="-0.26169">
        <ele>1465.4</ele>
        <time>2022-05-14T08:03:13Z</time>
      </trkpt>
      <trkpt lat="42.96073" lon="-0.26154">
        <ele>1466.2</ele>
        <time>2022-05-14T08:03:18Z</time>
      </trkpt>
      <trkpt lat="42.96078" lon="-0.26146">
        <ele>1466.6</ele>
        <time>2022-05-14T08:03:21Z</time>
      </trkpt>
      <trkpt lat="42.96082" lon="-0.26138">
        <ele>1467</ele>
        <time>2022-05-14T08:03:24Z</time>
      </trkpt>
      <trkpt lat="42.9609" lon="-0.26115">
        <ele>1467.6</ele>
        <time>2022-05-14T08:03:33Z</time>
      </trkpt>
      <trkpt lat="42.96096" lon="-0.26106">
        <ele>1467.6</ele>
        <time>2022-05-14T08:03:38Z</time>
      </trkpt>
      <trkpt lat="42.96098" lon="-0.26102">
        <ele>1467.8</ele>
        <time>2022-05-14T08:03:40Z</time>
      </trkpt>
      <trkpt lat="42.96101" lon="-0.26095">
        <ele>1468</ele>
        <time>2022-05-14T08:03:44Z</time>
      </trkpt>
      <trkpt lat="42.96103" lon="-0.26094">
        <ele>1468</ele>
        <time>2022-05-14T08:03:46Z</time>
      </trkpt>
      <trkpt lat="42.96103" lon="-0.26094">
        <ele>1468</ele>
        <time>2022-05-14T08:03:51Z</time>
      </trkpt>
      <trkpt lat="42.96103" lon="-0.26094">
        <ele>1468</ele>
        <time>2022-05-14T08:04:17Z</time>
      </trkpt>
      <trkpt lat="42.96103" lon="-0.26094">
        <ele>1467.8</ele>
        <time>2022-05-14T08:04:28Z</time>
      </trkpt>
      <trkpt lat="42.96106" lon="-0.26087">
        <ele>1468</ele>
        <time>2022-05-14T08:04:44Z</time>
      </trkpt>
      <trkpt lat="42.96111" lon="-0.26077">
        <ele>1468.4</ele>
        <time>2022-05-14T08:04:49Z</time>
      </trkpt>
      <trkpt lat="42.96115" lon="-0.26073">
        <ele>1468.8</ele>
        <time>2022-05-14T08:04:52Z</time>
      </trkpt>
      <trkpt lat="42.96118" lon="-0.26067">
        <ele>1469.8</ele>
        <time>2022-05-14T08:04:55Z</time>
      </trkpt>
      <trkpt lat="42.96119" lon="-0.26065">
        <ele>1469.8</ele>
        <time>2022-05-14T08:04:56Z</time>
      </trkpt>
      <trkpt lat="42.96124" lon="-0.26057">
        <ele>1471.2</ele>
        <time>2022-05-14T08:05:01Z</time>
      </trkpt>
      <trkpt lat="42.96126" lon="-0.26054">
        <ele>1471.4</ele>
        <time>2022-05-14T08:05:03Z</time>
      </trkpt>
      <trkpt lat="42.9613" lon="-0.26051">
        <ele>1472.4</ele>
        <time>2022-05-14T08:05:06Z</time>
      </trkpt>
      <trkpt lat="42.96136" lon="-0.26047">
        <ele>1473.4</ele>
        <time>2022-05-14T08:05:10Z</time>
      </trkpt>
      <trkpt lat="42.96137" lon="-0.26045">
        <ele>1473.6</ele>
        <time>2022-05-14T08:05:11Z</time>
      </trkpt>
      <trkpt lat="42.96143" lon="-0.2604">
        <ele>1474.8</ele>
        <time>2022-05-14T08:05:16Z</time>
      </trkpt>
      <trkpt lat="42.96145" lon="-0.26038">
        <ele>1475</ele>
        <time>2022-05-14T08:05:18Z</time>
      </trkpt>
      <trkpt lat="42.96149" lon="-0.26035">
        <ele>1476</ele>
        <time>2022-05-14T08:05:21Z</time>
      </trkpt>
      <trkpt lat="42.96153" lon="-0.26026">
        <ele>1477.2</ele>
        <time>2022-05-14T08:05:27Z</time>
      </trkpt>
      <trkpt lat="42.96157" lon="-0.26017">
        <ele>1478.2</ele>
        <time>2022-05-14T08:05:32Z</time>
      </trkpt>
      <trkpt lat="42.96159" lon="-0.26014">
        <ele>1478.8</ele>
        <time>2022-05-14T08:05:34Z</time>
      </trkpt>
      <trkpt lat="42.96161" lon="-0.26012">
        <ele>1479.6</ele>
        <time>2022-05-14T08:05:36Z</time>
      </trkpt>
      <trkpt lat="42.96166" lon="-0.26009">
        <ele>1480.8</ele>
        <time>2022-05-14T08:05:40Z</time>
      </trkpt>
      <trkpt lat="42.9617" lon="-0.26007">
        <ele>1481.2</ele>
        <time>2022-05-14T08:05:43Z</time>
      </trkpt>
      <trkpt lat="42.96173" lon="-0.26005">
        <ele>1481.8</ele>
        <time>2022-05-14T08:05:45Z</time>
      </trkpt>
      <trkpt lat="42.96178" lon="-0.26001">
        <ele>1483.2</ele>
        <time>2022-05-14T08:05:50Z</time>
      </trkpt>
      <trkpt lat="42.96183" lon="-0.25994">
        <ele>1484.4</ele>
        <time>2022-05-14T08:05:55Z</time>
      </trkpt>
      <trkpt lat="42.96186" lon="-0.25989">
        <ele>1485</ele>
        <time>2022-05-14T08:05:58Z</time>
      </trkpt>
      <trkpt lat="42.9619" lon="-0.25987">
        <ele>1485.4</ele>
        <time>2022-05-14T08:06:01Z</time>
      </trkpt>
      <trkpt lat="42.96199" lon="-0.25984">
        <ele>1486.4</ele>
        <time>2022-05-14T08:06:07Z</time>
      </trkpt>
      <trkpt lat="42.962" lon="-0.25983">
        <ele>1486.6</ele>
        <time>2022-05-14T08:06:08Z</time>
      </trkpt>
      <trkpt lat="42.96206" lon="-0.2598">
        <ele>1487.8</ele>
        <time>2022-05-14T08:06:13Z</time>
      </trkpt>
      <trkpt lat="42.9621" lon="-0.25978">
        <ele>1488.8</ele>
        <time>2022-05-14T08:06:16Z</time>
      </trkpt>
      <trkpt lat="42.96211" lon="-0.25977">
        <ele>1489</ele>
        <time>2022-05-14T08:06:17Z</time>
      </trkpt>
      <trkpt lat="42.9622" lon="-0.25973">
        <ele>1490.4</ele>
        <time>2022-05-14T08:06:23Z</time>
      </trkpt>
      <trkpt lat="42.96225" lon="-0.25972">
        <ele>1491.4</ele>
        <time>2022-05-14T08:06:27Z</time>
      </trkpt>
      <trkpt lat="42.96232" lon="-0.25969">
        <ele>1492.6</ele>
        <time>2022-05-14T08:06:32Z</time>
      </trkpt>
      <trkpt lat="42.96236" lon="-0.25966">
        <ele>1493.6</ele>
        <time>2022-05-14T08:06:36Z</time>
      </trkpt>
      <trkpt lat="42.96238" lon="-0.25963">
        <ele>1493.8</ele>
        <time>2022-05-14T08:06:38Z</time>
      </trkpt>
      <trkpt lat="42.96243" lon="-0.25957">
        <ele>1494.6</ele>
        <time>2022-05-14T08:06:43Z</time>
      </trkpt>
      <trkpt lat="42.96244" lon="-0.25956">
        <ele>1495</ele>
        <time>2022-05-14T08:06:44Z</time>
      </trkpt>
      <trkpt lat="42.96247" lon="-0.25951">
        <ele>1496</ele>
        <time>2022-05-14T08:06:48Z</time>
      </trkpt>
      <trkpt lat="42.9625" lon="-0.25947">
        <ele>1496.6</ele>
        <time>2022-05-14T08:06:51Z</time>
      </trkpt>
      <trkpt lat="42.96251" lon="-0.25945">
        <ele>1497</ele>
        <time>2022-05-14T08:06:53Z</time>
      </trkpt>
      <trkpt lat="42.96258" lon="-0.25938">
        <ele>1498.2</ele>
        <time>2022-05-14T08:07:00Z</time>
      </trkpt>
      <trkpt lat="42.96263" lon="-0.25936">
        <ele>1499.2</ele>
        <time>2022-05-14T08:07:04Z</time>
      </trkpt>
      <trkpt lat="42.96271" lon="-0.25933">
        <ele>1500.4</ele>
        <time>2022-05-14T08:07:10Z</time>
      </trkpt>
      <trkpt lat="42.96278" lon="-0.25931">
        <ele>1501.4</ele>
        <time>2022-05-14T08:07:16Z</time>
      </trkpt>
      <trkpt lat="42.96281" lon="-0.25931">
        <ele>1501.8</ele>
        <time>2022-05-14T08:07:18Z</time>
      </trkpt>
      <trkpt lat="42.96285" lon="-0.2593">
        <ele>1502.6</ele>
        <time>2022-05-14T08:07:21Z</time>
      </trkpt>
      <trkpt lat="42.96291" lon="-0.2593">
        <ele>1503.6</ele>
        <time>2022-05-14T08:07:26Z</time>
      </trkpt>
      <trkpt lat="42.96293" lon="-0.25929">
        <ele>1504.2</ele>
        <time>2022-05-14T08:07:28Z</time>
      </trkpt>
      <trkpt lat="42.96296" lon="-0.25929">
        <ele>1505.2</ele>
        <time>2022-05-14T08:07:31Z</time>
      </trkpt>
      <trkpt lat="42.96302" lon="-0.25929">
        <ele>1506.4</ele>
        <time>2022-05-14T08:07:36Z</time>
      </trkpt>
      <trkpt lat="42.96309" lon="-0.25929">
        <ele>1507.6</ele>
        <time>2022-05-14T08:07:42Z</time>
      </trkpt>
      <trkpt lat="42.96314" lon="-0.25928">
        <ele>1508.6</ele>
        <time>2022-05-14T08:07:46Z</time>
      </trkpt>
      <trkpt lat="42.96315" lon="-0.25928">
        <ele>1509</ele>
        <time>2022-05-14T08:07:47Z</time>
      </trkpt>
      <trkpt lat="42.96321" lon="-0.25927">
        <ele>1510</ele>
        <time>2022-05-14T08:07:52Z</time>
      </trkpt>
      <trkpt lat="42.96325" lon="-0.25927">
        <ele>1511</ele>
        <time>2022-05-14T08:07:55Z</time>
      </trkpt>
      <trkpt lat="42.9633" lon="-0.25927">
        <ele>1512.4</ele>
        <time>2022-05-14T08:07:59Z</time>
      </trkpt>
      <trkpt lat="42.96333" lon="-0.25928">
        <ele>1513.4</ele>
        <time>2022-05-14T08:08:02Z</time>
      </trkpt>
      <trkpt lat="42.96338" lon="-0.25928">
        <ele>1514.2</ele>
        <time>2022-05-14T08:08:06Z</time>
      </trkpt>
      <trkpt lat="42.9634" lon="-0.25927">
        <ele>1514.8</ele>
        <time>2022-05-14T08:08:08Z</time>
      </trkpt>
      <trkpt lat="42.96348" lon="-0.25924">
        <ele>1516</ele>
        <time>2022-05-14T08:08:14Z</time>
      </trkpt>
      <trkpt lat="42.96349" lon="-0.25924">
        <ele>1516.2</ele>
        <time>2022-05-14T08:08:15Z</time>
      </trkpt>
      <trkpt lat="42.96354" lon="-0.25924">
        <ele>1517.2</ele>
        <time>2022-05-14T08:08:19Z</time>
      </trkpt>
      <trkpt lat="42.96358" lon="-0.25924">
        <ele>1518.2</ele>
        <time>2022-05-14T08:08:23Z</time>
      </trkpt>
      <trkpt lat="42.96361" lon="-0.25925">
        <ele>1518.6</ele>
        <time>2022-05-14T08:08:25Z</time>
      </trkpt>
      <trkpt lat="42.96365" lon="-0.25926">
        <ele>1519.4</ele>
        <time>2022-05-14T08:08:28Z</time>
      </trkpt>
      <trkpt lat="42.96373" lon="-0.25927">
        <ele>1520.4</ele>
        <time>2022-05-14T08:08:34Z</time>
      </trkpt>
      <trkpt lat="42.96381" lon="-0.25927">
        <ele>1521.6</ele>
        <time>2022-05-14T08:08:41Z</time>
      </trkpt>
      <trkpt lat="42.96385" lon="-0.25929">
        <ele>1522.2</ele>
        <time>2022-05-14T08:08:44Z</time>
      </trkpt>
      <trkpt lat="42.96387" lon="-0.25931">
        <ele>1522.6</ele>
        <time>2022-05-14T08:08:46Z</time>
      </trkpt>
      <trkpt lat="42.96394" lon="-0.25937">
        <ele>1523.6</ele>
        <time>2022-05-14T08:08:53Z</time>
      </trkpt>
      <trkpt lat="42.96399" lon="-0.25941">
        <ele>1524.8</ele>
        <time>2022-05-14T08:08:58Z</time>
      </trkpt>
      <trkpt lat="42.96403" lon="-0.25942">
        <ele>1525.2</ele>
        <time>2022-05-14T08:09:01Z</time>
      </trkpt>
      <trkpt lat="42.96407" lon="-0.25942">
        <ele>1525.8</ele>
        <time>2022-05-14T08:09:05Z</time>
      </trkpt>
      <trkpt lat="42.96413" lon="-0.25943">
        <ele>1526.8</ele>
        <time>2022-05-14T08:09:10Z</time>
      </trkpt>
      <trkpt lat="42.96418" lon="-0.25943">
        <ele>1528</ele>
        <time>2022-05-14T08:09:15Z</time>
      </trkpt>
      <trkpt lat="42.96423" lon="-0.25942">
        <ele>1529</ele>
        <time>2022-05-14T08:09:19Z</time>
      </trkpt>
      <trkpt lat="42.9643" lon="-0.25941">
        <ele>1530.2</ele>
        <time>2022-05-14T08:09:25Z</time>
      </trkpt>
      <trkpt lat="42.96433" lon="-0.25943">
        <ele>1530.6</ele>
        <time>2022-05-14T08:09:27Z</time>
      </trkpt>
      <trkpt lat="42.96436" lon="-0.25946">
        <ele>1531.2</ele>
        <time>2022-05-14T08:09:30Z</time>
      </trkpt>
      <trkpt lat="42.96437" lon="-0.25948">
        <ele>1531.4</ele>
        <time>2022-05-14T08:09:31Z</time>
      </trkpt>
      <trkpt lat="42.9644" lon="-0.25955">
        <ele>1532</ele>
        <time>2022-05-14T08:09:35Z</time>
      </trkpt>
      <trkpt lat="42.96441" lon="-0.25956">
        <ele>1532.4</ele>
        <time>2022-05-14T08:09:36Z</time>
      </trkpt>
      <trkpt lat="42.96442" lon="-0.25957">
        <ele>1532.6</ele>
        <time>2022-05-14T08:09:37Z</time>
      </trkpt>
      <trkpt lat="42.96445" lon="-0.25958">
        <ele>1533</ele>
        <time>2022-05-14T08:09:39Z</time>
      </trkpt>
      <trkpt lat="42.96446" lon="-0.25957">
        <ele>1533.2</ele>
        <time>2022-05-14T08:09:40Z</time>
      </trkpt>
      <trkpt lat="42.96448" lon="-0.25954">
        <ele>1533.6</ele>
        <time>2022-05-14T08:09:42Z</time>
      </trkpt>
      <trkpt lat="42.96449" lon="-0.25947">
        <ele>1534.6</ele>
        <time>2022-05-14T08:09:46Z</time>
      </trkpt>
      <trkpt lat="42.9645" lon="-0.25945">
        <ele>1534.8</ele>
        <time>2022-05-14T08:09:47Z</time>
      </trkpt>
      <trkpt lat="42.96456" lon="-0.25938">
        <ele>1535.8</ele>
        <time>2022-05-14T08:09:53Z</time>
      </trkpt>
      <trkpt lat="42.96457" lon="-0.25937">
        <ele>1536</ele>
        <time>2022-05-14T08:09:54Z</time>
      </trkpt>
      <trkpt lat="42.96465" lon="-0.25933">
        <ele>1537</ele>
        <time>2022-05-14T08:10:00Z</time>
      </trkpt>
      <trkpt lat="42.96467" lon="-0.25933">
        <ele>1537.4</ele>
        <time>2022-05-14T08:10:01Z</time>
      </trkpt>
      <trkpt lat="42.9647" lon="-0.25933">
        <ele>1538</ele>
        <time>2022-05-14T08:10:04Z</time>
      </trkpt>
      <trkpt lat="42.96478" lon="-0.25935">
        <ele>1539.2</ele>
        <time>2022-05-14T08:10:10Z</time>
      </trkpt>
      <trkpt lat="42.96486" lon="-0.25935">
        <ele>1540.4</ele>
        <time>2022-05-14T08:10:17Z</time>
      </trkpt>
      <trkpt lat="42.96492" lon="-0.25934">
        <ele>1541.6</ele>
        <time>2022-05-14T08:10:22Z</time>
      </trkpt>
      <trkpt lat="42.96495" lon="-0.25933">
        <ele>1541.8</ele>
        <time>2022-05-14T08:10:24Z</time>
      </trkpt>
      <trkpt lat="42.965" lon="-0.25932">
        <ele>1542.6</ele>
        <time>2022-05-14T08:10:28Z</time>
      </trkpt>
      <trkpt lat="42.96506" lon="-0.25931">
        <ele>1543.4</ele>
        <time>2022-05-14T08:10:32Z</time>
      </trkpt>
      <trkpt lat="42.96507" lon="-0.2593">
        <ele>1543.4</ele>
        <time>2022-05-14T08:10:33Z</time>
      </trkpt>
      <trkpt lat="42.96514" lon="-0.2593">
        <ele>1544.6</ele>
        <time>2022-05-14T08:10:38Z</time>
      </trkpt>
      <trkpt lat="42.96521" lon="-0.25928">
        <ele>1545.2</ele>
        <time>2022-05-14T08:10:43Z</time>
      </trkpt>
      <trkpt lat="42.96523" lon="-0.25927">
        <ele>1545.6</ele>
        <time>2022-05-14T08:10:45Z</time>
      </trkpt>
      <trkpt lat="42.9653" lon="-0.25926">
        <ele>1546.6</ele>
        <time>2022-05-14T08:10:50Z</time>
      </trkpt>
      <trkpt lat="42.96531" lon="-0.25926">
        <ele>1547</ele>
        <time>2022-05-14T08:10:51Z</time>
      </trkpt>
      <trkpt lat="42.96536" lon="-0.25925">
        <ele>1547.8</ele>
        <time>2022-05-14T08:10:54Z</time>
      </trkpt>
      <trkpt lat="42.96542" lon="-0.25923">
        <ele>1548.8</ele>
        <time>2022-05-14T08:10:59Z</time>
      </trkpt>
      <trkpt lat="42.96544" lon="-0.25924">
        <ele>1549</ele>
        <time>2022-05-14T08:11:00Z</time>
      </trkpt>
      <trkpt lat="42.96552" lon="-0.25923">
        <ele>1550</ele>
        <time>2022-05-14T08:11:07Z</time>
      </trkpt>
      <trkpt lat="42.96554" lon="-0.25922">
        <ele>1550.2</ele>
        <time>2022-05-14T08:11:08Z</time>
      </trkpt>
      <trkpt lat="42.96561" lon="-0.25923">
        <ele>1551</ele>
        <time>2022-05-14T08:11:13Z</time>
      </trkpt>
      <trkpt lat="42.96565" lon="-0.25923">
        <ele>1551.6</ele>
        <time>2022-05-14T08:11:16Z</time>
      </trkpt>
      <trkpt lat="42.9657" lon="-0.25924">
        <ele>1552.2</ele>
        <time>2022-05-14T08:11:19Z</time>
      </trkpt>
      <trkpt lat="42.96576" lon="-0.25923">
        <ele>1552.6</ele>
        <time>2022-05-14T08:11:23Z</time>
      </trkpt>
      <trkpt lat="42.9658" lon="-0.25921">
        <ele>1553.2</ele>
        <time>2022-05-14T08:11:26Z</time>
      </trkpt>
      <trkpt lat="42.9659" lon="-0.25919">
        <ele>1553.8</ele>
        <time>2022-05-14T08:11:32Z</time>
      </trkpt>
      <trkpt lat="42.96594" lon="-0.25919">
        <ele>1554.2</ele>
        <time>2022-05-14T08:11:35Z</time>
      </trkpt>
      <trkpt lat="42.96601" lon="-0.25919">
        <ele>1555</ele>
        <time>2022-05-14T08:11:40Z</time>
      </trkpt>
      <trkpt lat="42.96604" lon="-0.25919">
        <ele>1555.4</ele>
        <time>2022-05-14T08:11:42Z</time>
      </trkpt>
      <trkpt lat="42.9661" lon="-0.25919">
        <ele>1556.4</ele>
        <time>2022-05-14T08:11:47Z</time>
      </trkpt>
      <trkpt lat="42.96613" lon="-0.25919">
        <ele>1557</ele>
        <time>2022-05-14T08:11:49Z</time>
      </trkpt>
      <trkpt lat="42.96618" lon="-0.25919">
        <ele>1557.6</ele>
        <time>2022-05-14T08:11:53Z</time>
      </trkpt>
      <trkpt lat="42.96622" lon="-0.2592">
        <ele>1558</ele>
        <time>2022-05-14T08:11:56Z</time>
      </trkpt>
      <trkpt lat="42.96627" lon="-0.2592">
        <ele>1558.8</ele>
        <time>2022-05-14T08:12:00Z</time>
      </trkpt>
      <trkpt lat="42.96629" lon="-0.25921">
        <ele>1558.8</ele>
        <time>2022-05-14T08:12:01Z</time>
      </trkpt>
      <trkpt lat="42.96632" lon="-0.25923">
        <ele>1559.2</ele>
        <time>2022-05-14T08:12:04Z</time>
      </trkpt>
      <trkpt lat="42.96636" lon="-0.25925">
        <ele>1559.8</ele>
        <time>2022-05-14T08:12:07Z</time>
      </trkpt>
      <trkpt lat="42.96643" lon="-0.25929">
        <ele>1560.8</ele>
        <time>2022-05-14T08:12:12Z</time>
      </trkpt>
      <trkpt lat="42.9665" lon="-0.25934">
        <ele>1562</ele>
        <time>2022-05-14T08:12:18Z</time>
      </trkpt>
      <trkpt lat="42.96653" lon="-0.25936">
        <ele>1562.6</ele>
        <time>2022-05-14T08:12:20Z</time>
      </trkpt>
      <trkpt lat="42.96657" lon="-0.25937">
        <ele>1563</ele>
        <time>2022-05-14T08:12:23Z</time>
      </trkpt>
      <trkpt lat="42.96661" lon="-0.25941">
        <ele>1563.8</ele>
        <time>2022-05-14T08:12:26Z</time>
      </trkpt>
      <trkpt lat="42.96663" lon="-0.25944">
        <ele>1564.4</ele>
        <time>2022-05-14T08:12:28Z</time>
      </trkpt>
      <trkpt lat="42.96669" lon="-0.2595">
        <ele>1565</ele>
        <time>2022-05-14T08:12:33Z</time>
      </trkpt>
      <trkpt lat="42.96674" lon="-0.25954">
        <ele>1565.2</ele>
        <time>2022-05-14T08:12:36Z</time>
      </trkpt>
      <trkpt lat="42.96686" lon="-0.25967">
        <ele>1566</ele>
        <time>2022-05-14T08:12:43Z</time>
      </trkpt>
      <trkpt lat="42.96703" lon="-0.25983">
        <ele>1566</ele>
        <time>2022-05-14T08:12:52Z</time>
      </trkpt>
      <trkpt lat="42.96712" lon="-0.25988">
        <ele>1566.2</ele>
        <time>2022-05-14T08:12:57Z</time>
      </trkpt>
      <trkpt lat="42.96715" lon="-0.2599">
        <ele>1566.4</ele>
        <time>2022-05-14T08:12:59Z</time>
      </trkpt>
      <trkpt lat="42.96726" lon="-0.26001">
        <ele>1567.4</ele>
        <time>2022-05-14T08:13:06Z</time>
      </trkpt>
      <trkpt lat="42.96729" lon="-0.26003">
        <ele>1567.4</ele>
        <time>2022-05-14T08:13:08Z</time>
      </trkpt>
      <trkpt lat="42.96737" lon="-0.26011">
        <ele>1568.4</ele>
        <time>2022-05-14T08:13:14Z</time>
      </trkpt>
      <trkpt lat="42.96741" lon="-0.26015">
        <ele>1569</ele>
        <time>2022-05-14T08:13:17Z</time>
      </trkpt>
      <trkpt lat="42.96751" lon="-0.26022">
        <ele>1569.2</ele>
        <time>2022-05-14T08:13:23Z</time>
      </trkpt>
      <trkpt lat="42.96757" lon="-0.26025">
        <ele>1569.4</ele>
        <time>2022-05-14T08:13:26Z</time>
      </trkpt>
      <trkpt lat="42.96772" lon="-0.26035">
        <ele>1569.4</ele>
        <time>2022-05-14T08:13:35Z</time>
      </trkpt>
      <trkpt lat="42.96787" lon="-0.26041">
        <ele>1569.4</ele>
        <time>2022-05-14T08:13:44Z</time>
      </trkpt>
      <trkpt lat="42.96811" lon="-0.26052">
        <ele>1569.4</ele>
        <time>2022-05-14T08:13:58Z</time>
      </trkpt>
      <trkpt lat="42.96827" lon="-0.26058">
        <ele>1569.4</ele>
        <time>2022-05-14T08:14:05Z</time>
      </trkpt>
      <trkpt lat="42.96842" lon="-0.26064">
        <ele>1569.4</ele>
        <time>2022-05-14T08:14:13Z</time>
      </trkpt>
      <trkpt lat="42.9686" lon="-0.26069">
        <ele>1570</ele>
        <time>2022-05-14T08:14:22Z</time>
      </trkpt>
      <trkpt lat="42.96863" lon="-0.26069">
        <ele>1570</ele>
        <time>2022-05-14T08:14:24Z</time>
      </trkpt>
      <trkpt lat="42.96872" lon="-0.2607">
        <ele>1570.4</ele>
        <time>2022-05-14T08:14:29Z</time>
      </trkpt>
      <trkpt lat="42.9689" lon="-0.2607">
        <ele>1571.2</ele>
        <time>2022-05-14T08:14:38Z</time>
      </trkpt>
      <trkpt lat="42.96897" lon="-0.26069">
        <ele>1571.8</ele>
        <time>2022-05-14T08:14:42Z</time>
      </trkpt>
      <trkpt lat="42.96901" lon="-0.26068">
        <ele>1572.2</ele>
        <time>2022-05-14T08:14:45Z</time>
      </trkpt>
      <trkpt lat="42.96908" lon="-0.26065">
        <ele>1572.8</ele>
        <time>2022-05-14T08:14:49Z</time>
      </trkpt>
      <trkpt lat="42.96911" lon="-0.26064">
        <ele>1573.2</ele>
        <time>2022-05-14T08:14:51Z</time>
      </trkpt>
      <trkpt lat="42.96919" lon="-0.26062">
        <ele>1574.4</ele>
        <time>2022-05-14T08:14:56Z</time>
      </trkpt>
      <trkpt lat="42.96921" lon="-0.26062">
        <ele>1574.6</ele>
        <time>2022-05-14T08:14:57Z</time>
      </trkpt>
      <trkpt lat="42.96928" lon="-0.26059">
        <ele>1575.4</ele>
        <time>2022-05-14T08:15:02Z</time>
      </trkpt>
      <trkpt lat="42.96933" lon="-0.26055">
        <ele>1576.2</ele>
        <time>2022-05-14T08:15:06Z</time>
      </trkpt>
      <trkpt lat="42.96935" lon="-0.26054">
        <ele>1576.4</ele>
        <time>2022-05-14T08:15:07Z</time>
      </trkpt>
      <trkpt lat="42.96945" lon="-0.26048">
        <ele>1577.4</ele>
        <time>2022-05-14T08:15:14Z</time>
      </trkpt>
      <trkpt lat="42.96951" lon="-0.26042">
        <ele>1578.2</ele>
        <time>2022-05-14T08:15:18Z</time>
      </trkpt>
      <trkpt lat="42.96953" lon="-0.26039">
        <ele>1578.4</ele>
        <time>2022-05-14T08:15:20Z</time>
      </trkpt>
      <trkpt lat="42.96962" lon="-0.26034">
        <ele>1579</ele>
        <time>2022-05-14T08:15:25Z</time>
      </trkpt>
      <trkpt lat="42.96968" lon="-0.26035">
        <ele>1579.4</ele>
        <time>2022-05-14T08:15:29Z</time>
      </trkpt>
      <trkpt lat="42.96972" lon="-0.26036">
        <ele>1579.8</ele>
        <time>2022-05-14T08:15:32Z</time>
      </trkpt>
      <trkpt lat="42.96976" lon="-0.26037">
        <ele>1580.4</ele>
        <time>2022-05-14T08:15:35Z</time>
      </trkpt>
      <trkpt lat="42.96983" lon="-0.26037">
        <ele>1581.4</ele>
        <time>2022-05-14T08:15:40Z</time>
      </trkpt>
      <trkpt lat="42.96991" lon="-0.26039">
        <ele>1582.6</ele>
        <time>2022-05-14T08:15:45Z</time>
      </trkpt>
      <trkpt lat="42.96995" lon="-0.26041">
        <ele>1583</ele>
        <time>2022-05-14T08:15:47Z</time>
      </trkpt>
      <trkpt lat="42.97004" lon="-0.26044">
        <ele>1583.6</ele>
        <time>2022-05-14T08:15:52Z</time>
      </trkpt>
      <trkpt lat="42.9701" lon="-0.26043">
        <ele>1584</ele>
        <time>2022-05-14T08:15:55Z</time>
      </trkpt>
      <trkpt lat="42.9702" lon="-0.26037">
        <ele>1584.8</ele>
        <time>2022-05-14T08:16:02Z</time>
      </trkpt>
      <trkpt lat="42.97027" lon="-0.2603">
        <ele>1585.2</ele>
        <time>2022-05-14T08:16:09Z</time>
      </trkpt>
      <trkpt lat="42.97032" lon="-0.26022">
        <ele>1585.8</ele>
        <time>2022-05-14T08:16:16Z</time>
      </trkpt>
      <trkpt lat="42.97032" lon="-0.26022">
        <ele>1585.8</ele>
        <time>2022-05-14T08:16:17Z</time>
      </trkpt>
      <trkpt lat="42.9703" lon="-0.26014">
        <ele>1586</ele>
        <time>2022-05-14T08:19:26Z</time>
      </trkpt>
      <trkpt lat="42.97025" lon="-0.25999">
        <ele>1586.4</ele>
        <time>2022-05-14T08:19:34Z</time>
      </trkpt>
      <trkpt lat="42.97022" lon="-0.25991">
        <ele>1586.8</ele>
        <time>2022-05-14T08:19:39Z</time>
      </trkpt>
      <trkpt lat="42.97021" lon="-0.25986">
        <ele>1587</ele>
        <time>2022-05-14T08:19:41Z</time>
      </trkpt>
      <trkpt lat="42.97019" lon="-0.25977">
        <ele>1587.4</ele>
        <time>2022-05-14T08:19:44Z</time>
      </trkpt>
      <trkpt lat="42.97015" lon="-0.25964">
        <ele>1587.4</ele>
        <time>2022-05-14T08:19:48Z</time>
      </trkpt>
      <trkpt lat="42.97005" lon="-0.25939">
        <ele>1587.4</ele>
        <time>2022-05-14T08:19:55Z</time>
      </trkpt>
      <trkpt lat="42.96996" lon="-0.25928">
        <ele>1587.6</ele>
        <time>2022-05-14T08:20:01Z</time>
      </trkpt>
      <trkpt lat="42.96984" lon="-0.25914">
        <ele>1588.2</ele>
        <time>2022-05-14T08:20:09Z</time>
      </trkpt>
      <trkpt lat="42.96983" lon="-0.25914">
        <ele>1588.2</ele>
        <time>2022-05-14T08:20:10Z</time>
      </trkpt>
      <trkpt lat="42.96981" lon="-0.25909">
        <ele>1588.4</ele>
        <time>2022-05-14T08:20:12Z</time>
      </trkpt>
      <trkpt lat="42.96979" lon="-0.25905">
        <ele>1588.6</ele>
        <time>2022-05-14T08:20:14Z</time>
      </trkpt>
      <trkpt lat="42.96967" lon="-0.25887">
        <ele>1589.2</ele>
        <time>2022-05-14T08:20:20Z</time>
      </trkpt>
      <trkpt lat="42.96964" lon="-0.25882">
        <ele>1589.2</ele>
        <time>2022-05-14T08:20:21Z</time>
      </trkpt>
      <trkpt lat="42.96958" lon="-0.2587">
        <ele>1589</ele>
        <time>2022-05-14T08:20:23Z</time>
      </trkpt>
      <trkpt lat="42.96956" lon="-0.25863">
        <ele>1589</ele>
        <time>2022-05-14T08:20:24Z</time>
      </trkpt>
      <trkpt lat="42.9695" lon="-0.25839">
        <ele>1588.6</ele>
        <time>2022-05-14T08:20:27Z</time>
      </trkpt>
      <trkpt lat="42.96948" lon="-0.25822">
        <ele>1588</ele>
        <time>2022-05-14T08:20:29Z</time>
      </trkpt>
      <trkpt lat="42.96945" lon="-0.25782">
        <ele>1587.2</ele>
        <time>2022-05-14T08:20:34Z</time>
      </trkpt>
      <trkpt lat="42.96945" lon="-0.25765">
        <ele>1586.8</ele>
        <time>2022-05-14T08:20:36Z</time>
      </trkpt>
      <trkpt lat="42.96946" lon="-0.25738">
        <ele>1586.2</ele>
        <time>2022-05-14T08:20:39Z</time>
      </trkpt>
      <trkpt lat="42.96946" lon="-0.25729">
        <ele>1586</ele>
        <time>2022-05-14T08:20:40Z</time>
      </trkpt>
      <trkpt lat="42.96948" lon="-0.25703">
        <ele>1585.6</ele>
        <time>2022-05-14T08:20:43Z</time>
      </trkpt>
      <trkpt lat="42.96948" lon="-0.25695">
        <ele>1585.4</ele>
        <time>2022-05-14T08:20:44Z</time>
      </trkpt>
      <trkpt lat="42.9695" lon="-0.25677">
        <ele>1585</ele>
        <time>2022-05-14T08:20:46Z</time>
      </trkpt>
      <trkpt lat="42.96952" lon="-0.25659">
        <ele>1584.8</ele>
        <time>2022-05-14T08:20:48Z</time>
      </trkpt>
      <trkpt lat="42.96954" lon="-0.25641">
        <ele>1584</ele>
        <time>2022-05-14T08:20:50Z</time>
      </trkpt>
      <trkpt lat="42.96957" lon="-0.25621">
        <ele>1582.6</ele>
        <time>2022-05-14T08:20:52Z</time>
      </trkpt>
      <trkpt lat="42.9696" lon="-0.25601">
        <ele>1581.6</ele>
        <time>2022-05-14T08:20:54Z</time>
      </trkpt>
      <trkpt lat="42.96966" lon="-0.25569">
        <ele>1580.6</ele>
        <time>2022-05-14T08:20:57Z</time>
      </trkpt>
      <trkpt lat="42.9697" lon="-0.25547">
        <ele>1579.2</ele>
        <time>2022-05-14T08:20:59Z</time>
      </trkpt>
      <trkpt lat="42.96976" lon="-0.25512">
        <ele>1578</ele>
        <time>2022-05-14T08:21:02Z</time>
      </trkpt>
      <trkpt lat="42.9698" lon="-0.25489">
        <ele>1576.8</ele>
        <time>2022-05-14T08:21:04Z</time>
      </trkpt>
      <trkpt lat="42.96983" lon="-0.25477">
        <ele>1576</ele>
        <time>2022-05-14T08:21:05Z</time>
      </trkpt>
      <trkpt lat="42.96991" lon="-0.25459">
        <ele>1575.2</ele>
        <time>2022-05-14T08:21:07Z</time>
      </trkpt>
      <trkpt lat="42.97011" lon="-0.25432">
        <ele>1574</ele>
        <time>2022-05-14T08:21:11Z</time>
      </trkpt>
      <trkpt lat="42.97017" lon="-0.25426">
        <ele>1573.8</ele>
        <time>2022-05-14T08:21:12Z</time>
      </trkpt>
      <trkpt lat="42.97031" lon="-0.2541">
        <ele>1573</ele>
        <time>2022-05-14T08:21:15Z</time>
      </trkpt>
      <trkpt lat="42.97036" lon="-0.25405">
        <ele>1573</ele>
        <time>2022-05-14T08:21:16Z</time>
      </trkpt>
      <trkpt lat="42.9704" lon="-0.254">
        <ele>1572.8</ele>
        <time>2022-05-14T08:21:17Z</time>
      </trkpt>
      <trkpt lat="42.97049" lon="-0.25384">
        <ele>1572.2</ele>
        <time>2022-05-14T08:21:20Z</time>
      </trkpt>
      <trkpt lat="42.97055" lon="-0.25375">
        <ele>1571.8</ele>
        <time>2022-05-14T08:21:22Z</time>
      </trkpt>
      <trkpt lat="42.9706" lon="-0.25365">
        <ele>1571.4</ele>
        <time>2022-05-14T08:21:24Z</time>
      </trkpt>
      <trkpt lat="42.97068" lon="-0.25351">
        <ele>1571.4</ele>
        <time>2022-05-14T08:21:27Z</time>
      </trkpt>
      <trkpt lat="42.9707" lon="-0.25344">
        <ele>1571.2</ele>
        <time>2022-05-14T08:21:28Z</time>
      </trkpt>
      <trkpt lat="42.97078" lon="-0.25319">
        <ele>1570.8</ele>
        <time>2022-05-14T08:21:32Z</time>
      </trkpt>
      <trkpt lat="42.97081" lon="-0.25306">
        <ele>1570.6</ele>
        <time>2022-05-14T08:21:34Z</time>
      </trkpt>
      <trkpt lat="42.97085" lon="-0.25275">
        <ele>1570</ele>
        <time>2022-05-14T08:21:39Z</time>
      </trkpt>
      <trkpt lat="42.97085" lon="-0.25268">
        <ele>1569.8</ele>
        <time>2022-05-14T08:21:40Z</time>
      </trkpt>
      <trkpt lat="42.97085" lon="-0.25261">
        <ele>1569.6</ele>
        <time>2022-05-14T08:21:41Z</time>
      </trkpt>
      <trkpt lat="42.97083" lon="-0.25221">
        <ele>1569</ele>
        <time>2022-05-14T08:21:46Z</time>
      </trkpt>
      <trkpt lat="42.97083" lon="-0.25187">
        <ele>1568.4</ele>
        <time>2022-05-14T08:21:49Z</time>
      </trkpt>
      <trkpt lat="42.97084" lon="-0.25175">
        <ele>1568.2</ele>
        <time>2022-05-14T08:21:50Z</time>
      </trkpt>
      <trkpt lat="42.97086" lon="-0.25139">
        <ele>1567</ele>
        <time>2022-05-14T08:21:53Z</time>
      </trkpt>
      <trkpt lat="42.97086" lon="-0.25127">
        <ele>1565.8</ele>
        <time>2022-05-14T08:21:54Z</time>
      </trkpt>
      <trkpt lat="42.97087" lon="-0.25102">
        <ele>1564.8</ele>
        <time>2022-05-14T08:21:56Z</time>
      </trkpt>
      <trkpt lat="42.97089" lon="-0.25064">
        <ele>1563.4</ele>
        <time>2022-05-14T08:21:59Z</time>
      </trkpt>
      <trkpt lat="42.9709" lon="-0.25024">
        <ele>1562.4</ele>
        <time>2022-05-14T08:22:02Z</time>
      </trkpt>
      <trkpt lat="42.97091" lon="-0.25011">
        <ele>1561.6</ele>
        <time>2022-05-14T08:22:03Z</time>
      </trkpt>
      <trkpt lat="42.97098" lon="-0.24987">
        <ele>1560.6</ele>
        <time>2022-05-14T08:22:05Z</time>
      </trkpt>
      <trkpt lat="42.97106" lon="-0.24966">
        <ele>1559.4</ele>
        <time>2022-05-14T08:22:07Z</time>
      </trkpt>
      <trkpt lat="42.97116" lon="-0.24931">
        <ele>1558.2</ele>
        <time>2022-05-14T08:22:10Z</time>
      </trkpt>
      <trkpt lat="42.97123" lon="-0.24897">
        <ele>1557.2</ele>
        <time>2022-05-14T08:22:13Z</time>
      </trkpt>
      <trkpt lat="42.97129" lon="-0.24875">
        <ele>1555.6</ele>
        <time>2022-05-14T08:22:15Z</time>
      </trkpt>
      <trkpt lat="42.97134" lon="-0.24866">
        <ele>1554.2</ele>
        <time>2022-05-14T08:22:16Z</time>
      </trkpt>
      <trkpt lat="42.97146" lon="-0.24849">
        <ele>1553</ele>
        <time>2022-05-14T08:22:18Z</time>
      </trkpt>
      <trkpt lat="42.97153" lon="-0.24843">
        <ele>1552.6</ele>
        <time>2022-05-14T08:22:19Z</time>
      </trkpt>
      <trkpt lat="42.97161" lon="-0.24838">
        <ele>1550.4</ele>
        <time>2022-05-14T08:22:20Z</time>
      </trkpt>
      <trkpt lat="42.97169" lon="-0.24834">
        <ele>1549.2</ele>
        <time>2022-05-14T08:22:21Z</time>
      </trkpt>
      <trkpt lat="42.97176" lon="-0.2483">
        <ele>1547.4</ele>
        <time>2022-05-14T08:22:22Z</time>
      </trkpt>
      <trkpt lat="42.97182" lon="-0.24827">
        <ele>1546.6</ele>
        <time>2022-05-14T08:22:23Z</time>
      </trkpt>
      <trkpt lat="42.97188" lon="-0.24824">
        <ele>1545.8</ele>
        <time>2022-05-14T08:22:24Z</time>
      </trkpt>
      <trkpt lat="42.972" lon="-0.24817">
        <ele>1545</ele>
        <time>2022-05-14T08:22:27Z</time>
      </trkpt>
      <trkpt lat="42.97217" lon="-0.24806">
        <ele>1544.8</ele>
        <time>2022-05-14T08:22:31Z</time>
      </trkpt>
      <trkpt lat="42.97226" lon="-0.24796">
        <ele>1544.8</ele>
        <time>2022-05-14T08:22:33Z</time>
      </trkpt>
      <trkpt lat="42.97231" lon="-0.2479">
        <ele>1544.6</ele>
        <time>2022-05-14T08:22:34Z</time>
      </trkpt>
      <trkpt lat="42.97248" lon="-0.24761">
        <ele>1544.2</ele>
        <time>2022-05-14T08:22:38Z</time>
      </trkpt>
      <trkpt lat="42.97252" lon="-0.24753">
        <ele>1543.8</ele>
        <time>2022-05-14T08:22:39Z</time>
      </trkpt>
      <trkpt lat="42.97255" lon="-0.24743">
        <ele>1543.6</ele>
        <time>2022-05-14T08:22:40Z</time>
      </trkpt>
      <trkpt lat="42.97264" lon="-0.24721">
        <ele>1543.6</ele>
        <time>2022-05-14T08:22:42Z</time>
      </trkpt>
      <trkpt lat="42.97288" lon="-0.24677">
        <ele>1542.6</ele>
        <time>2022-05-14T08:22:46Z</time>
      </trkpt>
      <trkpt lat="42.973" lon="-0.24657">
        <ele>1541.2</ele>
        <time>2022-05-14T08:22:48Z</time>
      </trkpt>
      <trkpt lat="42.9731" lon="-0.2464">
        <ele>1540</ele>
        <time>2022-05-14T08:22:50Z</time>
      </trkpt>
      <trkpt lat="42.97318" lon="-0.24627">
        <ele>1538.8</ele>
        <time>2022-05-14T08:22:52Z</time>
      </trkpt>
      <trkpt lat="42.97327" lon="-0.24618">
        <ele>1538</ele>
        <time>2022-05-14T08:22:54Z</time>
      </trkpt>
      <trkpt lat="42.97333" lon="-0.24616">
        <ele>1537.6</ele>
        <time>2022-05-14T08:22:55Z</time>
      </trkpt>
      <trkpt lat="42.97338" lon="-0.24615">
        <ele>1537.4</ele>
        <time>2022-05-14T08:22:56Z</time>
      </trkpt>
      <trkpt lat="42.97347" lon="-0.24615">
        <ele>1537.2</ele>
        <time>2022-05-14T08:22:58Z</time>
      </trkpt>
      <trkpt lat="42.97357" lon="-0.24614">
        <ele>1536.8</ele>
        <time>2022-05-14T08:23:00Z</time>
      </trkpt>
      <trkpt lat="42.97362" lon="-0.24612">
        <ele>1536.6</ele>
        <time>2022-05-14T08:23:01Z</time>
      </trkpt>
      <trkpt lat="42.97368" lon="-0.24609">
        <ele>1536.4</ele>
        <time>2022-05-14T08:23:02Z</time>
      </trkpt>
      <trkpt lat="42.97377" lon="-0.24596">
        <ele>1535.4</ele>
        <time>2022-05-14T08:23:04Z</time>
      </trkpt>
      <trkpt lat="42.97381" lon="-0.24588">
        <ele>1535</ele>
        <time>2022-05-14T08:23:05Z</time>
      </trkpt>
      <trkpt lat="42.97387" lon="-0.24575">
        <ele>1534.2</ele>
        <time>2022-05-14T08:23:07Z</time>
      </trkpt>
      <trkpt lat="42.97391" lon="-0.2457">
        <ele>1533.8</ele>
        <time>2022-05-14T08:23:08Z</time>
      </trkpt>
      <trkpt lat="42.97396" lon="-0.24564">
        <ele>1533.2</ele>
        <time>2022-05-14T08:23:09Z</time>
      </trkpt>
      <trkpt lat="42.97401" lon="-0.24559">
        <ele>1532.4</ele>
        <time>2022-05-14T08:23:10Z</time>
      </trkpt>
      <trkpt lat="42.97407" lon="-0.24554">
        <ele>1532</ele>
        <time>2022-05-14T08:23:11Z</time>
      </trkpt>
      <trkpt lat="42.97413" lon="-0.2455">
        <ele>1531</ele>
        <time>2022-05-14T08:23:12Z</time>
      </trkpt>
      <trkpt lat="42.97418" lon="-0.24545">
        <ele>1530.2</ele>
        <time>2022-05-14T08:23:13Z</time>
      </trkpt>
      <trkpt lat="42.97423" lon="-0.2454">
        <ele>1529.2</ele>
        <time>2022-05-14T08:23:14Z</time>
      </trkpt>
      <trkpt lat="42.97434" lon="-0.24526">
        <ele>1528</ele>
        <time>2022-05-14T08:23:17Z</time>
      </trkpt>
      <trkpt lat="42.97436" lon="-0.24522">
        <ele>1527.6</ele>
        <time>2022-05-14T08:23:18Z</time>
      </trkpt>
      <trkpt lat="42.97437" lon="-0.2452">
        <ele>1527.4</ele>
        <time>2022-05-14T08:23:19Z</time>
      </trkpt>
      <trkpt lat="42.97437" lon="-0.24518">
        <ele>1526.8</ele>
        <time>2022-05-14T08:23:20Z</time>
      </trkpt>
      <trkpt lat="42.97437" lon="-0.24516">
        <ele>1526.4</ele>
        <time>2022-05-14T08:23:21Z</time>
      </trkpt>
      <trkpt lat="42.97433" lon="-0.24511">
        <ele>1525.8</ele>
        <time>2022-05-14T08:23:24Z</time>
      </trkpt>
      <trkpt lat="42.97428" lon="-0.24509">
        <ele>1525.6</ele>
        <time>2022-05-14T08:23:26Z</time>
      </trkpt>
      <trkpt lat="42.97419" lon="-0.24497">
        <ele>1525.6</ele>
        <time>2022-05-14T08:23:30Z</time>
      </trkpt>
      <trkpt lat="42.97413" lon="-0.2448">
        <ele>1525.6</ele>
        <time>2022-05-14T08:23:34Z</time>
      </trkpt>
      <trkpt lat="42.97409" lon="-0.24478">
        <ele>1525.4</ele>
        <time>2022-05-14T08:23:35Z</time>
      </trkpt>
      <trkpt lat="42.97401" lon="-0.24478">
        <ele>1525.2</ele>
        <time>2022-05-14T08:23:37Z</time>
      </trkpt>
      <trkpt lat="42.97391" lon="-0.24477">
        <ele>1524</ele>
        <time>2022-05-14T08:23:40Z</time>
      </trkpt>
      <trkpt lat="42.97384" lon="-0.24472">
        <ele>1522.8</ele>
        <time>2022-05-14T08:23:42Z</time>
      </trkpt>
      <trkpt lat="42.9738" lon="-0.24463">
        <ele>1521.8</ele>
        <time>2022-05-14T08:23:44Z</time>
      </trkpt>
      <trkpt lat="42.97379" lon="-0.24457">
        <ele>1521.6</ele>
        <time>2022-05-14T08:23:45Z</time>
      </trkpt>
      <trkpt lat="42.97382" lon="-0.24449">
        <ele>1520.6</ele>
        <time>2022-05-14T08:23:47Z</time>
      </trkpt>
      <trkpt lat="42.97388" lon="-0.2445">
        <ele>1519.6</ele>
        <time>2022-05-14T08:23:49Z</time>
      </trkpt>
      <trkpt lat="42.97391" lon="-0.24454">
        <ele>1519.2</ele>
        <time>2022-05-14T08:23:50Z</time>
      </trkpt>
      <trkpt lat="42.97403" lon="-0.2446">
        <ele>1517.6</ele>
        <time>2022-05-14T08:23:54Z</time>
      </trkpt>
      <trkpt lat="42.97422" lon="-0.24454">
        <ele>1516.6</ele>
        <time>2022-05-14T08:24:00Z</time>
      </trkpt>
      <trkpt lat="42.97429" lon="-0.24449">
        <ele>1516.4</ele>
        <time>2022-05-14T08:24:02Z</time>
      </trkpt>
      <trkpt lat="42.97441" lon="-0.24442">
        <ele>1516.8</ele>
        <time>2022-05-14T08:24:05Z</time>
      </trkpt>
      <trkpt lat="42.97446" lon="-0.24441">
        <ele>1516.8</ele>
        <time>2022-05-14T08:24:06Z</time>
      </trkpt>
      <trkpt lat="42.97483" lon="-0.24434">
        <ele>1516.2</ele>
        <time>2022-05-14T08:24:14Z</time>
      </trkpt>
      <trkpt lat="42.97493" lon="-0.24434">
        <ele>1516</ele>
        <time>2022-05-14T08:24:16Z</time>
      </trkpt>
      <trkpt lat="42.97501" lon="-0.24431">
        <ele>1515.6</ele>
        <time>2022-05-14T08:24:18Z</time>
      </trkpt>
      <trkpt lat="42.97506" lon="-0.24428">
        <ele>1515.6</ele>
        <time>2022-05-14T08:24:19Z</time>
      </trkpt>
      <trkpt lat="42.97517" lon="-0.24416">
        <ele>1515.4</ele>
        <time>2022-05-14T08:24:22Z</time>
      </trkpt>
      <trkpt lat="42.97523" lon="-0.24408">
        <ele>1515.4</ele>
        <time>2022-05-14T08:24:24Z</time>
      </trkpt>
      <trkpt lat="42.97541" lon="-0.24391">
        <ele>1515.4</ele>
        <time>2022-05-14T08:24:29Z</time>
      </trkpt>
      <trkpt lat="42.97546" lon="-0.24388">
        <ele>1515.4</ele>
        <time>2022-05-14T08:24:30Z</time>
      </trkpt>
      <trkpt lat="42.97564" lon="-0.24378">
        <ele>1515.6</ele>
        <time>2022-05-14T08:24:34Z</time>
      </trkpt>
      <trkpt lat="42.97572" lon="-0.24371">
        <ele>1515.6</ele>
        <time>2022-05-14T08:24:36Z</time>
      </trkpt>
      <trkpt lat="42.97594" lon="-0.24351">
        <ele>1515.6</ele>
        <time>2022-05-14T08:24:42Z</time>
      </trkpt>
      <trkpt lat="42.97598" lon="-0.24348">
        <ele>1515.6</ele>
        <time>2022-05-14T08:24:43Z</time>
      </trkpt>
      <trkpt lat="42.97624" lon="-0.24331">
        <ele>1515.6</ele>
        <time>2022-05-14T08:24:49Z</time>
      </trkpt>
      <trkpt lat="42.97628" lon="-0.24326">
        <ele>1515.4</ele>
        <time>2022-05-14T08:24:50Z</time>
      </trkpt>
      <trkpt lat="42.97655" lon="-0.24302">
        <ele>1515</ele>
        <time>2022-05-14T08:24:57Z</time>
      </trkpt>
      <trkpt lat="42.97671" lon="-0.24288">
        <ele>1515.2</ele>
        <time>2022-05-14T08:25:02Z</time>
      </trkpt>
      <trkpt lat="42.97687" lon="-0.2427">
        <ele>1516</ele>
        <time>2022-05-14T08:25:08Z</time>
      </trkpt>
      <trkpt lat="42.97705" lon="-0.24263">
        <ele>1516.2</ele>
        <time>2022-05-14T08:25:13Z</time>
      </trkpt>
      <trkpt lat="42.97732" lon="-0.24259">
        <ele>1516.4</ele>
        <time>2022-05-14T08:25:19Z</time>
      </trkpt>
      <trkpt lat="42.97755" lon="-0.24255">
        <ele>1516.4</ele>
        <time>2022-05-14T08:25:25Z</time>
      </trkpt>
      <trkpt lat="42.97775" lon="-0.24266">
        <ele>1516.2</ele>
        <time>2022-05-14T08:25:30Z</time>
      </trkpt>
      <trkpt lat="42.97778" lon="-0.24267">
        <ele>1516.4</ele>
        <time>2022-05-14T08:25:31Z</time>
      </trkpt>
      <trkpt lat="42.97784" lon="-0.24266">
        <ele>1516.4</ele>
        <time>2022-05-14T08:25:33Z</time>
      </trkpt>
      <trkpt lat="42.97798" lon="-0.24256">
        <ele>1516.8</ele>
        <time>2022-05-14T08:25:38Z</time>
      </trkpt>
      <trkpt lat="42.97816" lon="-0.24229">
        <ele>1517</ele>
        <time>2022-05-14T08:25:45Z</time>
      </trkpt>
      <trkpt lat="42.9782" lon="-0.24209">
        <ele>1517.6</ele>
        <time>2022-05-14T08:25:50Z</time>
      </trkpt>
      <trkpt lat="42.97829" lon="-0.24183">
        <ele>1518.2</ele>
        <time>2022-05-14T08:25:57Z</time>
      </trkpt>
      <trkpt lat="42.97833" lon="-0.24179">
        <ele>1518.6</ele>
        <time>2022-05-14T08:25:59Z</time>
      </trkpt>
      <trkpt lat="42.97841" lon="-0.24175">
        <ele>1518.8</ele>
        <time>2022-05-14T08:26:02Z</time>
      </trkpt>
      <trkpt lat="42.97856" lon="-0.24169">
        <ele>1519.4</ele>
        <time>2022-05-14T08:26:09Z</time>
      </trkpt>
      <trkpt lat="42.9786" lon="-0.24167">
        <ele>1519.6</ele>
        <time>2022-05-14T08:26:11Z</time>
      </trkpt>
      <trkpt lat="42.97875" lon="-0.2416">
        <ele>1520.4</ele>
        <time>2022-05-14T08:26:18Z</time>
      </trkpt>
      <trkpt lat="42.97879" lon="-0.24159">
        <ele>1520.8</ele>
        <time>2022-05-14T08:26:20Z</time>
      </trkpt>
      <trkpt lat="42.97892" lon="-0.2416">
        <ele>1521.4</ele>
        <time>2022-05-14T08:26:25Z</time>
      </trkpt>
      <trkpt lat="42.979" lon="-0.24162">
        <ele>1521.8</ele>
        <time>2022-05-14T08:26:28Z</time>
      </trkpt>
      <trkpt lat="42.97913" lon="-0.24164">
        <ele>1522</ele>
        <time>2022-05-14T08:26:32Z</time>
      </trkpt>
      <trkpt lat="42.97931" lon="-0.24156">
        <ele>1522.2</ele>
        <time>2022-05-14T08:26:38Z</time>
      </trkpt>
      <trkpt lat="42.97954" lon="-0.24143">
        <ele>1522.8</ele>
        <time>2022-05-14T08:26:47Z</time>
      </trkpt>
      <trkpt lat="42.97972" lon="-0.24145">
        <ele>1523</ele>
        <time>2022-05-14T08:26:53Z</time>
      </trkpt>
      <trkpt lat="42.98001" lon="-0.24145">
        <ele>1523.8</ele>
        <time>2022-05-14T08:27:03Z</time>
      </trkpt>
      <trkpt lat="42.98004" lon="-0.24144">
        <ele>1523.8</ele>
        <time>2022-05-14T08:27:04Z</time>
      </trkpt>
      <trkpt lat="42.98024" lon="-0.2414">
        <ele>1524.8</ele>
        <time>2022-05-14T08:27:12Z</time>
      </trkpt>
      <trkpt lat="42.9804" lon="-0.24126">
        <ele>1525.4</ele>
        <time>2022-05-14T08:27:19Z</time>
      </trkpt>
      <trkpt lat="42.98053" lon="-0.24103">
        <ele>1525.6</ele>
        <time>2022-05-14T08:27:26Z</time>
      </trkpt>
      <trkpt lat="42.98059" lon="-0.24099">
        <ele>1525.6</ele>
        <time>2022-05-14T08:27:28Z</time>
      </trkpt>
      <trkpt lat="42.98067" lon="-0.24098">
        <ele>1525.8</ele>
        <time>2022-05-14T08:27:30Z</time>
      </trkpt>
      <trkpt lat="42.98091" lon="-0.24094">
        <ele>1525.6</ele>
        <time>2022-05-14T08:27:36Z</time>
      </trkpt>
      <trkpt lat="42.98101" lon="-0.24085">
        <ele>1525.6</ele>
        <time>2022-05-14T08:27:40Z</time>
      </trkpt>
      <trkpt lat="42.9811" lon="-0.24063">
        <ele>1525.6</ele>
        <time>2022-05-14T08:27:47Z</time>
      </trkpt>
      <trkpt lat="42.98126" lon="-0.24035">
        <ele>1526.2</ele>
        <time>2022-05-14T08:27:56Z</time>
      </trkpt>
      <trkpt lat="42.98137" lon="-0.24017">
        <ele>1526.6</ele>
        <time>2022-05-14T08:28:01Z</time>
      </trkpt>
      <trkpt lat="42.98142" lon="-0.24011">
        <ele>1526.8</ele>
        <time>2022-05-14T08:28:03Z</time>
      </trkpt>
      <trkpt lat="42.98152" lon="-0.23999">
        <ele>1526.8</ele>
        <time>2022-05-14T08:28:08Z</time>
      </trkpt>
      <trkpt lat="42.98161" lon="-0.23995">
        <ele>1527</ele>
        <time>2022-05-14T08:28:11Z</time>
      </trkpt>
      <trkpt lat="42.98166" lon="-0.23998">
        <ele>1527.4</ele>
        <time>2022-05-14T08:28:13Z</time>
      </trkpt>
      <trkpt lat="42.98169" lon="-0.24006">
        <ele>1527.8</ele>
        <time>2022-05-14T08:28:16Z</time>
      </trkpt>
      <trkpt lat="42.98173" lon="-0.24015">
        <ele>1528</ele>
        <time>2022-05-14T08:28:19Z</time>
      </trkpt>
      <trkpt lat="42.98178" lon="-0.24025">
        <ele>1528.2</ele>
        <time>2022-05-14T08:28:22Z</time>
      </trkpt>
      <trkpt lat="42.98186" lon="-0.24032">
        <ele>1528.2</ele>
        <time>2022-05-14T08:28:25Z</time>
      </trkpt>
      <trkpt lat="42.98199" lon="-0.24028">
        <ele>1528.6</ele>
        <time>2022-05-14T08:28:30Z</time>
      </trkpt>
      <trkpt lat="42.98206" lon="-0.24022">
        <ele>1528.8</ele>
        <time>2022-05-14T08:28:33Z</time>
      </trkpt>
      <trkpt lat="42.98218" lon="-0.24007">
        <ele>1529</ele>
        <time>2022-05-14T08:28:38Z</time>
      </trkpt>
      <trkpt lat="42.98234" lon="-0.23998">
        <ele>1529.4</ele>
        <time>2022-05-14T08:28:44Z</time>
      </trkpt>
      <trkpt lat="42.98249" lon="-0.23997">
        <ele>1529.6</ele>
        <time>2022-05-14T08:28:50Z</time>
      </trkpt>
      <trkpt lat="42.98257" lon="-0.24">
        <ele>1529.8</ele>
        <time>2022-05-14T08:28:54Z</time>
      </trkpt>
      <trkpt lat="42.98262" lon="-0.24005">
        <ele>1530</ele>
        <time>2022-05-14T08:28:57Z</time>
      </trkpt>
      <trkpt lat="42.98263" lon="-0.24007">
        <ele>1530.2</ele>
        <time>2022-05-14T08:28:58Z</time>
      </trkpt>
      <trkpt lat="42.98265" lon="-0.24016">
        <ele>1530.6</ele>
        <time>2022-05-14T08:29:02Z</time>
      </trkpt>
      <trkpt lat="42.98267" lon="-0.24021">
        <ele>1531</ele>
        <time>2022-05-14T08:29:04Z</time>
      </trkpt>
      <trkpt lat="42.98269" lon="-0.24031">
        <ele>1531.6</ele>
        <time>2022-05-14T08:29:08Z</time>
      </trkpt>
      <trkpt lat="42.98269" lon="-0.24037">
        <ele>1532</ele>
        <time>2022-05-14T08:29:10Z</time>
      </trkpt>
      <trkpt lat="42.98271" lon="-0.24052">
        <ele>1533.2</ele>
        <time>2022-05-14T08:29:16Z</time>
      </trkpt>
      <trkpt lat="42.98272" lon="-0.24059">
        <ele>1533.4</ele>
        <time>2022-05-14T08:29:19Z</time>
      </trkpt>
      <trkpt lat="42.98272" lon="-0.24063">
        <ele>1533.6</ele>
        <time>2022-05-14T08:29:21Z</time>
      </trkpt>
      <trkpt lat="42.98275" lon="-0.24075">
        <ele>1534.4</ele>
        <time>2022-05-14T08:29:26Z</time>
      </trkpt>
      <trkpt lat="42.98278" lon="-0.24091">
        <ele>1534.8</ele>
        <time>2022-05-14T08:29:32Z</time>
      </trkpt>
      <trkpt lat="42.98277" lon="-0.24096">
        <ele>1535</ele>
        <time>2022-05-14T08:29:35Z</time>
      </trkpt>
      <trkpt lat="42.98278" lon="-0.241">
        <ele>1535.2</ele>
        <time>2022-05-14T08:29:37Z</time>
      </trkpt>
      <trkpt lat="42.98279" lon="-0.24103">
        <ele>1535.4</ele>
        <time>2022-05-14T08:29:39Z</time>
      </trkpt>
      <trkpt lat="42.98282" lon="-0.24117">
        <ele>1535.8</ele>
        <time>2022-05-14T08:29:45Z</time>
      </trkpt>
      <trkpt lat="42.9828" lon="-0.24126">
        <ele>1535.8</ele>
        <time>2022-05-14T08:29:47Z</time>
      </trkpt>
      <trkpt lat="42.98275" lon="-0.24136">
        <ele>1535.8</ele>
        <time>2022-05-14T08:29:49Z</time>
      </trkpt>
      <trkpt lat="42.9826" lon="-0.24168">
        <ele>1534.4</ele>
        <time>2022-05-14T08:29:55Z</time>
      </trkpt>
      <trkpt lat="42.98258" lon="-0.24172">
        <ele>1534</ele>
        <time>2022-05-14T08:29:56Z</time>
      </trkpt>
      <trkpt lat="42.98247" lon="-0.24197">
        <ele>1532.8</ele>
        <time>2022-05-14T08:30:00Z</time>
      </trkpt>
      <trkpt lat="42.98244" lon="-0.24205">
        <ele>1532.6</ele>
        <time>2022-05-14T08:30:01Z</time>
      </trkpt>
      <trkpt lat="42.98241" lon="-0.24213">
        <ele>1532.4</ele>
        <time>2022-05-14T08:30:02Z</time>
      </trkpt>
      <trkpt lat="42.98235" lon="-0.24241">
        <ele>1531.2</ele>
        <time>2022-05-14T08:30:05Z</time>
      </trkpt>
      <trkpt lat="42.98233" lon="-0.24249">
        <ele>1531</ele>
        <time>2022-05-14T08:30:06Z</time>
      </trkpt>
      <trkpt lat="42.98229" lon="-0.2427">
        <ele>1530.4</ele>
        <time>2022-05-14T08:30:08Z</time>
      </trkpt>
      <trkpt lat="42.98226" lon="-0.24277">
        <ele>1529.8</ele>
        <time>2022-05-14T08:30:09Z</time>
      </trkpt>
      <trkpt lat="42.98222" lon="-0.24286">
        <ele>1529.4</ele>
        <time>2022-05-14T08:30:10Z</time>
      </trkpt>
      <trkpt lat="42.9821" lon="-0.24303">
        <ele>1528.8</ele>
        <time>2022-05-14T08:30:12Z</time>
      </trkpt>
      <trkpt lat="42.98204" lon="-0.2431">
        <ele>1528</ele>
        <time>2022-05-14T08:30:13Z</time>
      </trkpt>
      <trkpt lat="42.98183" lon="-0.24328">
        <ele>1526.8</ele>
        <time>2022-05-14T08:30:16Z</time>
      </trkpt>
      <trkpt lat="42.98176" lon="-0.24335">
        <ele>1526.6</ele>
        <time>2022-05-14T08:30:17Z</time>
      </trkpt>
      <trkpt lat="42.98169" lon="-0.24343">
        <ele>1526.6</ele>
        <time>2022-05-14T08:30:18Z</time>
      </trkpt>
      <trkpt lat="42.98156" lon="-0.2436">
        <ele>1525.8</ele>
        <time>2022-05-14T08:30:20Z</time>
      </trkpt>
      <trkpt lat="42.9815" lon="-0.24368">
        <ele>1525.4</ele>
        <time>2022-05-14T08:30:21Z</time>
      </trkpt>
      <trkpt lat="42.98147" lon="-0.24377">
        <ele>1524.8</ele>
        <time>2022-05-14T08:30:22Z</time>
      </trkpt>
      <trkpt lat="42.98144" lon="-0.24387">
        <ele>1524.2</ele>
        <time>2022-05-14T08:30:23Z</time>
      </trkpt>
      <trkpt lat="42.98144" lon="-0.24397">
        <ele>1523.2</ele>
        <time>2022-05-14T08:30:24Z</time>
      </trkpt>
      <trkpt lat="42.98143" lon="-0.24407">
        <ele>1522.6</ele>
        <time>2022-05-14T08:30:25Z</time>
      </trkpt>
      <trkpt lat="42.98142" lon="-0.24416">
        <ele>1521.6</ele>
        <time>2022-05-14T08:30:26Z</time>
      </trkpt>
      <trkpt lat="42.98138" lon="-0.24424">
        <ele>1520.8</ele>
        <time>2022-05-14T08:30:27Z</time>
      </trkpt>
      <trkpt lat="42.98133" lon="-0.2443">
        <ele>1520.6</ele>
        <time>2022-05-14T08:30:28Z</time>
      </trkpt>
      <trkpt lat="42.98127" lon="-0.24435">
        <ele>1520.2</ele>
        <time>2022-05-14T08:30:29Z</time>
      </trkpt>
      <trkpt lat="42.98113" lon="-0.24443">
        <ele>1519</ele>
        <time>2022-05-14T08:30:31Z</time>
      </trkpt>
      <trkpt lat="42.98105" lon="-0.24447">
        <ele>1518.6</ele>
        <time>2022-05-14T08:30:32Z</time>
      </trkpt>
      <trkpt lat="42.98081" lon="-0.24459">
        <ele>1517.6</ele>
        <time>2022-05-14T08:30:35Z</time>
      </trkpt>
      <trkpt lat="42.98073" lon="-0.24465">
        <ele>1517.4</ele>
        <time>2022-05-14T08:30:36Z</time>
      </trkpt>
      <trkpt lat="42.98065" lon="-0.24473">
        <ele>1516.4</ele>
        <time>2022-05-14T08:30:37Z</time>
      </trkpt>
      <trkpt lat="42.98061" lon="-0.2448">
        <ele>1516</ele>
        <time>2022-05-14T08:30:38Z</time>
      </trkpt>
      <trkpt lat="42.98059" lon="-0.24492">
        <ele>1514.6</ele>
        <time>2022-05-14T08:30:39Z</time>
      </trkpt>
      <trkpt lat="42.9806" lon="-0.24501">
        <ele>1514</ele>
        <time>2022-05-14T08:30:40Z</time>
      </trkpt>
      <trkpt lat="42.98062" lon="-0.24511">
        <ele>1513.4</ele>
        <time>2022-05-14T08:30:41Z</time>
      </trkpt>
      <trkpt lat="42.98065" lon="-0.24521">
        <ele>1512.2</ele>
        <time>2022-05-14T08:30:42Z</time>
      </trkpt>
      <trkpt lat="42.98067" lon="-0.24533">
        <ele>1512</ele>
        <time>2022-05-14T08:30:43Z</time>
      </trkpt>
      <trkpt lat="42.98067" lon="-0.24543">
        <ele>1511.2</ele>
        <time>2022-05-14T08:30:44Z</time>
      </trkpt>
      <trkpt lat="42.98061" lon="-0.24561">
        <ele>1510</ele>
        <time>2022-05-14T08:30:46Z</time>
      </trkpt>
      <trkpt lat="42.98053" lon="-0.2458">
        <ele>1508.8</ele>
        <time>2022-05-14T08:30:48Z</time>
      </trkpt>
      <trkpt lat="42.98049" lon="-0.24599">
        <ele>1508</ele>
        <time>2022-05-14T08:30:50Z</time>
      </trkpt>
      <trkpt lat="42.98048" lon="-0.2461">
        <ele>1507.6</ele>
        <time>2022-05-14T08:30:51Z</time>
      </trkpt>
      <trkpt lat="42.98048" lon="-0.24634">
        <ele>1507</ele>
        <time>2022-05-14T08:30:53Z</time>
      </trkpt>
      <trkpt lat="42.98051" lon="-0.24658">
        <ele>1506.6</ele>
        <time>2022-05-14T08:30:55Z</time>
      </trkpt>
      <trkpt lat="42.98055" lon="-0.24677">
        <ele>1505.2</ele>
        <time>2022-05-14T08:30:57Z</time>
      </trkpt>
      <trkpt lat="42.98056" lon="-0.24688">
        <ele>1504.8</ele>
        <time>2022-05-14T08:30:58Z</time>
      </trkpt>
      <trkpt lat="42.98056" lon="-0.24696">
        <ele>1504</ele>
        <time>2022-05-14T08:30:59Z</time>
      </trkpt>
      <trkpt lat="42.98056" lon="-0.24702">
        <ele>1503.6</ele>
        <time>2022-05-14T08:31:00Z</time>
      </trkpt>
      <trkpt lat="42.98058" lon="-0.24705">
        <ele>1503</ele>
        <time>2022-05-14T08:31:01Z</time>
      </trkpt>
      <trkpt lat="42.98064" lon="-0.24702">
        <ele>1501.2</ele>
        <time>2022-05-14T08:31:03Z</time>
      </trkpt>
      <trkpt lat="42.98065" lon="-0.24698">
        <ele>1500.6</ele>
        <time>2022-05-14T08:31:04Z</time>
      </trkpt>
      <trkpt lat="42.98065" lon="-0.24691">
        <ele>1499.4</ele>
        <time>2022-05-14T08:31:05Z</time>
      </trkpt>
      <trkpt lat="42.98065" lon="-0.24685">
        <ele>1499</ele>
        <time>2022-05-14T08:31:06Z</time>
      </trkpt>
      <trkpt lat="42.98065" lon="-0.24678">
        <ele>1498</ele>
        <time>2022-05-14T08:31:07Z</time>
      </trkpt>
      <trkpt lat="42.98067" lon="-0.24647">
        <ele>1497</ele>
        <time>2022-05-14T08:31:10Z</time>
      </trkpt>
      <trkpt lat="42.9807" lon="-0.24627">
        <ele>1495.8</ele>
        <time>2022-05-14T08:31:12Z</time>
      </trkpt>
      <trkpt lat="42.98074" lon="-0.24616">
        <ele>1495.6</ele>
        <time>2022-05-14T08:31:13Z</time>
      </trkpt>
      <trkpt lat="42.98078" lon="-0.24606">
        <ele>1495.2</ele>
        <time>2022-05-14T08:31:14Z</time>
      </trkpt>
      <trkpt lat="42.9809" lon="-0.24586">
        <ele>1494.6</ele>
        <time>2022-05-14T08:31:16Z</time>
      </trkpt>
      <trkpt lat="42.98108" lon="-0.2456">
        <ele>1493.4</ele>
        <time>2022-05-14T08:31:19Z</time>
      </trkpt>
      <trkpt lat="42.98119" lon="-0.24541">
        <ele>1492.2</ele>
        <time>2022-05-14T08:31:21Z</time>
      </trkpt>
      <trkpt lat="42.98139" lon="-0.24514">
        <ele>1490.4</ele>
        <time>2022-05-14T08:31:24Z</time>
      </trkpt>
      <trkpt lat="42.98155" lon="-0.24502">
        <ele>1488.8</ele>
        <time>2022-05-14T08:31:26Z</time>
      </trkpt>
      <trkpt lat="42.98171" lon="-0.24495">
        <ele>1487.4</ele>
        <time>2022-05-14T08:31:28Z</time>
      </trkpt>
      <trkpt lat="42.98178" lon="-0.24492">
        <ele>1486.8</ele>
        <time>2022-05-14T08:31:29Z</time>
      </trkpt>
      <trkpt lat="42.98192" lon="-0.24484">
        <ele>1485.8</ele>
        <time>2022-05-14T08:31:31Z</time>
      </trkpt>
      <trkpt lat="42.98206" lon="-0.24477">
        <ele>1484</ele>
        <time>2022-05-14T08:31:33Z</time>
      </trkpt>
      <trkpt lat="42.98213" lon="-0.24474">
        <ele>1483.6</ele>
        <time>2022-05-14T08:31:34Z</time>
      </trkpt>
      <trkpt lat="42.98221" lon="-0.24472">
        <ele>1482.8</ele>
        <time>2022-05-14T08:31:35Z</time>
      </trkpt>
      <trkpt lat="42.98229" lon="-0.24471">
        <ele>1482.4</ele>
        <time>2022-05-14T08:31:36Z</time>
      </trkpt>
      <trkpt lat="42.98245" lon="-0.24471">
        <ele>1481.4</ele>
        <time>2022-05-14T08:31:38Z</time>
      </trkpt>
      <trkpt lat="42.98252" lon="-0.24467">
        <ele>1480.8</ele>
        <time>2022-05-14T08:31:39Z</time>
      </trkpt>
      <trkpt lat="42.98259" lon="-0.24461">
        <ele>1480.4</ele>
        <time>2022-05-14T08:31:40Z</time>
      </trkpt>
      <trkpt lat="42.98264" lon="-0.24454">
        <ele>1480</ele>
        <time>2022-05-14T08:31:41Z</time>
      </trkpt>
      <trkpt lat="42.98275" lon="-0.24439">
        <ele>1479.4</ele>
        <time>2022-05-14T08:31:43Z</time>
      </trkpt>
      <trkpt lat="42.98278" lon="-0.24432">
        <ele>1478.8</ele>
        <time>2022-05-14T08:31:44Z</time>
      </trkpt>
      <trkpt lat="42.98281" lon="-0.24427">
        <ele>1478.4</ele>
        <time>2022-05-14T08:31:45Z</time>
      </trkpt>
      <trkpt lat="42.98287" lon="-0.24421">
        <ele>1477.6</ele>
        <time>2022-05-14T08:31:46Z</time>
      </trkpt>
      <trkpt lat="42.98291" lon="-0.2442">
        <ele>1477.4</ele>
        <time>2022-05-14T08:31:47Z</time>
      </trkpt>
      <trkpt lat="42.98304" lon="-0.24424">
        <ele>1476.6</ele>
        <time>2022-05-14T08:31:49Z</time>
      </trkpt>
      <trkpt lat="42.98312" lon="-0.24435">
        <ele>1475.4</ele>
        <time>2022-05-14T08:31:51Z</time>
      </trkpt>
      <trkpt lat="42.98317" lon="-0.24441">
        <ele>1474.6</ele>
        <time>2022-05-14T08:31:53Z</time>
      </trkpt>
      <trkpt lat="42.98321" lon="-0.24444">
        <ele>1474.2</ele>
        <time>2022-05-14T08:31:54Z</time>
      </trkpt>
      <trkpt lat="42.98335" lon="-0.24449">
        <ele>1474</ele>
        <time>2022-05-14T08:31:58Z</time>
      </trkpt>
      <trkpt lat="42.98354" lon="-0.24446">
        <ele>1473.8</ele>
        <time>2022-05-14T08:32:02Z</time>
      </trkpt>
      <trkpt lat="42.98364" lon="-0.24447">
        <ele>1473.8</ele>
        <time>2022-05-14T08:32:04Z</time>
      </trkpt>
      <trkpt lat="42.9837" lon="-0.24449">
        <ele>1473.8</ele>
        <time>2022-05-14T08:32:05Z</time>
      </trkpt>
      <trkpt lat="42.9838" lon="-0.24453">
        <ele>1473.6</ele>
        <time>2022-05-14T08:32:07Z</time>
      </trkpt>
      <trkpt lat="42.9839" lon="-0.24455">
        <ele>1473.4</ele>
        <time>2022-05-14T08:32:09Z</time>
      </trkpt>
      <trkpt lat="42.984" lon="-0.24458">
        <ele>1473</ele>
        <time>2022-05-14T08:32:11Z</time>
      </trkpt>
      <trkpt lat="42.98424" lon="-0.24471">
        <ele>1472</ele>
        <time>2022-05-14T08:32:16Z</time>
      </trkpt>
      <trkpt lat="42.9843" lon="-0.24475">
        <ele>1471.8</ele>
        <time>2022-05-14T08:32:17Z</time>
      </trkpt>
      <trkpt lat="42.98449" lon="-0.24491">
        <ele>1471</ele>
        <time>2022-05-14T08:32:21Z</time>
      </trkpt>
      <trkpt lat="42.98454" lon="-0.24495">
        <ele>1470.6</ele>
        <time>2022-05-14T08:32:22Z</time>
      </trkpt>
      <trkpt lat="42.98497" lon="-0.24539">
        <ele>1469.4</ele>
        <time>2022-05-14T08:32:31Z</time>
      </trkpt>
      <trkpt lat="42.98512" lon="-0.24562">
        <ele>1468.2</ele>
        <time>2022-05-14T08:32:34Z</time>
      </trkpt>
      <trkpt lat="42.98527" lon="-0.24584">
        <ele>1467</ele>
        <time>2022-05-14T08:32:37Z</time>
      </trkpt>
      <trkpt lat="42.98532" lon="-0.24591">
        <ele>1466</ele>
        <time>2022-05-14T08:32:38Z</time>
      </trkpt>
      <trkpt lat="42.98538" lon="-0.24596">
        <ele>1465</ele>
        <time>2022-05-14T08:32:39Z</time>
      </trkpt>
      <trkpt lat="42.98545" lon="-0.246">
        <ele>1464.6</ele>
        <time>2022-05-14T08:32:40Z</time>
      </trkpt>
      <trkpt lat="42.98553" lon="-0.24602">
        <ele>1463.4</ele>
        <time>2022-05-14T08:32:41Z</time>
      </trkpt>
      <trkpt lat="42.9856" lon="-0.24603">
        <ele>1462.8</ele>
        <time>2022-05-14T08:32:42Z</time>
      </trkpt>
      <trkpt lat="42.98567" lon="-0.24603">
        <ele>1462</ele>
        <time>2022-05-14T08:32:43Z</time>
      </trkpt>
      <trkpt lat="42.98572" lon="-0.24603">
        <ele>1461.6</ele>
        <time>2022-05-14T08:32:44Z</time>
      </trkpt>
      <trkpt lat="42.98577" lon="-0.24602">
        <ele>1461</ele>
        <time>2022-05-14T08:32:45Z</time>
      </trkpt>
      <trkpt lat="42.98587" lon="-0.246">
        <ele>1459.8</ele>
        <time>2022-05-14T08:32:47Z</time>
      </trkpt>
      <trkpt lat="42.98596" lon="-0.24598">
        <ele>1459.2</ele>
        <time>2022-05-14T08:32:49Z</time>
      </trkpt>
      <trkpt lat="42.986" lon="-0.24597">
        <ele>1458.8</ele>
        <time>2022-05-14T08:32:50Z</time>
      </trkpt>
      <trkpt lat="42.9861" lon="-0.24594">
        <ele>1457.8</ele>
        <time>2022-05-14T08:32:52Z</time>
      </trkpt>
      <trkpt lat="42.98615" lon="-0.24592">
        <ele>1457.4</ele>
        <time>2022-05-14T08:32:53Z</time>
      </trkpt>
      <trkpt lat="42.98625" lon="-0.24584">
        <ele>1457.2</ele>
        <time>2022-05-14T08:32:55Z</time>
      </trkpt>
      <trkpt lat="42.9863" lon="-0.24573">
        <ele>1456.6</ele>
        <time>2022-05-14T08:32:57Z</time>
      </trkpt>
      <trkpt lat="42.98633" lon="-0.24557">
        <ele>1455.8</ele>
        <time>2022-05-14T08:32:59Z</time>
      </trkpt>
      <trkpt lat="42.98634" lon="-0.24548">
        <ele>1455.4</ele>
        <time>2022-05-14T08:33:00Z</time>
      </trkpt>
      <trkpt lat="42.98633" lon="-0.24522">
        <ele>1454.4</ele>
        <time>2022-05-14T08:33:03Z</time>
      </trkpt>
      <trkpt lat="42.98629" lon="-0.24495">
        <ele>1453</ele>
        <time>2022-05-14T08:33:06Z</time>
      </trkpt>
      <trkpt lat="42.98627" lon="-0.24476">
        <ele>1452.8</ele>
        <time>2022-05-14T08:33:08Z</time>
      </trkpt>
      <trkpt lat="42.98626" lon="-0.24457">
        <ele>1452.4</ele>
        <time>2022-05-14T08:33:10Z</time>
      </trkpt>
      <trkpt lat="42.98625" lon="-0.24447">
        <ele>1452</ele>
        <time>2022-05-14T08:33:11Z</time>
      </trkpt>
      <trkpt lat="42.98623" lon="-0.24402">
        <ele>1451</ele>
        <time>2022-05-14T08:33:16Z</time>
      </trkpt>
      <trkpt lat="42.98622" lon="-0.24393">
        <ele>1450.4</ele>
        <time>2022-05-14T08:33:17Z</time>
      </trkpt>
      <trkpt lat="42.98622" lon="-0.24364">
        <ele>1450</ele>
        <time>2022-05-14T08:33:21Z</time>
      </trkpt>
      <trkpt lat="42.98622" lon="-0.24358">
        <ele>1449.8</ele>
        <time>2022-05-14T08:33:22Z</time>
      </trkpt>
      <trkpt lat="42.98623" lon="-0.24333">
        <ele>1449.6</ele>
        <time>2022-05-14T08:33:26Z</time>
      </trkpt>
      <trkpt lat="42.98624" lon="-0.24314">
        <ele>1450</ele>
        <time>2022-05-14T08:33:30Z</time>
      </trkpt>
      <trkpt lat="42.98626" lon="-0.24299">
        <ele>1450.6</ele>
        <time>2022-05-14T08:33:34Z</time>
      </trkpt>
      <trkpt lat="42.98626" lon="-0.24297">
        <ele>1450.8</ele>
        <time>2022-05-14T08:33:35Z</time>
      </trkpt>
      <trkpt lat="42.98626" lon="-0.24288">
        <ele>1451.2</ele>
        <time>2022-05-14T08:33:38Z</time>
      </trkpt>
      <trkpt lat="42.98627" lon="-0.24285">
        <ele>1451.4</ele>
        <time>2022-05-14T08:33:39Z</time>
      </trkpt>
      <trkpt lat="42.98627" lon="-0.2428">
        <ele>1451.8</ele>
        <time>2022-05-14T08:33:41Z</time>
      </trkpt>
      <trkpt lat="42.98628" lon="-0.24272">
        <ele>1452</ele>
        <time>2022-05-14T08:33:44Z</time>
      </trkpt>
      <trkpt lat="42.98628" lon="-0.2427">
        <ele>1452.2</ele>
        <time>2022-05-14T08:33:45Z</time>
      </trkpt>
      <trkpt lat="42.98629" lon="-0.24267">
        <ele>1452.4</ele>
        <time>2022-05-14T08:33:46Z</time>
      </trkpt>
      <trkpt lat="42.9863" lon="-0.24248">
        <ele>1453.2</ele>
        <time>2022-05-14T08:33:53Z</time>
      </trkpt>
      <trkpt lat="42.9863" lon="-0.24245">
        <ele>1453.6</ele>
        <time>2022-05-14T08:33:54Z</time>
      </trkpt>
      <trkpt lat="42.98629" lon="-0.24227">
        <ele>1454.4</ele>
        <time>2022-05-14T08:34:00Z</time>
      </trkpt>
      <trkpt lat="42.98631" lon="-0.24207">
        <ele>1455.6</ele>
        <time>2022-05-14T08:34:07Z</time>
      </trkpt>
      <trkpt lat="42.98632" lon="-0.24201">
        <ele>1455.8</ele>
        <time>2022-05-14T08:34:09Z</time>
      </trkpt>
      <trkpt lat="42.98633" lon="-0.2419">
        <ele>1456.4</ele>
        <time>2022-05-14T08:34:13Z</time>
      </trkpt>
      <trkpt lat="42.98633" lon="-0.24186">
        <ele>1456.8</ele>
        <time>2022-05-14T08:34:15Z</time>
      </trkpt>
      <trkpt lat="42.98636" lon="-0.24172">
        <ele>1457.4</ele>
        <time>2022-05-14T08:34:21Z</time>
      </trkpt>
      <trkpt lat="42.98636" lon="-0.24169">
        <ele>1457.6</ele>
        <time>2022-05-14T08:34:22Z</time>
      </trkpt>
      <trkpt lat="42.98638" lon="-0.24152">
        <ele>1459</ele>
        <time>2022-05-14T08:34:28Z</time>
      </trkpt>
      <trkpt lat="42.98639" lon="-0.24147">
        <ele>1459.4</ele>
        <time>2022-05-14T08:34:30Z</time>
      </trkpt>
      <trkpt lat="42.98639" lon="-0.24133">
        <ele>1460.2</ele>
        <time>2022-05-14T08:34:34Z</time>
      </trkpt>
      <trkpt lat="42.9864" lon="-0.24123">
        <ele>1461.2</ele>
        <time>2022-05-14T08:34:37Z</time>
      </trkpt>
      <trkpt lat="42.98641" lon="-0.24121">
        <ele>1461.4</ele>
        <time>2022-05-14T08:34:38Z</time>
      </trkpt>
      <trkpt lat="42.98643" lon="-0.24101">
        <ele>1462.4</ele>
        <time>2022-05-14T08:34:45Z</time>
      </trkpt>
      <trkpt lat="42.98644" lon="-0.24094">
        <ele>1462.8</ele>
        <time>2022-05-14T08:34:47Z</time>
      </trkpt>
      <trkpt lat="42.98646" lon="-0.24086">
        <ele>1463.4</ele>
        <time>2022-05-14T08:34:50Z</time>
      </trkpt>
      <trkpt lat="42.98648" lon="-0.24077">
        <ele>1463.8</ele>
        <time>2022-05-14T08:34:53Z</time>
      </trkpt>
      <trkpt lat="42.98649" lon="-0.24068">
        <ele>1464.6</ele>
        <time>2022-05-14T08:34:56Z</time>
      </trkpt>
      <trkpt lat="42.98651" lon="-0.24058">
        <ele>1465</ele>
        <time>2022-05-14T08:34:59Z</time>
      </trkpt>
      <trkpt lat="42.98653" lon="-0.24047">
        <ele>1465.6</ele>
        <time>2022-05-14T08:35:03Z</time>
      </trkpt>
      <trkpt lat="42.98656" lon="-0.24039">
        <ele>1466.4</ele>
        <time>2022-05-14T08:35:06Z</time>
      </trkpt>
      <trkpt lat="42.98657" lon="-0.24033">
        <ele>1466.6</ele>
        <time>2022-05-14T08:35:08Z</time>
      </trkpt>
      <trkpt lat="42.98659" lon="-0.24018">
        <ele>1467.8</ele>
        <time>2022-05-14T08:35:13Z</time>
      </trkpt>
      <trkpt lat="42.98662" lon="-0.23996">
        <ele>1468.6</ele>
        <time>2022-05-14T08:35:20Z</time>
      </trkpt>
      <trkpt lat="42.98662" lon="-0.23993">
        <ele>1468.8</ele>
        <time>2022-05-14T08:35:21Z</time>
      </trkpt>
      <trkpt lat="42.98665" lon="-0.23973">
        <ele>1469.8</ele>
        <time>2022-05-14T08:35:28Z</time>
      </trkpt>
      <trkpt lat="42.98666" lon="-0.23965">
        <ele>1470</ele>
        <time>2022-05-14T08:35:31Z</time>
      </trkpt>
      <trkpt lat="42.98666" lon="-0.23953">
        <ele>1470.4</ele>
        <time>2022-05-14T08:35:35Z</time>
      </trkpt>
      <trkpt lat="42.98664" lon="-0.23937">
        <ele>1471</ele>
        <time>2022-05-14T08:35:40Z</time>
      </trkpt>
      <trkpt lat="42.98662" lon="-0.23917">
        <ele>1471.8</ele>
        <time>2022-05-14T08:35:47Z</time>
      </trkpt>
      <trkpt lat="42.98657" lon="-0.23904">
        <ele>1472.2</ele>
        <time>2022-05-14T08:35:51Z</time>
      </trkpt>
      <trkpt lat="42.98651" lon="-0.23893">
        <ele>1472.2</ele>
        <time>2022-05-14T08:35:55Z</time>
      </trkpt>
      <trkpt lat="42.98639" lon="-0.2388">
        <ele>1472.4</ele>
        <time>2022-05-14T08:36:02Z</time>
      </trkpt>
      <trkpt lat="42.98624" lon="-0.23867">
        <ele>1473.4</ele>
        <time>2022-05-14T08:36:10Z</time>
      </trkpt>
      <trkpt lat="42.98611" lon="-0.23856">
        <ele>1474.6</ele>
        <time>2022-05-14T08:36:17Z</time>
      </trkpt>
      <trkpt lat="42.98609" lon="-0.23854">
        <ele>1474.6</ele>
        <time>2022-05-14T08:36:18Z</time>
      </trkpt>
      <trkpt lat="42.98597" lon="-0.23836">
        <ele>1475.2</ele>
        <time>2022-05-14T08:36:25Z</time>
      </trkpt>
      <trkpt lat="42.98594" lon="-0.23831">
        <ele>1475.6</ele>
        <time>2022-05-14T08:36:27Z</time>
      </trkpt>
      <trkpt lat="42.98586" lon="-0.23817">
        <ele>1475.8</ele>
        <time>2022-05-14T08:36:32Z</time>
      </trkpt>
      <trkpt lat="42.9858" lon="-0.23793">
        <ele>1476.4</ele>
        <time>2022-05-14T08:36:39Z</time>
      </trkpt>
      <trkpt lat="42.98579" lon="-0.23787">
        <ele>1476.6</ele>
        <time>2022-05-14T08:36:41Z</time>
      </trkpt>
      <trkpt lat="42.98576" lon="-0.23769">
        <ele>1477.6</ele>
        <time>2022-05-14T08:36:47Z</time>
      </trkpt>
      <trkpt lat="42.98571" lon="-0.23748">
        <ele>1478.6</ele>
        <time>2022-05-14T08:36:55Z</time>
      </trkpt>
      <trkpt lat="42.9857" lon="-0.23745">
        <ele>1478.8</ele>
        <time>2022-05-14T08:36:56Z</time>
      </trkpt>
      <trkpt lat="42.98565" lon="-0.23726">
        <ele>1479.6</ele>
        <time>2022-05-14T08:37:02Z</time>
      </trkpt>
      <trkpt lat="42.98564" lon="-0.23722">
        <ele>1479.6</ele>
        <time>2022-05-14T08:37:03Z</time>
      </trkpt>
      <trkpt lat="42.98563" lon="-0.23703">
        <ele>1480.6</ele>
        <time>2022-05-14T08:37:10Z</time>
      </trkpt>
      <trkpt lat="42.98563" lon="-0.237">
        <ele>1480.8</ele>
        <time>2022-05-14T08:37:11Z</time>
      </trkpt>
      <trkpt lat="42.98563" lon="-0.23698">
        <ele>1480.8</ele>
        <time>2022-05-14T08:37:12Z</time>
      </trkpt>
      <trkpt lat="42.98563" lon="-0.23691">
        <ele>1481.6</ele>
        <time>2022-05-14T08:37:15Z</time>
      </trkpt>
      <trkpt lat="42.98562" lon="-0.23682">
        <ele>1482.4</ele>
        <time>2022-05-14T08:37:19Z</time>
      </trkpt>
      <trkpt lat="42.98562" lon="-0.23679">
        <ele>1482.6</ele>
        <time>2022-05-14T08:37:20Z</time>
      </trkpt>
      <trkpt lat="42.98561" lon="-0.2367">
        <ele>1483.6</ele>
        <time>2022-05-14T08:37:24Z</time>
      </trkpt>
      <trkpt lat="42.98562" lon="-0.23667">
        <ele>1484</ele>
        <time>2022-05-14T08:37:25Z</time>
      </trkpt>
      <trkpt lat="42.98561" lon="-0.23653">
        <ele>1485.2</ele>
        <time>2022-05-14T08:37:30Z</time>
      </trkpt>
      <trkpt lat="42.98562" lon="-0.2365">
        <ele>1485.4</ele>
        <time>2022-05-14T08:37:31Z</time>
      </trkpt>
      <trkpt lat="42.98562" lon="-0.23647">
        <ele>1485.8</ele>
        <time>2022-05-14T08:37:32Z</time>
      </trkpt>
      <trkpt lat="42.98562" lon="-0.23638">
        <ele>1486.2</ele>
        <time>2022-05-14T08:37:35Z</time>
      </trkpt>
      <trkpt lat="42.9856" lon="-0.23627">
        <ele>1486.8</ele>
        <time>2022-05-14T08:37:39Z</time>
      </trkpt>
      <trkpt lat="42.98555" lon="-0.23614">
        <ele>1487.4</ele>
        <time>2022-05-14T08:37:44Z</time>
      </trkpt>
      <trkpt lat="42.98554" lon="-0.23608">
        <ele>1487.4</ele>
        <time>2022-05-14T08:37:46Z</time>
      </trkpt>
      <trkpt lat="42.98554" lon="-0.23604">
        <ele>1487.8</ele>
        <time>2022-05-14T08:37:48Z</time>
      </trkpt>
      <trkpt lat="42.98554" lon="-0.23599">
        <ele>1488.2</ele>
        <time>2022-05-14T08:37:50Z</time>
      </trkpt>
      <trkpt lat="42.98554" lon="-0.23596">
        <ele>1488.4</ele>
        <time>2022-05-14T08:37:51Z</time>
      </trkpt>
      <trkpt lat="42.98552" lon="-0.23576">
        <ele>1489.2</ele>
        <time>2022-05-14T08:37:58Z</time>
      </trkpt>
      <trkpt lat="42.98553" lon="-0.23573">
        <ele>1489.6</ele>
        <time>2022-05-14T08:37:59Z</time>
      </trkpt>
      <trkpt lat="42.98554" lon="-0.23563">
        <ele>1490.2</ele>
        <time>2022-05-14T08:38:02Z</time>
      </trkpt>
      <trkpt lat="42.98554" lon="-0.23552">
        <ele>1491</ele>
        <time>2022-05-14T08:38:06Z</time>
      </trkpt>
      <trkpt lat="42.98554" lon="-0.23549">
        <ele>1491.2</ele>
        <time>2022-05-14T08:38:07Z</time>
      </trkpt>
      <trkpt lat="42.98554" lon="-0.23546">
        <ele>1491.4</ele>
        <time>2022-05-14T08:38:08Z</time>
      </trkpt>
      <trkpt lat="42.98553" lon="-0.23537">
        <ele>1492</ele>
        <time>2022-05-14T08:38:11Z</time>
      </trkpt>
      <trkpt lat="42.98554" lon="-0.23519">
        <ele>1492.6</ele>
        <time>2022-05-14T08:38:16Z</time>
      </trkpt>
      <trkpt lat="42.98556" lon="-0.23516">
        <ele>1492.8</ele>
        <time>2022-05-14T08:38:17Z</time>
      </trkpt>
      <trkpt lat="42.98566" lon="-0.23501">
        <ele>1493.6</ele>
        <time>2022-05-14T08:38:23Z</time>
      </trkpt>
      <trkpt lat="42.98567" lon="-0.23499">
        <ele>1493.6</ele>
        <time>2022-05-14T08:38:24Z</time>
      </trkpt>
      <trkpt lat="42.9857" lon="-0.2349">
        <ele>1494.2</ele>
        <time>2022-05-14T08:38:28Z</time>
      </trkpt>
      <trkpt lat="42.98572" lon="-0.23485">
        <ele>1494.8</ele>
        <time>2022-05-14T08:38:30Z</time>
      </trkpt>
      <trkpt lat="42.98574" lon="-0.23471">
        <ele>1496</ele>
        <time>2022-05-14T08:38:36Z</time>
      </trkpt>
      <trkpt lat="42.9858" lon="-0.23454">
        <ele>1497</ele>
        <time>2022-05-14T08:38:42Z</time>
      </trkpt>
      <trkpt lat="42.98582" lon="-0.23448">
        <ele>1497.2</ele>
        <time>2022-05-14T08:38:44Z</time>
      </trkpt>
      <trkpt lat="42.98586" lon="-0.23425">
        <ele>1498</ele>
        <time>2022-05-14T08:38:52Z</time>
      </trkpt>
      <trkpt lat="42.98586" lon="-0.23422">
        <ele>1498.2</ele>
        <time>2022-05-14T08:38:53Z</time>
      </trkpt>
      <trkpt lat="42.98587" lon="-0.23409">
        <ele>1499.2</ele>
        <time>2022-05-14T08:38:58Z</time>
      </trkpt>
      <trkpt lat="42.98588" lon="-0.23395">
        <ele>1500.2</ele>
        <time>2022-05-14T08:39:03Z</time>
      </trkpt>
      <trkpt lat="42.98588" lon="-0.23393">
        <ele>1500.4</ele>
        <time>2022-05-14T08:39:04Z</time>
      </trkpt>
      <trkpt lat="42.98589" lon="-0.23388">
        <ele>1500.6</ele>
        <time>2022-05-14T08:39:06Z</time>
      </trkpt>
      <trkpt lat="42.98589" lon="-0.23383">
        <ele>1500.8</ele>
        <time>2022-05-14T08:39:08Z</time>
      </trkpt>
      <trkpt lat="42.98588" lon="-0.23375">
        <ele>1501.4</ele>
        <time>2022-05-14T08:39:11Z</time>
      </trkpt>
      <trkpt lat="42.98588" lon="-0.23362">
        <ele>1502.4</ele>
        <time>2022-05-14T08:39:16Z</time>
      </trkpt>
      <trkpt lat="42.98588" lon="-0.23359">
        <ele>1502.6</ele>
        <time>2022-05-14T08:39:17Z</time>
      </trkpt>
      <trkpt lat="42.98582" lon="-0.23338">
        <ele>1503.4</ele>
        <time>2022-05-14T08:39:24Z</time>
      </trkpt>
      <trkpt lat="42.9858" lon="-0.23333">
        <ele>1503.6</ele>
        <time>2022-05-14T08:39:26Z</time>
      </trkpt>
      <trkpt lat="42.98572" lon="-0.23318">
        <ele>1504.2</ele>
        <time>2022-05-14T08:39:32Z</time>
      </trkpt>
      <trkpt lat="42.98569" lon="-0.23305">
        <ele>1504.8</ele>
        <time>2022-05-14T08:39:36Z</time>
      </trkpt>
      <trkpt lat="42.98569" lon="-0.23295">
        <ele>1505</ele>
        <time>2022-05-14T08:39:39Z</time>
      </trkpt>
      <trkpt lat="42.9857" lon="-0.23274">
        <ele>1505.2</ele>
        <time>2022-05-14T08:39:45Z</time>
      </trkpt>
      <trkpt lat="42.98574" lon="-0.23247">
        <ele>1505</ele>
        <time>2022-05-14T08:39:50Z</time>
      </trkpt>
      <trkpt lat="42.98579" lon="-0.23214">
        <ele>1504.2</ele>
        <time>2022-05-14T08:39:56Z</time>
      </trkpt>
      <trkpt lat="42.9858" lon="-0.23204">
        <ele>1504.4</ele>
        <time>2022-05-14T08:39:58Z</time>
      </trkpt>
      <trkpt lat="42.98583" lon="-0.23184">
        <ele>1504.6</ele>
        <time>2022-05-14T08:40:03Z</time>
      </trkpt>
      <trkpt lat="42.98585" lon="-0.23161">
        <ele>1505</ele>
        <time>2022-05-14T08:40:10Z</time>
      </trkpt>
      <trkpt lat="42.98584" lon="-0.23143">
        <ele>1506</ele>
        <time>2022-05-14T08:40:17Z</time>
      </trkpt>
      <trkpt lat="42.98583" lon="-0.23137">
        <ele>1506.4</ele>
        <time>2022-05-14T08:40:20Z</time>
      </trkpt>
      <trkpt lat="42.98581" lon="-0.2312">
        <ele>1507</ele>
        <time>2022-05-14T08:40:26Z</time>
      </trkpt>
      <trkpt lat="42.98581" lon="-0.23118">
        <ele>1507.2</ele>
        <time>2022-05-14T08:40:27Z</time>
      </trkpt>
      <trkpt lat="42.98579" lon="-0.23106">
        <ele>1508</ele>
        <time>2022-05-14T08:40:33Z</time>
      </trkpt>
      <trkpt lat="42.98579" lon="-0.23098">
        <ele>1508.4</ele>
        <time>2022-05-14T08:40:35Z</time>
      </trkpt>
      <trkpt lat="42.98578" lon="-0.23093">
        <ele>1509.2</ele>
        <time>2022-05-14T08:40:37Z</time>
      </trkpt>
      <trkpt lat="42.98576" lon="-0.23079">
        <ele>1510.2</ele>
        <time>2022-05-14T08:40:43Z</time>
      </trkpt>
      <trkpt lat="42.98571" lon="-0.2306">
        <ele>1511.2</ele>
        <time>2022-05-14T08:40:50Z</time>
      </trkpt>
      <trkpt lat="42.9857" lon="-0.23058">
        <ele>1511.4</ele>
        <time>2022-05-14T08:40:51Z</time>
      </trkpt>
      <trkpt lat="42.98567" lon="-0.23047">
        <ele>1512.2</ele>
        <time>2022-05-14T08:40:56Z</time>
      </trkpt>
      <trkpt lat="42.98562" lon="-0.23038">
        <ele>1512.6</ele>
        <time>2022-05-14T08:40:59Z</time>
      </trkpt>
      <trkpt lat="42.98559" lon="-0.23028">
        <ele>1513.4</ele>
        <time>2022-05-14T08:41:03Z</time>
      </trkpt>
      <trkpt lat="42.98552" lon="-0.23018">
        <ele>1514</ele>
        <time>2022-05-14T08:41:07Z</time>
      </trkpt>
      <trkpt lat="42.98549" lon="-0.23014">
        <ele>1514.4</ele>
        <time>2022-05-14T08:41:09Z</time>
      </trkpt>
      <trkpt lat="42.98541" lon="-0.23004">
        <ele>1515.6</ele>
        <time>2022-05-14T08:41:15Z</time>
      </trkpt>
      <trkpt lat="42.98539" lon="-0.23">
        <ele>1515.8</ele>
        <time>2022-05-14T08:41:16Z</time>
      </trkpt>
      <trkpt lat="42.98533" lon="-0.22991">
        <ele>1516</ele>
        <time>2022-05-14T08:41:20Z</time>
      </trkpt>
      <trkpt lat="42.98529" lon="-0.22982">
        <ele>1516.6</ele>
        <time>2022-05-14T08:41:24Z</time>
      </trkpt>
      <trkpt lat="42.98528" lon="-0.22974">
        <ele>1517.2</ele>
        <time>2022-05-14T08:41:27Z</time>
      </trkpt>
      <trkpt lat="42.98526" lon="-0.22966">
        <ele>1517.6</ele>
        <time>2022-05-14T08:41:30Z</time>
      </trkpt>
      <trkpt lat="42.98526" lon="-0.22963">
        <ele>1517.8</ele>
        <time>2022-05-14T08:41:31Z</time>
      </trkpt>
      <trkpt lat="42.98524" lon="-0.22956">
        <ele>1518.6</ele>
        <time>2022-05-14T08:41:35Z</time>
      </trkpt>
      <trkpt lat="42.98523" lon="-0.22942">
        <ele>1519.8</ele>
        <time>2022-05-14T08:41:39Z</time>
      </trkpt>
      <trkpt lat="42.9852" lon="-0.2293">
        <ele>1520.6</ele>
        <time>2022-05-14T08:41:43Z</time>
      </trkpt>
      <trkpt lat="42.98521" lon="-0.22923">
        <ele>1520.8</ele>
        <time>2022-05-14T08:41:46Z</time>
      </trkpt>
      <trkpt lat="42.98524" lon="-0.22905">
        <ele>1521.4</ele>
        <time>2022-05-14T08:41:51Z</time>
      </trkpt>
      <trkpt lat="42.98525" lon="-0.22899">
        <ele>1522</ele>
        <time>2022-05-14T08:41:53Z</time>
      </trkpt>
      <trkpt lat="42.9853" lon="-0.22886">
        <ele>1523</ele>
        <time>2022-05-14T08:41:59Z</time>
      </trkpt>
      <trkpt lat="42.98534" lon="-0.22879">
        <ele>1523.2</ele>
        <time>2022-05-14T08:42:01Z</time>
      </trkpt>
      <trkpt lat="42.98547" lon="-0.22861">
        <ele>1524.2</ele>
        <time>2022-05-14T08:42:08Z</time>
      </trkpt>
      <trkpt lat="42.9855" lon="-0.2286">
        <ele>1524.2</ele>
        <time>2022-05-14T08:42:09Z</time>
      </trkpt>
      <trkpt lat="42.98574" lon="-0.22842">
        <ele>1524.8</ele>
        <time>2022-05-14T08:42:19Z</time>
      </trkpt>
      <trkpt lat="42.98585" lon="-0.22836">
        <ele>1525.2</ele>
        <time>2022-05-14T08:42:23Z</time>
      </trkpt>
      <trkpt lat="42.98593" lon="-0.22832">
        <ele>1525.2</ele>
        <time>2022-05-14T08:42:26Z</time>
      </trkpt>
      <trkpt lat="42.98618" lon="-0.22826">
        <ele>1526.2</ele>
        <time>2022-05-14T08:42:35Z</time>
      </trkpt>
      <trkpt lat="42.98621" lon="-0.22826">
        <ele>1526.2</ele>
        <time>2022-05-14T08:42:36Z</time>
      </trkpt>
      <trkpt lat="42.98645" lon="-0.22823">
        <ele>1527</ele>
        <time>2022-05-14T08:42:45Z</time>
      </trkpt>
      <trkpt lat="42.98647" lon="-0.22823">
        <ele>1527.2</ele>
        <time>2022-05-14T08:42:46Z</time>
      </trkpt>
      <trkpt lat="42.98671" lon="-0.22823">
        <ele>1528.2</ele>
        <time>2022-05-14T08:42:55Z</time>
      </trkpt>
      <trkpt lat="42.98673" lon="-0.22823">
        <ele>1528.4</ele>
        <time>2022-05-14T08:42:56Z</time>
      </trkpt>
      <trkpt lat="42.98696" lon="-0.22808">
        <ele>1529</ele>
        <time>2022-05-14T08:43:04Z</time>
      </trkpt>
      <trkpt lat="42.98705" lon="-0.22786">
        <ele>1529</ele>
        <time>2022-05-14T08:43:10Z</time>
      </trkpt>
      <trkpt lat="42.98713" lon="-0.22772">
        <ele>1529</ele>
        <time>2022-05-14T08:43:14Z</time>
      </trkpt>
      <trkpt lat="42.98715" lon="-0.2277">
        <ele>1529</ele>
        <time>2022-05-14T08:43:15Z</time>
      </trkpt>
      <trkpt lat="42.9874" lon="-0.22754">
        <ele>1528.8</ele>
        <time>2022-05-14T08:43:22Z</time>
      </trkpt>
      <trkpt lat="42.98763" lon="-0.22748">
        <ele>1528.6</ele>
        <time>2022-05-14T08:43:28Z</time>
      </trkpt>
      <trkpt lat="42.98794" lon="-0.22734">
        <ele>1528.4</ele>
        <time>2022-05-14T08:43:37Z</time>
      </trkpt>
      <trkpt lat="42.98823" lon="-0.22717">
        <ele>1527.6</ele>
        <time>2022-05-14T08:43:46Z</time>
      </trkpt>
      <trkpt lat="42.98846" lon="-0.22704">
        <ele>1527.4</ele>
        <time>2022-05-14T08:43:52Z</time>
      </trkpt>
      <trkpt lat="42.98869" lon="-0.22697">
        <ele>1527.4</ele>
        <time>2022-05-14T08:43:58Z</time>
      </trkpt>
      <trkpt lat="42.98882" lon="-0.22692">
        <ele>1527.2</ele>
        <time>2022-05-14T08:44:01Z</time>
      </trkpt>
      <trkpt lat="42.98897" lon="-0.22688">
        <ele>1527</ele>
        <time>2022-05-14T08:44:05Z</time>
      </trkpt>
      <trkpt lat="42.98911" lon="-0.22683">
        <ele>1526.8</ele>
        <time>2022-05-14T08:44:07Z</time>
      </trkpt>
      <trkpt lat="42.98931" lon="-0.22673">
        <ele>1526.4</ele>
        <time>2022-05-14T08:44:11Z</time>
      </trkpt>
      <trkpt lat="42.9894" lon="-0.22671">
        <ele>1526</ele>
        <time>2022-05-14T08:44:13Z</time>
      </trkpt>
      <trkpt lat="42.98945" lon="-0.2267">
        <ele>1525.8</ele>
        <time>2022-05-14T08:44:14Z</time>
      </trkpt>
      <trkpt lat="42.98954" lon="-0.22671">
        <ele>1525.8</ele>
        <time>2022-05-14T08:44:16Z</time>
      </trkpt>
      <trkpt lat="42.98959" lon="-0.22672">
        <ele>1525.6</ele>
        <time>2022-05-14T08:44:17Z</time>
      </trkpt>
      <trkpt lat="42.98964" lon="-0.22673">
        <ele>1525.6</ele>
        <time>2022-05-14T08:44:18Z</time>
      </trkpt>
      <trkpt lat="42.98984" lon="-0.22681">
        <ele>1525.6</ele>
        <time>2022-05-14T08:44:22Z</time>
      </trkpt>
      <trkpt lat="42.98989" lon="-0.22684">
        <ele>1525.2</ele>
        <time>2022-05-14T08:44:23Z</time>
      </trkpt>
      <trkpt lat="42.98994" lon="-0.22688">
        <ele>1525.2</ele>
        <time>2022-05-14T08:44:24Z</time>
      </trkpt>
      <trkpt lat="42.98994" lon="-0.22688">
        <ele>1525</ele>
        <time>2022-05-14T08:44:25Z</time>
      </trkpt>
      <trkpt lat="42.9901" lon="-0.227">
        <ele>1525</ele>
        <time>2022-05-14T08:44:27Z</time>
      </trkpt>
      <trkpt lat="42.9901" lon="-0.227">
        <ele>1524.8</ele>
        <time>2022-05-14T08:44:28Z</time>
      </trkpt>
      <trkpt lat="42.99022" lon="-0.22707">
        <ele>1524.4</ele>
        <time>2022-05-14T08:44:29Z</time>
      </trkpt>
      <trkpt lat="42.99036" lon="-0.22713">
        <ele>1523.8</ele>
        <time>2022-05-14T08:44:31Z</time>
      </trkpt>
      <trkpt lat="42.99043" lon="-0.22714">
        <ele>1523.8</ele>
        <time>2022-05-14T08:44:32Z</time>
      </trkpt>
      <trkpt lat="42.9905" lon="-0.22714">
        <ele>1523.2</ele>
        <time>2022-05-14T08:44:33Z</time>
      </trkpt>
      <trkpt lat="42.99057" lon="-0.22712">
        <ele>1522.8</ele>
        <time>2022-05-14T08:44:34Z</time>
      </trkpt>
      <trkpt lat="42.99063" lon="-0.2271">
        <ele>1522.4</ele>
        <time>2022-05-14T08:44:35Z</time>
      </trkpt>
      <trkpt lat="42.9907" lon="-0.22707">
        <ele>1522.2</ele>
        <time>2022-05-14T08:44:36Z</time>
      </trkpt>
      <trkpt lat="42.99076" lon="-0.22703">
        <ele>1521.8</ele>
        <time>2022-05-14T08:44:37Z</time>
      </trkpt>
      <trkpt lat="42.99082" lon="-0.22699">
        <ele>1521.4</ele>
        <time>2022-05-14T08:44:38Z</time>
      </trkpt>
      <trkpt lat="42.99097" lon="-0.22685">
        <ele>1521</ele>
        <time>2022-05-14T08:44:41Z</time>
      </trkpt>
      <trkpt lat="42.99107" lon="-0.22677">
        <ele>1520.2</ele>
        <time>2022-05-14T08:44:44Z</time>
      </trkpt>
      <trkpt lat="42.99118" lon="-0.22665">
        <ele>1520</ele>
        <time>2022-05-14T08:44:46Z</time>
      </trkpt>
      <trkpt lat="42.99136" lon="-0.22646">
        <ele>1519.8</ele>
        <time>2022-05-14T08:44:52Z</time>
      </trkpt>
      <trkpt lat="42.99144" lon="-0.2263">
        <ele>1520</ele>
        <time>2022-05-14T08:44:57Z</time>
      </trkpt>
      <trkpt lat="42.9915" lon="-0.22611">
        <ele>1520.6</ele>
        <time>2022-05-14T08:45:03Z</time>
      </trkpt>
      <trkpt lat="42.99151" lon="-0.22608">
        <ele>1520.6</ele>
        <time>2022-05-14T08:45:04Z</time>
      </trkpt>
      <trkpt lat="42.99152" lon="-0.22591">
        <ele>1521.6</ele>
        <time>2022-05-14T08:45:09Z</time>
      </trkpt>
      <trkpt lat="42.99151" lon="-0.22584">
        <ele>1521.8</ele>
        <time>2022-05-14T08:45:11Z</time>
      </trkpt>
      <trkpt lat="42.99149" lon="-0.22576">
        <ele>1522.4</ele>
        <time>2022-05-14T08:45:17Z</time>
      </trkpt>
      <trkpt lat="42.99149" lon="-0.22576">
        <ele>1522.2</ele>
        <time>2022-05-14T08:45:28Z</time>
      </trkpt>
      <trkpt lat="42.99148" lon="-0.22576">
        <ele>1522</ele>
        <time>2022-05-14T08:47:32Z</time>
      </trkpt>
      <trkpt lat="42.99144" lon="-0.2257">
        <ele>1522</ele>
        <time>2022-05-14T08:48:48Z</time>
      </trkpt>
      <trkpt lat="42.99133" lon="-0.22554">
        <ele>1522.2</ele>
        <time>2022-05-14T08:48:53Z</time>
      </trkpt>
      <trkpt lat="42.99117" lon="-0.22529">
        <ele>1522.4</ele>
        <time>2022-05-14T08:49:00Z</time>
      </trkpt>
      <trkpt lat="42.99101" lon="-0.22498">
        <ele>1523</ele>
        <time>2022-05-14T08:49:07Z</time>
      </trkpt>
      <trkpt lat="42.99093" lon="-0.22458">
        <ele>1522.8</ele>
        <time>2022-05-14T08:49:14Z</time>
      </trkpt>
      <trkpt lat="42.99088" lon="-0.2244">
        <ele>1522.8</ele>
        <time>2022-05-14T08:49:19Z</time>
      </trkpt>
      <trkpt lat="42.99086" lon="-0.2243">
        <ele>1523.2</ele>
        <time>2022-05-14T08:49:22Z</time>
      </trkpt>
      <trkpt lat="42.99084" lon="-0.22423">
        <ele>1523.8</ele>
        <time>2022-05-14T08:49:24Z</time>
      </trkpt>
      <trkpt lat="42.99083" lon="-0.2242">
        <ele>1524</ele>
        <time>2022-05-14T08:49:25Z</time>
      </trkpt>
      <trkpt lat="42.9908" lon="-0.22413">
        <ele>1524.4</ele>
        <time>2022-05-14T08:49:27Z</time>
      </trkpt>
      <trkpt lat="42.99074" lon="-0.22392">
        <ele>1525.4</ele>
        <time>2022-05-14T08:49:32Z</time>
      </trkpt>
      <trkpt lat="42.99072" lon="-0.22388">
        <ele>1525.4</ele>
        <time>2022-05-14T08:49:33Z</time>
      </trkpt>
      <trkpt lat="42.9906" lon="-0.22359">
        <ele>1526</ele>
        <time>2022-05-14T08:49:39Z</time>
      </trkpt>
      <trkpt lat="42.99051" lon="-0.22338">
        <ele>1526.4</ele>
        <time>2022-05-14T08:49:44Z</time>
      </trkpt>
      <trkpt lat="42.99037" lon="-0.2231">
        <ele>1526.2</ele>
        <time>2022-05-14T08:49:51Z</time>
      </trkpt>
      <trkpt lat="42.9903" lon="-0.22303">
        <ele>1526</ele>
        <time>2022-05-14T08:49:53Z</time>
      </trkpt>
      <trkpt lat="42.99026" lon="-0.22299">
        <ele>1526</ele>
        <time>2022-05-14T08:49:54Z</time>
      </trkpt>
      <trkpt lat="42.99012" lon="-0.22284">
        <ele>1525.4</ele>
        <time>2022-05-14T08:49:58Z</time>
      </trkpt>
      <trkpt lat="42.99001" lon="-0.22272">
        <ele>1525.2</ele>
        <time>2022-05-14T08:50:01Z</time>
      </trkpt>
      <trkpt lat="42.98989" lon="-0.22259">
        <ele>1525.4</ele>
        <time>2022-05-14T08:50:04Z</time>
      </trkpt>
      <trkpt lat="42.98986" lon="-0.22255">
        <ele>1525.4</ele>
        <time>2022-05-14T08:50:05Z</time>
      </trkpt>
      <trkpt lat="42.98968" lon="-0.22231">
        <ele>1525.6</ele>
        <time>2022-05-14T08:50:10Z</time>
      </trkpt>
      <trkpt lat="42.98948" lon="-0.22205">
        <ele>1526</ele>
        <time>2022-05-14T08:50:16Z</time>
      </trkpt>
      <trkpt lat="42.98945" lon="-0.22202">
        <ele>1526</ele>
        <time>2022-05-14T08:50:17Z</time>
      </trkpt>
      <trkpt lat="42.98935" lon="-0.22195">
        <ele>1526.2</ele>
        <time>2022-05-14T08:50:19Z</time>
      </trkpt>
      <trkpt lat="42.98923" lon="-0.22187">
        <ele>1526.2</ele>
        <time>2022-05-14T08:50:21Z</time>
      </trkpt>
      <trkpt lat="42.98918" lon="-0.22186">
        <ele>1526.4</ele>
        <time>2022-05-14T08:50:22Z</time>
      </trkpt>
      <trkpt lat="42.98908" lon="-0.22183">
        <ele>1526.4</ele>
        <time>2022-05-14T08:50:24Z</time>
      </trkpt>
      <trkpt lat="42.9889" lon="-0.22179">
        <ele>1525.2</ele>
        <time>2022-05-14T08:50:28Z</time>
      </trkpt>
      <trkpt lat="42.98885" lon="-0.22176">
        <ele>1525.2</ele>
        <time>2022-05-14T08:50:29Z</time>
      </trkpt>
      <trkpt lat="42.98881" lon="-0.22171">
        <ele>1525</ele>
        <time>2022-05-14T08:50:30Z</time>
      </trkpt>
      <trkpt lat="42.98876" lon="-0.22157">
        <ele>1524.8</ele>
        <time>2022-05-14T08:50:33Z</time>
      </trkpt>
      <trkpt lat="42.98866" lon="-0.22126">
        <ele>1525</ele>
        <time>2022-05-14T08:50:37Z</time>
      </trkpt>
      <trkpt lat="42.98866" lon="-0.22119">
        <ele>1525</ele>
        <time>2022-05-14T08:50:38Z</time>
      </trkpt>
      <trkpt lat="42.98861" lon="-0.22097">
        <ele>1525</ele>
        <time>2022-05-14T08:50:41Z</time>
      </trkpt>
      <trkpt lat="42.9886" lon="-0.22079">
        <ele>1525</ele>
        <time>2022-05-14T08:50:44Z</time>
      </trkpt>
      <trkpt lat="42.98859" lon="-0.22034">
        <ele>1525</ele>
        <time>2022-05-14T08:50:52Z</time>
      </trkpt>
      <trkpt lat="42.98862" lon="-0.22007">
        <ele>1525.2</ele>
        <time>2022-05-14T08:50:57Z</time>
      </trkpt>
      <trkpt lat="42.98864" lon="-0.21996">
        <ele>1525.2</ele>
        <time>2022-05-14T08:50:59Z</time>
      </trkpt>
      <trkpt lat="42.98869" lon="-0.21974">
        <ele>1525.4</ele>
        <time>2022-05-14T08:51:02Z</time>
      </trkpt>
      <trkpt lat="42.98877" lon="-0.21928">
        <ele>1525.4</ele>
        <time>2022-05-14T08:51:07Z</time>
      </trkpt>
      <trkpt lat="42.98893" lon="-0.21866">
        <ele>1524</ele>
        <time>2022-05-14T08:51:13Z</time>
      </trkpt>
      <trkpt lat="42.98894" lon="-0.21842">
        <ele>1523.2</ele>
        <time>2022-05-14T08:51:15Z</time>
      </trkpt>
      <trkpt lat="42.98893" lon="-0.21831">
        <ele>1522.6</ele>
        <time>2022-05-14T08:51:16Z</time>
      </trkpt>
      <trkpt lat="42.98889" lon="-0.21797">
        <ele>1521.2</ele>
        <time>2022-05-14T08:51:19Z</time>
      </trkpt>
      <trkpt lat="42.98889" lon="-0.21774">
        <ele>1520.2</ele>
        <time>2022-05-14T08:51:21Z</time>
      </trkpt>
      <trkpt lat="42.98889" lon="-0.21761">
        <ele>1519.4</ele>
        <time>2022-05-14T08:51:22Z</time>
      </trkpt>
      <trkpt lat="42.98887" lon="-0.21723">
        <ele>1517.8</ele>
        <time>2022-05-14T08:51:25Z</time>
      </trkpt>
      <trkpt lat="42.98885" lon="-0.21711">
        <ele>1517.6</ele>
        <time>2022-05-14T08:51:26Z</time>
      </trkpt>
      <trkpt lat="42.98882" lon="-0.21698">
        <ele>1517.2</ele>
        <time>2022-05-14T08:51:27Z</time>
      </trkpt>
      <trkpt lat="42.98878" lon="-0.21686">
        <ele>1516.8</ele>
        <time>2022-05-14T08:51:28Z</time>
      </trkpt>
      <trkpt lat="42.98873" lon="-0.21674">
        <ele>1515.8</ele>
        <time>2022-05-14T08:51:29Z</time>
      </trkpt>
      <trkpt lat="42.98868" lon="-0.21665">
        <ele>1515.4</ele>
        <time>2022-05-14T08:51:30Z</time>
      </trkpt>
      <trkpt lat="42.98862" lon="-0.21658">
        <ele>1514.2</ele>
        <time>2022-05-14T08:51:31Z</time>
      </trkpt>
      <trkpt lat="42.98856" lon="-0.21654">
        <ele>1513.8</ele>
        <time>2022-05-14T08:51:32Z</time>
      </trkpt>
      <trkpt lat="42.9885" lon="-0.21652">
        <ele>1513</ele>
        <time>2022-05-14T08:51:33Z</time>
      </trkpt>
      <trkpt lat="42.98837" lon="-0.21653">
        <ele>1512</ele>
        <time>2022-05-14T08:51:35Z</time>
      </trkpt>
      <trkpt lat="42.98829" lon="-0.21655">
        <ele>1511.8</ele>
        <time>2022-05-14T08:51:36Z</time>
      </trkpt>
      <trkpt lat="42.98807" lon="-0.21666">
        <ele>1511</ele>
        <time>2022-05-14T08:51:39Z</time>
      </trkpt>
      <trkpt lat="42.98799" lon="-0.21669">
        <ele>1510.2</ele>
        <time>2022-05-14T08:51:40Z</time>
      </trkpt>
      <trkpt lat="42.98773" lon="-0.21671">
        <ele>1509.2</ele>
        <time>2022-05-14T08:51:43Z</time>
      </trkpt>
      <trkpt lat="42.98755" lon="-0.2167">
        <ele>1507.8</ele>
        <time>2022-05-14T08:51:45Z</time>
      </trkpt>
      <trkpt lat="42.98737" lon="-0.21664">
        <ele>1506.8</ele>
        <time>2022-05-14T08:51:47Z</time>
      </trkpt>
      <trkpt lat="42.98709" lon="-0.21653">
        <ele>1505.6</ele>
        <time>2022-05-14T08:51:50Z</time>
      </trkpt>
      <trkpt lat="42.98693" lon="-0.21646">
        <ele>1504.4</ele>
        <time>2022-05-14T08:51:52Z</time>
      </trkpt>
      <trkpt lat="42.98675" lon="-0.21644">
        <ele>1503.6</ele>
        <time>2022-05-14T08:51:54Z</time>
      </trkpt>
      <trkpt lat="42.98668" lon="-0.21647">
        <ele>1502.8</ele>
        <time>2022-05-14T08:51:55Z</time>
      </trkpt>
      <trkpt lat="42.9866" lon="-0.2165">
        <ele>1501.8</ele>
        <time>2022-05-14T08:51:56Z</time>
      </trkpt>
      <trkpt lat="42.98653" lon="-0.21653">
        <ele>1500</ele>
        <time>2022-05-14T08:51:57Z</time>
      </trkpt>
      <trkpt lat="42.9864" lon="-0.2166">
        <ele>1498.4</ele>
        <time>2022-05-14T08:51:59Z</time>
      </trkpt>
      <trkpt lat="42.98627" lon="-0.21661">
        <ele>1496.8</ele>
        <time>2022-05-14T08:52:01Z</time>
      </trkpt>
      <trkpt lat="42.98622" lon="-0.21656">
        <ele>1496.4</ele>
        <time>2022-05-14T08:52:02Z</time>
      </trkpt>
      <trkpt lat="42.98623" lon="-0.21643">
        <ele>1496</ele>
        <time>2022-05-14T08:52:04Z</time>
      </trkpt>
      <trkpt lat="42.98627" lon="-0.21637">
        <ele>1495.8</ele>
        <time>2022-05-14T08:52:05Z</time>
      </trkpt>
      <trkpt lat="42.98631" lon="-0.21635">
        <ele>1495.4</ele>
        <time>2022-05-14T08:52:06Z</time>
      </trkpt>
      <trkpt lat="42.98636" lon="-0.21633">
        <ele>1494.6</ele>
        <time>2022-05-14T08:52:07Z</time>
      </trkpt>
      <trkpt lat="42.98641" lon="-0.21632">
        <ele>1494</ele>
        <time>2022-05-14T08:52:08Z</time>
      </trkpt>
      <trkpt lat="42.9865" lon="-0.21629">
        <ele>1492.6</ele>
        <time>2022-05-14T08:52:10Z</time>
      </trkpt>
      <trkpt lat="42.98666" lon="-0.21622">
        <ele>1491.6</ele>
        <time>2022-05-14T08:52:13Z</time>
      </trkpt>
      <trkpt lat="42.98671" lon="-0.21621">
        <ele>1491.2</ele>
        <time>2022-05-14T08:52:14Z</time>
      </trkpt>
      <trkpt lat="42.98684" lon="-0.2162">
        <ele>1491.2</ele>
        <time>2022-05-14T08:52:17Z</time>
      </trkpt>
      <trkpt lat="42.98702" lon="-0.21626">
        <ele>1491.4</ele>
        <time>2022-05-14T08:52:22Z</time>
      </trkpt>
      <trkpt lat="42.98718" lon="-0.21632">
        <ele>1492</ele>
        <time>2022-05-14T08:52:25Z</time>
      </trkpt>
      <trkpt lat="42.98724" lon="-0.21634">
        <ele>1492</ele>
        <time>2022-05-14T08:52:26Z</time>
      </trkpt>
      <trkpt lat="42.9873" lon="-0.21636">
        <ele>1492.2</ele>
        <time>2022-05-14T08:52:27Z</time>
      </trkpt>
      <trkpt lat="42.9875" lon="-0.21638">
        <ele>1492</ele>
        <time>2022-05-14T08:52:30Z</time>
      </trkpt>
      <trkpt lat="42.98768" lon="-0.21636">
        <ele>1491.8</ele>
        <time>2022-05-14T08:52:32Z</time>
      </trkpt>
      <trkpt lat="42.98789" lon="-0.21629">
        <ele>1491</ele>
        <time>2022-05-14T08:52:35Z</time>
      </trkpt>
      <trkpt lat="42.98802" lon="-0.21622">
        <ele>1490.6</ele>
        <time>2022-05-14T08:52:37Z</time>
      </trkpt>
      <trkpt lat="42.98809" lon="-0.21618">
        <ele>1489.8</ele>
        <time>2022-05-14T08:52:38Z</time>
      </trkpt>
      <trkpt lat="42.98817" lon="-0.21613">
        <ele>1489.8</ele>
        <time>2022-05-14T08:52:39Z</time>
      </trkpt>
      <trkpt lat="42.98824" lon="-0.21606">
        <ele>1489.4</ele>
        <time>2022-05-14T08:52:40Z</time>
      </trkpt>
      <trkpt lat="42.98837" lon="-0.21592">
        <ele>1488.8</ele>
        <time>2022-05-14T08:52:42Z</time>
      </trkpt>
      <trkpt lat="42.98843" lon="-0.21584">
        <ele>1488.6</ele>
        <time>2022-05-14T08:52:43Z</time>
      </trkpt>
      <trkpt lat="42.98849" lon="-0.21578">
        <ele>1488.2</ele>
        <time>2022-05-14T08:52:44Z</time>
      </trkpt>
      <trkpt lat="42.9886" lon="-0.2157">
        <ele>1487.6</ele>
        <time>2022-05-14T08:52:46Z</time>
      </trkpt>
      <trkpt lat="42.98875" lon="-0.2156">
        <ele>1485.8</ele>
        <time>2022-05-14T08:52:48Z</time>
      </trkpt>
      <trkpt lat="42.98882" lon="-0.21554">
        <ele>1485.4</ele>
        <time>2022-05-14T08:52:49Z</time>
      </trkpt>
      <trkpt lat="42.98888" lon="-0.21545">
        <ele>1484.6</ele>
        <time>2022-05-14T08:52:50Z</time>
      </trkpt>
      <trkpt lat="42.98892" lon="-0.21535">
        <ele>1484.4</ele>
        <time>2022-05-14T08:52:51Z</time>
      </trkpt>
      <trkpt lat="42.98899" lon="-0.21512">
        <ele>1483.6</ele>
        <time>2022-05-14T08:52:53Z</time>
      </trkpt>
      <trkpt lat="42.98906" lon="-0.2149">
        <ele>1482.8</ele>
        <time>2022-05-14T08:52:55Z</time>
      </trkpt>
      <trkpt lat="42.98914" lon="-0.21468">
        <ele>1481.4</ele>
        <time>2022-05-14T08:52:57Z</time>
      </trkpt>
      <trkpt lat="42.98919" lon="-0.21458">
        <ele>1481.2</ele>
        <time>2022-05-14T08:52:58Z</time>
      </trkpt>
      <trkpt lat="42.98923" lon="-0.21447">
        <ele>1481</ele>
        <time>2022-05-14T08:52:59Z</time>
      </trkpt>
      <trkpt lat="42.9893" lon="-0.21425">
        <ele>1480</ele>
        <time>2022-05-14T08:53:01Z</time>
      </trkpt>
      <trkpt lat="42.98934" lon="-0.21412">
        <ele>1479.2</ele>
        <time>2022-05-14T08:53:02Z</time>
      </trkpt>
      <trkpt lat="42.98936" lon="-0.21403">
        <ele>1478.6</ele>
        <time>2022-05-14T08:53:03Z</time>
      </trkpt>
      <trkpt lat="42.98939" lon="-0.21392">
        <ele>1478.2</ele>
        <time>2022-05-14T08:53:04Z</time>
      </trkpt>
      <trkpt lat="42.9895" lon="-0.21377">
        <ele>1477.4</ele>
        <time>2022-05-14T08:53:06Z</time>
      </trkpt>
      <trkpt lat="42.98964" lon="-0.21371">
        <ele>1475.6</ele>
        <time>2022-05-14T08:53:08Z</time>
      </trkpt>
      <trkpt lat="42.98972" lon="-0.21368">
        <ele>1475.2</ele>
        <time>2022-05-14T08:53:09Z</time>
      </trkpt>
      <trkpt lat="42.98979" lon="-0.21366">
        <ele>1474.6</ele>
        <time>2022-05-14T08:53:10Z</time>
      </trkpt>
      <trkpt lat="42.98985" lon="-0.21361">
        <ele>1474.2</ele>
        <time>2022-05-14T08:53:11Z</time>
      </trkpt>
      <trkpt lat="42.98991" lon="-0.21355">
        <ele>1473.6</ele>
        <time>2022-05-14T08:53:12Z</time>
      </trkpt>
      <trkpt lat="42.98997" lon="-0.21346">
        <ele>1473.2</ele>
        <time>2022-05-14T08:53:13Z</time>
      </trkpt>
      <trkpt lat="42.99002" lon="-0.21336">
        <ele>1471.6</ele>
        <time>2022-05-14T08:53:14Z</time>
      </trkpt>
      <trkpt lat="42.99006" lon="-0.21326">
        <ele>1470.8</ele>
        <time>2022-05-14T08:53:15Z</time>
      </trkpt>
      <trkpt lat="42.99009" lon="-0.21313">
        <ele>1470</ele>
        <time>2022-05-14T08:53:16Z</time>
      </trkpt>
      <trkpt lat="42.99016" lon="-0.21287">
        <ele>1469.2</ele>
        <time>2022-05-14T08:53:18Z</time>
      </trkpt>
      <trkpt lat="42.9902" lon="-0.21275">
        <ele>1468.6</ele>
        <time>2022-05-14T08:53:19Z</time>
      </trkpt>
      <trkpt lat="42.99027" lon="-0.21253">
        <ele>1467.4</ele>
        <time>2022-05-14T08:53:21Z</time>
      </trkpt>
      <trkpt lat="42.99031" lon="-0.21243">
        <ele>1466.4</ele>
        <time>2022-05-14T08:53:22Z</time>
      </trkpt>
      <trkpt lat="42.99036" lon="-0.21234">
        <ele>1466</ele>
        <time>2022-05-14T08:53:23Z</time>
      </trkpt>
      <trkpt lat="42.9905" lon="-0.21212">
        <ele>1465</ele>
        <time>2022-05-14T08:53:26Z</time>
      </trkpt>
      <trkpt lat="42.99056" lon="-0.21204">
        <ele>1464.6</ele>
        <time>2022-05-14T08:53:27Z</time>
      </trkpt>
      <trkpt lat="42.99068" lon="-0.21187">
        <ele>1464.4</ele>
        <time>2022-05-14T08:53:29Z</time>
      </trkpt>
      <trkpt lat="42.99074" lon="-0.21178">
        <ele>1464.2</ele>
        <time>2022-05-14T08:53:30Z</time>
      </trkpt>
      <trkpt lat="42.99089" lon="-0.21154">
        <ele>1463.4</ele>
        <time>2022-05-14T08:53:33Z</time>
      </trkpt>
      <trkpt lat="42.99093" lon="-0.21144">
        <ele>1463.2</ele>
        <time>2022-05-14T08:53:34Z</time>
      </trkpt>
      <trkpt lat="42.99097" lon="-0.21134">
        <ele>1462.4</ele>
        <time>2022-05-14T08:53:35Z</time>
      </trkpt>
      <trkpt lat="42.99101" lon="-0.21122">
        <ele>1461.8</ele>
        <time>2022-05-14T08:53:36Z</time>
      </trkpt>
      <trkpt lat="42.99103" lon="-0.2111">
        <ele>1460.6</ele>
        <time>2022-05-14T08:53:37Z</time>
      </trkpt>
      <trkpt lat="42.99105" lon="-0.21098">
        <ele>1458.8</ele>
        <time>2022-05-14T08:53:38Z</time>
      </trkpt>
      <trkpt lat="42.99107" lon="-0.21073">
        <ele>1457.4</ele>
        <time>2022-05-14T08:53:40Z</time>
      </trkpt>
      <trkpt lat="42.99111" lon="-0.21033">
        <ele>1455.4</ele>
        <time>2022-05-14T08:53:43Z</time>
      </trkpt>
      <trkpt lat="42.99111" lon="-0.2102">
        <ele>1454.2</ele>
        <time>2022-05-14T08:53:44Z</time>
      </trkpt>
      <trkpt lat="42.99111" lon="-0.21009">
        <ele>1453.6</ele>
        <time>2022-05-14T08:53:45Z</time>
      </trkpt>
      <trkpt lat="42.9911" lon="-0.20997">
        <ele>1452.4</ele>
        <time>2022-05-14T08:53:46Z</time>
      </trkpt>
      <trkpt lat="42.99109" lon="-0.20987">
        <ele>1452</ele>
        <time>2022-05-14T08:53:47Z</time>
      </trkpt>
      <trkpt lat="42.99102" lon="-0.20968">
        <ele>1451.4</ele>
        <time>2022-05-14T08:53:49Z</time>
      </trkpt>
      <trkpt lat="42.99097" lon="-0.20961">
        <ele>1450.4</ele>
        <time>2022-05-14T08:53:50Z</time>
      </trkpt>
      <trkpt lat="42.99083" lon="-0.20942">
        <ele>1449.2</ele>
        <time>2022-05-14T08:53:52Z</time>
      </trkpt>
      <trkpt lat="42.99076" lon="-0.20935">
        <ele>1447</ele>
        <time>2022-05-14T08:53:53Z</time>
      </trkpt>
      <trkpt lat="42.9907" lon="-0.20929">
        <ele>1445.6</ele>
        <time>2022-05-14T08:53:54Z</time>
      </trkpt>
      <trkpt lat="42.99065" lon="-0.20922">
        <ele>1443.8</ele>
        <time>2022-05-14T08:53:55Z</time>
      </trkpt>
      <trkpt lat="42.99056" lon="-0.20906">
        <ele>1441.4</ele>
        <time>2022-05-14T08:53:57Z</time>
      </trkpt>
      <trkpt lat="42.99047" lon="-0.20884">
        <ele>1440.2</ele>
        <time>2022-05-14T08:53:59Z</time>
      </trkpt>
      <trkpt lat="42.99038" lon="-0.20861">
        <ele>1437.6</ele>
        <time>2022-05-14T08:54:01Z</time>
      </trkpt>
      <trkpt lat="42.99034" lon="-0.2085">
        <ele>1436.6</ele>
        <time>2022-05-14T08:54:02Z</time>
      </trkpt>
      <trkpt lat="42.9903" lon="-0.20839">
        <ele>1433.8</ele>
        <time>2022-05-14T08:54:03Z</time>
      </trkpt>
      <trkpt lat="42.99024" lon="-0.20817">
        <ele>1431.2</ele>
        <time>2022-05-14T08:54:05Z</time>
      </trkpt>
      <trkpt lat="42.99023" lon="-0.20807">
        <ele>1430.4</ele>
        <time>2022-05-14T08:54:06Z</time>
      </trkpt>
      <trkpt lat="42.99024" lon="-0.20797">
        <ele>1428.4</ele>
        <time>2022-05-14T08:54:07Z</time>
      </trkpt>
      <trkpt lat="42.99026" lon="-0.20784">
        <ele>1427</ele>
        <time>2022-05-14T08:54:08Z</time>
      </trkpt>
      <trkpt lat="42.99028" lon="-0.20775">
        <ele>1426.6</ele>
        <time>2022-05-14T08:54:09Z</time>
      </trkpt>
      <trkpt lat="42.99029" lon="-0.20761">
        <ele>1425.2</ele>
        <time>2022-05-14T08:54:10Z</time>
      </trkpt>
      <trkpt lat="42.99029" lon="-0.20748">
        <ele>1424</ele>
        <time>2022-05-14T08:54:11Z</time>
      </trkpt>
      <trkpt lat="42.99029" lon="-0.20736">
        <ele>1421</ele>
        <time>2022-05-14T08:54:12Z</time>
      </trkpt>
      <trkpt lat="42.9903" lon="-0.20722">
        <ele>1420.4</ele>
        <time>2022-05-14T08:54:13Z</time>
      </trkpt>
      <trkpt lat="42.99029" lon="-0.2071">
        <ele>1419.4</ele>
        <time>2022-05-14T08:54:14Z</time>
      </trkpt>
      <trkpt lat="42.9903" lon="-0.20686">
        <ele>1417.2</ele>
        <time>2022-05-14T08:54:16Z</time>
      </trkpt>
      <trkpt lat="42.9903" lon="-0.20674">
        <ele>1416</ele>
        <time>2022-05-14T08:54:17Z</time>
      </trkpt>
      <trkpt lat="42.99031" lon="-0.20663">
        <ele>1414.4</ele>
        <time>2022-05-14T08:54:18Z</time>
      </trkpt>
      <trkpt lat="42.99034" lon="-0.20654">
        <ele>1413.6</ele>
        <time>2022-05-14T08:54:19Z</time>
      </trkpt>
      <trkpt lat="42.99039" lon="-0.20648">
        <ele>1411.6</ele>
        <time>2022-05-14T08:54:20Z</time>
      </trkpt>
      <trkpt lat="42.99046" lon="-0.20646">
        <ele>1410.4</ele>
        <time>2022-05-14T08:54:21Z</time>
      </trkpt>
      <trkpt lat="42.99053" lon="-0.20646">
        <ele>1408.4</ele>
        <time>2022-05-14T08:54:22Z</time>
      </trkpt>
      <trkpt lat="42.99061" lon="-0.20647">
        <ele>1407</ele>
        <time>2022-05-14T08:54:23Z</time>
      </trkpt>
      <trkpt lat="42.99068" lon="-0.20646">
        <ele>1406.4</ele>
        <time>2022-05-14T08:54:24Z</time>
      </trkpt>
      <trkpt lat="42.99075" lon="-0.20642">
        <ele>1405</ele>
        <time>2022-05-14T08:54:25Z</time>
      </trkpt>
      <trkpt lat="42.99081" lon="-0.20635">
        <ele>1404.2</ele>
        <time>2022-05-14T08:54:26Z</time>
      </trkpt>
      <trkpt lat="42.99084" lon="-0.20627">
        <ele>1403.2</ele>
        <time>2022-05-14T08:54:27Z</time>
      </trkpt>
      <trkpt lat="42.99087" lon="-0.20618">
        <ele>1402.4</ele>
        <time>2022-05-14T08:54:28Z</time>
      </trkpt>
      <trkpt lat="42.99089" lon="-0.20609">
        <ele>1401.6</ele>
        <time>2022-05-14T08:54:29Z</time>
      </trkpt>
      <trkpt lat="42.99091" lon="-0.20598">
        <ele>1401.4</ele>
        <time>2022-05-14T08:54:30Z</time>
      </trkpt>
      <trkpt lat="42.99092" lon="-0.20574">
        <ele>1401</ele>
        <time>2022-05-14T08:54:32Z</time>
      </trkpt>
      <trkpt lat="42.99092" lon="-0.20562">
        <ele>1400.4</ele>
        <time>2022-05-14T08:54:33Z</time>
      </trkpt>
      <trkpt lat="42.99091" lon="-0.20539">
        <ele>1399.6</ele>
        <time>2022-05-14T08:54:35Z</time>
      </trkpt>
      <trkpt lat="42.99092" lon="-0.20527">
        <ele>1399</ele>
        <time>2022-05-14T08:54:36Z</time>
      </trkpt>
      <trkpt lat="42.99092" lon="-0.20515">
        <ele>1398.2</ele>
        <time>2022-05-14T08:54:37Z</time>
      </trkpt>
      <trkpt lat="42.99092" lon="-0.20502">
        <ele>1398</ele>
        <time>2022-05-14T08:54:38Z</time>
      </trkpt>
      <trkpt lat="42.99091" lon="-0.20488">
        <ele>1396.6</ele>
        <time>2022-05-14T08:54:39Z</time>
      </trkpt>
      <trkpt lat="42.99092" lon="-0.20478">
        <ele>1395.6</ele>
        <time>2022-05-14T08:54:40Z</time>
      </trkpt>
      <trkpt lat="42.99092" lon="-0.20466">
        <ele>1395</ele>
        <time>2022-05-14T08:54:41Z</time>
      </trkpt>
      <trkpt lat="42.99095" lon="-0.20454">
        <ele>1392.8</ele>
        <time>2022-05-14T08:54:42Z</time>
      </trkpt>
      <trkpt lat="42.99098" lon="-0.20443">
        <ele>1391.6</ele>
        <time>2022-05-14T08:54:43Z</time>
      </trkpt>
      <trkpt lat="42.99102" lon="-0.20432">
        <ele>1390</ele>
        <time>2022-05-14T08:54:44Z</time>
      </trkpt>
      <trkpt lat="42.99107" lon="-0.20407">
        <ele>1388.4</ele>
        <time>2022-05-14T08:54:46Z</time>
      </trkpt>
      <trkpt lat="42.99109" lon="-0.20394">
        <ele>1387.8</ele>
        <time>2022-05-14T08:54:47Z</time>
      </trkpt>
      <trkpt lat="42.99111" lon="-0.20381">
        <ele>1385.2</ele>
        <time>2022-05-14T08:54:48Z</time>
      </trkpt>
      <trkpt lat="42.99116" lon="-0.20359">
        <ele>1383.2</ele>
        <time>2022-05-14T08:54:50Z</time>
      </trkpt>
      <trkpt lat="42.99122" lon="-0.20337">
        <ele>1380.8</ele>
        <time>2022-05-14T08:54:52Z</time>
      </trkpt>
      <trkpt lat="42.99125" lon="-0.20326">
        <ele>1380</ele>
        <time>2022-05-14T08:54:53Z</time>
      </trkpt>
      <trkpt lat="42.99126" lon="-0.20317">
        <ele>1378.6</ele>
        <time>2022-05-14T08:54:54Z</time>
      </trkpt>
      <trkpt lat="42.99125" lon="-0.20308">
        <ele>1377</ele>
        <time>2022-05-14T08:54:55Z</time>
      </trkpt>
      <trkpt lat="42.99118" lon="-0.20298">
        <ele>1375.2</ele>
        <time>2022-05-14T08:54:57Z</time>
      </trkpt>
      <trkpt lat="42.99113" lon="-0.20295">
        <ele>1374</ele>
        <time>2022-05-14T08:54:58Z</time>
      </trkpt>
      <trkpt lat="42.99108" lon="-0.20293">
        <ele>1371.6</ele>
        <time>2022-05-14T08:54:59Z</time>
      </trkpt>
      <trkpt lat="42.991" lon="-0.20284">
        <ele>1369.6</ele>
        <time>2022-05-14T08:55:01Z</time>
      </trkpt>
      <trkpt lat="42.99094" lon="-0.20274">
        <ele>1367.8</ele>
        <time>2022-05-14T08:55:03Z</time>
      </trkpt>
      <trkpt lat="42.99091" lon="-0.20269">
        <ele>1367.2</ele>
        <time>2022-05-14T08:55:04Z</time>
      </trkpt>
      <trkpt lat="42.99087" lon="-0.20266">
        <ele>1366.6</ele>
        <time>2022-05-14T08:55:05Z</time>
      </trkpt>
      <trkpt lat="42.99083" lon="-0.20263">
        <ele>1366.4</ele>
        <time>2022-05-14T08:55:06Z</time>
      </trkpt>
      <trkpt lat="42.99068" lon="-0.20249">
        <ele>1366</ele>
        <time>2022-05-14T08:55:11Z</time>
      </trkpt>
      <trkpt lat="42.99059" lon="-0.20229">
        <ele>1366.2</ele>
        <time>2022-05-14T08:55:17Z</time>
      </trkpt>
      <trkpt lat="42.99061" lon="-0.20223">
        <ele>1366.2</ele>
        <time>2022-05-14T08:55:19Z</time>
      </trkpt>
      <trkpt lat="42.99063" lon="-0.20223">
        <ele>1366.2</ele>
        <time>2022-05-14T08:55:20Z</time>
      </trkpt>
      <trkpt lat="42.99064" lon="-0.20224">
        <ele>1366.2</ele>
        <time>2022-05-14T08:55:23Z</time>
      </trkpt>
      <trkpt lat="42.99064" lon="-0.20224">
        <ele>1366.2</ele>
        <time>2022-05-14T08:55:24Z</time>
      </trkpt>
    </trkseg>
  </trk>
</gpx>